[[{"header":{"parameterUnit":"m.s-1","parameterCategory":1,"la1":30.6,"la2":28.766,"lo1":-90.7593,"lo2":-88.6598,"dy":0.0162,"dx":0.0183,"nx":116,"ny":114,"refTime":"2023-09-13T12:00:00:Z","depth":0,"parameterNumber":2,"parameterNumberName":"U-component_of_WINDS"},"data":[0.0,0.0,0.0,0.0,0.0,0.0,0.0,0.0,0.0,0.0,0.0,0.0,0.0,0.0,0.0,0.0,0.0,0.0,0.0,0.0,0.0,0.0,0.0,0.0,0.0,0.0,0.0,0.0,0.0,0.0,0.0,0.0,0.0,0.0,0.0,0.0,0.0,0.0,0.0,0.0,0.0,0.0,0.0,0.0,0.0,0.0,0.0,0.0,0.0,0.0,0.0,0.0,0.0,0.0,0.0,0.0,0.0,0.0,0.0,0.0,0.0,0.0,0.0,0.0,0.0,0.0,0.0,0.0,0.0,0.0,0.0,0.0,0.0,0.0,0.0,0.0,0.0,0.0,0.0,0.0,0.0,0.0,0.0,0.0,0.0,0.0,0.0,0.0,0.0,0.0,0.0,0.0,0.0,0.0,0.0,0.0,0.0,0.0,0.0,0.0,0.0,0.0,0.0,0.0,0.0,0.0,0.0,0.0,0.0,0.0,0.0,0.0,0.0,0.0,0.0,0.0,0.0,0.0,0.0,0.0,0.0,0.0,0.0,0.0,0.0,0.0,0.0,0.0,0.0,0.0,0.0,0.0,0.0,0.0,0.0,0.0,0.0,0.0,0.0,0.0,0.0,0.0,0.0,0.0,0.0,0.0,0.0,0.0,0.0,0.0,0.0,0.0,0.0,0.0,0.0,0.0,0.0,0.0,0.0,0.0,0.0,0.0,0.0,0.0,0.0,0.0,0.0,0.0,0.0,0.0,0.0,0.0,0.0,0.0,0.0,0.0,0.0,0.0,0.0,0.0,0.0,0.0,0.0,0.0,0.0,0.0,0.0,0.0,0.0,0.0,0.0,0.0,0.0,0.0,0.0,0.0,0.0,0.0,0.0,0.0,0.0,0.0,0.0,0.0,0.0,0.0,0.0,0.0,0.0,0.0,0.0,0.0,0.0,0.0,0.0,0.0,0.0,0.0,0.0,0.0,0.0,0.0,0.0,0.0,0.0,0.0,0.0,0.0,0.0,0.0,0.0,0.0,0.0,0.0,0.0,0.0,0.0,0.0,0.0,0.0,0.0,0.0,0.0,0.0,0.0,0.0,0.0,0.0,0.0,0.0,0.0,0.0,0.0,0.0,0.0,0.0,0.0,0.0,0.0,0.0,0.0,0.0,0.0,0.0,0.0,0.0,0.0,0.0,0.0,0.0,0.0,0.0,0.0,0.0,0.0,0.0,0.0,0.0,0.0,0.0,0.0,0.0,0.0,0.0,0.0,0.0,0.0,0.0,0.0,0.0,0.0,0.0,0.0,0.0,0.0,0.0,0.0,0.0,0.0,0.0,0.0,0.0,0.0,0.0,0.0,0.0,0.0,0.0,0.0,0.0,0.0,0.0,0.0,0.0,0.0,0.0,0.0,0.0,0.0,0.0,0.0,0.0,0.0,0.0,0.0,0.0,0.0,0.0,0.0,0.0,0.0,0.0,0.0,0.0,0.0,0.0,0.0,0.0,0.0,0.0,0.0,0.0,0.0,0.0,0.0,0.0,0.0,0.0,0.0,0.0,0.0,0.0,0.0,0.0,0.0,0.0,0.0,0.0,0.0,0.0,0.0,0.0,0.0,0.0,0.0,0.0,0.0,0.0,0.0,0.0,0.0,0.0,0.0,0.0,0.0,0.0,0.0,0.0,0.0,0.0,0.0,0.0,0.0,0.0,0.0,0.0,0.0,0.0,0.0,0.0,0.0,0.0,0.0,0.0,0.0,0.0,0.0,0.0,0.0,0.0,0.0,0.0,0.0,0.0,0.0,0.0,0.0,0.0,0.0,0.0,0.0,0.0,0.0,0.0,0.0,0.0,0.0,0.0,0.0,0.0,0.0,0.0,0.0,0.0,0.0,0.0,0.0,0.0,0.0,0.0,0.0,0.0,0.0,0.0,0.0,0.0,0.0,0.0,0.0,0.0,0.0,0.0,0.0,0.0,0.0,0.0,0.0,0.0,0.0,0.0,0.0,0.0,0.0,0.0,0.0,0.0,0.0,0.0,0.0,0.0,0.0,0.0,0.0,0.0,0.0,0.0,0.0,0.0,0.0,0.0,0.0,0.0,0.0,0.0,0.0,0.0,0.0,0.0,0.0,0.0,0.0,0.0,0.0,0.0,0.0,0.0,0.0,0.0,0.0,0.0,0.0,0.0,0.0,0.0,0.0,0.0,0.0,0.0,0.0,0.0,0.0,0.0,0.0,0.0,0.0,0.0,0.0,0.0,0.0,0.0,0.0,0.0,0.0,0.0,0.0,0.0,0.0,0.0,0.0,0.0,0.0,0.0,0.0,0.0,0.0,0.0,0.0,0.0,0.0,0.0,0.0,0.0,0.0,0.0,0.0,0.0,0.0,0.0,0.0,0.0,0.0,0.0,0.0,0.0,0.0,0.0,0.0,0.0,0.0,0.0,0.0,0.0,0.0,0.0,0.0,0.0,0.0,0.0,0.0,0.0,0.0,0.0,0.0,0.0,0.0,0.0,0.0,0.0,0.0,0.0,0.0,0.0,0.0,0.0,0.0,0.0,0.0,0.0,0.0,0.0,0.0,0.0,0.0,0.0,0.0,0.0,0.0,0.0,0.0,0.0,0.0,0.0,0.0,0.0,0.0,0.0,0.0,0.0,0.0,0.0,0.0,0.0,0.0,0.0,0.0,0.0,0.0,0.0,0.0,0.0,0.0,0.0,0.0,0.0,0.0,0.0,0.0,0.0,0.0,0.0,0.0,0.0,0.0,0.0,0.0,0.0,0.0,0.0,0.0,0.0,0.0,0.0,0.0,0.0,0.0,0.0,0.0,0.0,0.0,0.0,0.0,0.0,0.0,0.0,0.0,0.0,0.0,0.0,0.0,0.0,0.0,0.0,0.0,0.0,0.0,0.0,0.0,0.0,0.0,0.0,0.0,0.0,0.0,0.0,0.0,0.0,0.0,0.0,0.0,0.0,0.0,0.0,0.0,0.0,0.0,0.0,0.0,0.0,0.0,0.0,0.0,0.0,0.0,0.0,0.0,0.0,0.0,0.0,0.0,0.0,0.0,0.0,0.0,0.0,0.0,0.0,0.0,0.0,0.0,0.0,0.0,0.0,0.0,0.0,0.0,0.0,0.0,0.0,0.0,0.0,0.0,0.0,0.0,0.0,0.0,0.0,0.0,0.0,0.0,0.0,0.0,0.0,0.0,0.0,0.0,0.0,0.0,0.0,0.0,0.0,0.0,0.0,0.0,0.0,0.0,0.0,0.0,0.0,0.0,0.0,0.0,0.0,0.0,0.0,0.0,0.0,0.0,0.0,0.0,0.0,0.0,0.0,0.0,0.0,0.0,0.0,0.0,0.0,0.0,0.0,0.0,0.0,0.0,0.0,0.0,0.0,0.0,0.0,0.0,0.0,0.0,0.0,0.0,0.0,0.0,0.0,0.0,0.0,0.0,0.0,0.0,0.0,0.0,0.0,0.0,0.0,0.0,0.0,0.0,0.0,0.0,0.0,0.0,0.0,0.0,0.0,0.0,0.0,0.0,0.0,0.0,0.0,0.0,0.0,0.0,0.0,0.0,0.0,0.0,0.0,0.0,0.0,0.0,0.0,0.0,0.0,0.0,0.0,0.0,0.0,0.0,0.0,0.0,0.0,0.0,0.0,0.0,0.0,0.0,0.0,0.0,0.0,0.0,0.0,0.0,0.0,0.0,0.0,0.0,0.0,0.0,0.0,0.0,0.0,0.0,0.0,0.0,0.0,0.0,0.0,0.0,0.0,0.0,0.0,0.0,0.0,0.0,0.0,0.0,0.0,0.0,0.0,0.0,0.0,0.0,0.0,0.0,0.0,0.0,0.0,0.0,0.0,0.0,0.0,0.0,0.0,0.0,0.0,0.0,0.0,0.0,0.0,0.0,0.0,0.0,0.0,0.0,0.0,0.0,0.0,0.0,0.0,0.0,0.0,0.0,0.0,0.0,0.0,0.0,0.0,0.0,0.0,0.0,0.0,0.0,0.0,0.0,0.0,0.0,0.0,0.0,0.0,0.0,0.0,0.0,0.0,0.0,0.0,0.0,0.0,0.0,0.0,0.0,0.0,0.0,0.0,0.0,0.0,0.0,0.0,0.0,0.0,0.0,0.0,0.0,0.0,0.0,0.0,0.0,0.0,0.0,0.0,0.0,0.0,0.0,0.0,0.0,0.0,0.0,0.0,0.0,0.0,0.0,0.0,0.0,0.0,0.0,0.0,0.0,0.0,0.0,0.0,0.0,0.0,0.0,0.0,0.0,0.0,0.0,0.0,0.0,0.0,0.0,0.0,0.0,0.0,0.0,0.0,0.0,0.0,0.0,0.0,0.0,0.0,0.0,0.0,0.0,0.0,0.0,0.0,0.0,0.0,0.0,0.0,0.0,0.0,0.0,0.0,0.0,0.0,0.0,0.0,0.0,0.0,0.0,0.0,0.0,0.0,0.0,0.0,0.0,0.0,0.0,0.0,0.0,0.0,0.0,0.0,0.0,0.0,0.0,0.0,0.0,0.0,0.0,0.0,0.0,0.0,0.0,0.0,0.0,0.0,0.0,0.0,0.0,0.0,0.0,0.0,0.0,0.0,0.0,0.0,0.0,0.0,0.0,0.0,0.0,0.0,0.0,0.0,0.0,0.0,0.0,0.0,0.0,0.0,0.0,0.0,0.0,0.0,0.0,0.0,0.0,0.0,0.0,0.0,0.0,0.0,0.0,0.0,0.0,0.0,0.0,0.0,0.0,0.0,0.0,0.0,0.0,0.0,0.0,0.0,0.0,0.0,0.0,0.0,0.0,0.0,0.0,0.0,0.0,0.0,0.0,0.0,0.0,0.0,0.0,0.0,0.0,0.0,0.0,0.0,0.0,0.0,0.0,0.0,0.0,0.0,0.0,0.0,0.0,0.0,0.0,0.0,0.0,0.0,0.0,0.0,0.0,0.0,0.0,0.0,0.0,0.0,0.0,0.0,0.0,0.0,0.0,0.0,0.0,0.0,0.0,0.0,0.0,0.0,0.0,0.0,0.0,0.0,0.0,0.0,0.0,0.0,0.0,0.0,0.0,0.0,0.0,0.0,0.0,0.0,0.0,0.0,0.0,0.0,0.0,0.0,0.0,0.0,0.0,0.0,0.0,0.0,0.0,0.0,0.0,0.0,0.0,0.0,0.0,0.0,0.0,0.0,0.0,0.0,0.0,0.0,0.0,0.0,0.0,0.0,0.0,0.0,0.0,0.0,0.0,0.0,0.0,0.0,0.0,0.0,0.0,0.0,0.0,0.0,0.0,0.0,0.0,0.0,0.0,0.0,0.0,0.0,0.0,0.0,0.0,0.0,0.0,0.0,0.0,0.0,0.0,0.0,0.0,0.0,0.0,0.0,0.0,0.0,0.0,0.0,0.0,0.0,0.0,0.0,0.0,0.0,0.0,0.0,0.0,0.0,0.0,0.0,0.0,0.0,0.0,0.0,0.0,0.0,0.0,0.0,0.0,0.0,0.0,0.0,0.0,0.0,0.0,0.0,0.0,0.0,0.0,0.0,0.0,0.0,0.0,0.0,0.0,0.0,0.0,0.0,0.0,0.0,0.0,0.0,0.0,0.0,0.0,0.0,0.0,0.0,0.0,0.0,0.0,0.0,0.0,0.0,0.0,0.0,0.0,0.0,0.0,0.0,0.0,0.0,0.0,0.0,0.0,0.0,0.0,0.0,0.0,0.0,0.0,0.0,0.0,0.0,0.0,0.0,0.0,0.0,0.0,0.0,0.0,0.0,0.0,0.0,0.0,0.0,0.0,0.0,0.0,0.0,0.0,0.0,0.0,0.0,0.0,0.0,0.0,0.0,0.0,0.0,0.0,0.0,0.0,0.0,0.0,0.0,0.0,0.0,0.0,0.0,0.0,0.0,0.0,0.0,0.0,0.0,0.0,0.0,0.0,0.0,0.0,0.0,0.0,0.0,0.0,0.0,0.0,0.0,0.0,0.0,0.0,0.0,0.0,0.0,0.0,0.0,0.0,0.0,0.0,0.0,0.0,0.0,0.0,0.0,0.0,0.0,0.0,0.0,0.0,0.0,0.0,0.0,0.0,0.0,0.0,0.0,-1.4567,-1.392,0.0,0.0,0.0,0.0,0.0,0.0,0.0,0.0,0.0,0.0,0.0,0.0,0.0,0.0,0.0,0.0,0.0,0.0,0.0,0.0,0.0,0.0,0.0,0.0,0.0,0.0,0.0,0.0,0.0,0.0,0.0,0.0,0.0,0.0,0.0,0.0,0.0,0.0,0.0,0.0,0.0,0.0,0.0,0.0,0.0,0.0,0.0,0.0,0.0,0.0,0.0,0.0,0.0,0.0,0.0,0.0,0.0,0.0,0.0,0.0,0.0,0.0,0.0,0.0,0.0,0.0,0.0,0.0,0.0,0.0,0.0,0.0,0.0,0.0,0.0,0.0,0.0,0.0,0.0,0.0,0.0,0.0,0.0,0.0,0.0,0.0,0.0,0.0,0.0,0.0,0.0,0.0,0.0,0.0,0.0,0.0,0.0,0.0,0.0,0.0,0.0,0.0,0.0,0.0,0.0,0.0,0.0,0.0,0.0,0.0,0.0,0.0,0.0,0.0,-1.5181,-1.4508,0.0,0.0,0.0,0.0,0.0,0.0,0.0,0.0,0.0,0.0,0.0,0.0,0.0,0.0,0.0,0.0,0.0,0.0,0.0,0.0,0.0,0.0,0.0,0.0,0.0,0.0,0.0,0.0,0.0,0.0,0.0,0.0,0.0,0.0,0.0,0.0,0.0,0.0,0.0,0.0,0.0,0.0,0.0,0.0,0.0,0.0,0.0,0.0,0.0,0.0,0.0,0.0,0.0,0.0,0.0,0.0,0.0,0.0,0.0,0.0,0.0,0.0,0.0,0.0,0.0,0.0,0.0,0.0,0.0,0.0,0.0,0.0,0.0,0.0,0.0,0.0,0.0,0.0,0.0,0.0,0.0,0.0,0.0,0.0,0.0,0.0,0.0,0.0,0.0,0.0,0.0,0.0,0.0,0.0,0.0,0.0,0.0,0.0,0.0,0.0,0.0,0.0,0.0,0.0,0.0,0.0,0.0,0.0,-1.8181,-1.7955,-1.7544,-1.7409,-1.7263,-1.7025,-1.6007,-1.5338,-1.493,-1.4478,0.0,0.0,0.0,0.0,0.0,0.0,0.0,0.0,0.0,0.0,0.0,0.0,0.0,0.0,0.0,0.0,0.0,0.0,0.0,0.0,0.0,0.0,0.0,0.0,0.0,0.0,0.0,0.0,0.0,0.0,0.0,0.0,0.0,0.0,0.0,0.0,0.0,0.0,-2.3475,-2.3767,-2.3677,-2.3246,-2.2593,0.0,0.0,0.0,0.0,0.0,0.0,0.0,0.0,0.0,0.0,0.0,0.0,0.0,0.0,0.0,0.0,0.0,0.0,0.0,0.0,0.0,0.0,0.0,0.0,0.0,0.0,0.0,0.0,0.0,0.0,0.0,0.0,0.0,0.0,0.0,0.0,0.0,0.0,0.0,0.0,0.0,0.0,0.0,-2.0054,-2.0054,0.0,0.0,0.0,0.0,0.0,0.0,0.0,0.0,0.0,0.0,0.0,0.0,0.0,-1.9488,-1.9332,-1.904,-1.8849,-1.8789,-1.8557,-1.8303,-1.8098,-1.7966,-1.7729,-1.7409,-1.707,0.0,-1.5958,-1.5619,0.0,0.0,0.0,0.0,0.0,0.0,0.0,0.0,0.0,0.0,0.0,0.0,0.0,0.0,0.0,0.0,0.0,0.0,0.0,0.0,0.0,0.0,0.0,0.0,0.0,0.0,0.0,0.0,0.0,0.0,0.0,0.0,0.0,0.0,0.0,0.0,-2.5063,-2.4964,-2.4879,-2.4851,-2.4781,-2.4682,-2.4326,-2.3816,-2.319,-2.3075,0.0,0.0,0.0,0.0,0.0,0.0,0.0,0.0,0.0,0.0,0.0,0.0,0.0,0.0,0.0,0.0,0.0,0.0,0.0,0.0,0.0,0.0,0.0,0.0,0.0,0.0,0.0,0.0,0.0,0.0,0.0,0.0,0.0,0.0,0.0,0.0,0.0,0.0,0.0,-2.0849,-2.1017,-2.1275,-2.1613,-2.1768,0.0,0.0,0.0,0.0,0.0,0.0,0.0,0.0,0.0,-2.0909,-2.0523,-2.0195,-1.9968,-1.98,-1.9643,-1.9475,-1.9348,-1.9115,-1.8807,-1.8668,-1.842,-1.8064,-1.7901,-1.753,-1.6987,-1.6252,-1.568,-1.5195,0.0,0.0,0.0,0.0,-1.2064,-1.108,0.0,0.0,0.0,0.0,0.0,0.0,0.0,0.0,0.0,0.0,0.0,0.0,0.0,0.0,0.0,-2.605,0.0,0.0,0.0,0.0,0.0,0.0,0.0,0.0,0.0,0.0,0.0,-2.6404,-2.6204,-2.6084,-2.6056,-2.5797,-2.5646,-2.5618,-2.5618,-2.5063,-2.4105,-2.4105,-2.3859,0.0,0.0,0.0,0.0,0.0,0.0,0.0,0.0,0.0,0.0,0.0,0.0,0.0,0.0,0.0,0.0,0.0,0.0,0.0,0.0,0.0,0.0,0.0,0.0,0.0,0.0,0.0,0.0,0.0,0.0,0.0,0.0,0.0,0.0,0.0,0.0,0.0,0.0,-2.1773,-2.1957,-2.2255,-2.2546,-2.261,0.0,0.0,0.0,0.0,0.0,0.0,-2.2056,-2.156,-2.1386,-2.1608,-2.1305,-2.1019,-2.0711,-2.0711,-2.055,-2.028,-2.0215,-1.9977,-1.9584,-1.9396,-1.9042,-1.8583,-1.8414,-1.809,-1.7624,-1.6892,-1.6286,-1.5836,-1.5638,-1.5149,-1.4479,-1.3956,-1.3138,-1.2144,0.0,0.0,0.0,0.0,0.0,0.0,0.0,0.0,0.0,0.0,0.0,0.0,0.0,0.0,-2.7021,-2.6864,-2.8021,-2.867,0.0,0.0,0.0,0.0,0.0,0.0,0.0,0.0,0.0,-2.6669,-2.6683,-2.659,-2.6457,-2.6457,-2.6377,-2.6256,-2.6256,-2.5783,-2.4948,-2.4948,-2.4736,-2.4394,0.0,0.0,0.0,0.0,0.0,0.0,0.0,0.0,0.0,0.0,0.0,0.0,0.0,0.0,0.0,0.0,0.0,0.0,0.0,0.0,0.0,0.0,0.0,0.0,0.0,0.0,0.0,0.0,0.0,0.0,0.0,0.0,0.0,0.0,0.0,0.0,0.0,0.0,0.0,-2.259,-2.3202,0.0,0.0,0.0,0.0,-2.3539,-2.3374,-2.3148,-2.2859,-2.2494,-2.2273,-2.2154,-2.1963,-2.1753,-2.1522,-2.1522,-2.1471,-2.1325,-2.1123,-2.0796,-2.0335,-1.9998,-1.9473,-1.8774,-1.8583,-1.8202,-1.7706,-1.7658,-1.7307,-1.681,-1.6627,-1.6062,-1.5376,-1.4996,-1.424,-1.3346,0.0,0.0,0.0,0.0,0.0,0.0,0.0,0.0,0.0,0.0,0.0,0.0,0.0,-2.7568,-2.8019,-2.877,-2.9237,-2.953,-2.9614,0.0,0.0,0.0,0.0,0.0,0.0,0.0,-2.728,-2.728,-2.7192,-2.7115,-2.7089,-2.6985,-2.6919,-2.6867,-2.6867,-2.6671,-2.6286,-2.5947,-2.5674,-2.5384,-2.5203,-2.4751,0.0,0.0,0.0,0.0,0.0,0.0,0.0,0.0,0.0,0.0,0.0,0.0,0.0,0.0,0.0,0.0,0.0,0.0,0.0,0.0,0.0,0.0,0.0,0.0,0.0,0.0,0.0,0.0,0.0,0.0,0.0,0.0,0.0,0.0,0.0,0.0,0.0,-2.3661,-2.4053,0.0,-2.3683,-2.3981,-2.3982,-2.3522,-2.33,-2.312,-2.2909,-2.2574,-2.2389,-2.2328,-2.2173,-2.2049,-2.1975,-2.1975,-2.1913,-2.1726,-2.1557,-2.121,-2.0711,-2.0248,-1.966,-1.8965,-1.864,-1.8279,-1.7896,-1.7896,-1.7657,-1.7289,-1.722,-1.6795,-1.6158,-1.5762,-1.501,-1.4122,0.0,0.0,0.0,0.0,0.0,0.0,0.0,0.0,0.0,0.0,0.0,-2.7284,-2.8117,-2.8631,-2.9208,-3.0008,-3.0196,-3.0312,-3.0431,0.0,0.0,0.0,0.0,0.0,0.0,-2.775,-2.7675,-2.7675,-2.7539,-2.7463,-2.7463,-2.7386,-2.7321,-2.7321,-2.7321,-2.7284,-2.7196,-2.6867,-2.651,-2.615,-2.5961,-2.5536,-2.495,0.0,0.0,0.0,0.0,0.0,0.0,0.0,0.0,0.0,0.0,0.0,0.0,0.0,0.0,0.0,0.0,0.0,0.0,0.0,0.0,0.0,0.0,0.0,0.0,0.0,0.0,0.0,0.0,0.0,0.0,0.0,0.0,0.0,0.0,-2.392,-2.3968,-2.415,-2.4319,-2.4261,-2.3848,-2.3949,-2.3861,-2.3433,-2.3271,-2.3226,-2.3274,-2.3071,-2.3022,-2.3206,-2.3124,-2.3074,-2.3074,-2.3074,-2.2936,-2.2714,-2.2468,-2.2084,-2.15,-2.0875,-2.0145,-1.9303,-1.8907,-1.8452,-1.8008,-1.8008,-1.7872,-1.7676,-1.7598,-1.7235,-1.6742,-1.6359,-1.5727,-1.4955,0.0,0.0,0.0,0.0,0.0,0.0,0.0,0.0,0.0,0.0,-2.7385,-2.8202,-2.8472,-2.9817,-3.0642,-3.0476,-3.09,-3.1112,-3.0932,-3.0535,0.0,0.0,0.0,0.0,-2.8235,-2.794,-2.7815,-2.7815,-2.7675,-2.76,-2.76,-2.76,-2.76,-2.76,-2.76,-2.76,-2.76,-2.76,-2.7255,-2.6695,-2.6457,-2.6163,-2.5866,0.0,0.0,0.0,0.0,0.0,0.0,0.0,0.0,0.0,0.0,0.0,0.0,0.0,0.0,0.0,0.0,0.0,0.0,0.0,0.0,0.0,0.0,0.0,0.0,0.0,0.0,0.0,0.0,0.0,0.0,0.0,0.0,0.0,-2.4276,-2.4292,-2.4189,-2.392,-2.3998,-2.3956,-2.3641,-2.3785,-2.3769,-2.3454,-2.3454,-2.3604,-2.3991,-2.4017,-2.4268,-2.4775,-2.4788,-2.4788,-2.4788,-2.4788,-2.4626,-2.43,-2.3914,-2.337,-2.2685,-2.1964,-2.0949,-1.9813,-1.9408,-1.8785,-1.8047,-1.8047,-1.8047,-1.8013,-1.7794,-1.751,-1.7166,-1.6777,-1.6359,-1.5824,0.0,0.0,0.0,0.0,0.0,0.0,0.0,0.0,0.0,0.0,-2.7896,-2.8832,-3.021,-3.0664,-3.101,-3.1364,-3.1416,-3.1327,-3.1131,0.0,0.0,0.0,0.0,0.0,-2.8566,-2.8244,-2.8039,-2.7955,-2.7815,-2.77,-2.76,-2.76,-2.76,-2.76,-2.76,-2.76,-2.76,-2.76,-2.7484,-2.7331,-2.7049,-2.6709,-2.6312,0.0,0.0,0.0,0.0,0.0,0.0,0.0,0.0,0.0,0.0,0.0,0.0,0.0,0.0,0.0,0.0,0.0,0.0,0.0,0.0,0.0,0.0,0.0,0.0,0.0,0.0,0.0,0.0,0.0,0.0,0.0,-2.3995,-2.3979,-2.4128,-2.394,-2.3763,-2.3688,-2.3717,-2.3812,-2.4022,-2.4104,-2.4208,-2.4394,-2.4431,-2.4463,-2.4582,-2.4562,-2.4637,-2.4788,-2.4788,-2.4788,-2.4788,-2.4788,-2.4691,-2.4508,-2.4124,-2.3604,-2.3034,-2.216,-2.1274,-2.041,-1.991,-1.9421,-1.8936,-1.8936,-1.8936,-1.8877,-1.8183,-1.775,-1.7545,-1.7314,-1.6716,-1.5903,0.0,0.0,0.0,0.0,0.0,0.0,0.0,0.0,0.0,0.0,-2.8577,-2.9633,-3.0988,-3.1323,-3.1568,-3.1894,-3.169,-3.15,-3.1368,0.0,0.0,0.0,0.0,-2.9296,-2.9036,-2.8685,-2.8414,-2.822,-2.8063,-2.7865,-2.7675,-2.7675,-2.765,-2.76,-2.76,-2.76,-2.76,-2.76,-2.76,-2.76,-2.7423,-2.7141,-2.6762,-2.6445,-2.6096,-2.5729,-2.5591,-2.5342,-2.5062,-2.4893,0.0,0.0,0.0,0.0,0.0,0.0,0.0,0.0,0.0,0.0,0.0,0.0,0.0,0.0,0.0,0.0,0.0,0.0,0.0,0.0,0.0,0.0,0.0,0.0,-2.4257,-2.4197,-2.4429,-2.4111,-2.3925,-2.4063,-2.4101,-2.4196,-2.4432,-2.4457,-2.4532,-2.4795,-2.4788,-2.4888,-2.5134,-2.5146,-2.5259,-2.5498,-2.5511,-2.5511,-2.5511,-2.5511,-2.5411,-2.5257,-2.4863,-2.4342,-2.3699,-2.2836,-2.1872,-2.0865,-2.0414,-1.9839,-1.9287,-1.9287,-1.9287,-1.9219,0.0,0.0,0.0,0.0,-1.7132,-1.6464,0.0,0.0,0.0,0.0,0.0,0.0,0.0,0.0,0.0,0.0,0.0,-3.0419,-3.1246,-3.1881,-3.2214,-3.2126,-3.182,-3.1617,0.0,0.0,0.0,-3.0372,-3.0011,-2.9744,-2.956,-2.9182,-2.8858,-2.8583,-2.8374,-2.8137,-2.7865,-2.784,-2.7765,-2.7625,-2.7625,-2.76,-2.76,-2.76,-2.76,-2.76,-2.76,-2.7448,-2.7181,-2.6893,-2.6683,-2.6537,-2.6431,-2.619,-2.6002,-2.5975,0.0,0.0,0.0,0.0,0.0,0.0,0.0,0.0,0.0,0.0,0.0,0.0,0.0,0.0,0.0,0.0,0.0,0.0,0.0,0.0,0.0,0.0,0.0,0.0,-2.4705,-2.46,-2.5013,-2.4659,-2.4457,-2.477,-2.4788,-2.4813,-2.4863,-2.4876,-2.4933,-2.5008,-2.5008,-2.5209,-2.5674,-2.5686,0.0,0.0,0.0,-2.6499,-2.6499,-2.6499,-2.6361,-2.6201,-2.5758,-2.5206,-2.4479,-2.3655,-2.255,-2.1291,-2.0856,-2.0215,-1.9434,-1.9434,-1.9404,-1.9316,-1.8841,-1.8676,-1.8627,-1.8064,-1.7687,-1.7341,0.0,0.0,0.0,0.0,0.0,0.0,0.0,0.0,0.0,-2.8835,-2.9655,-3.0646,-3.2086,-3.2401,-3.2455,-3.2284,-3.2002,-3.1693,0.0,0.0,-3.0858,-3.0634,-3.03,-3.006,-2.9908,-2.9611,-2.9364,-2.9152,-2.8897,-2.8605,-2.8275,-2.8054,-2.7905,-2.7765,-2.765,-2.76,-2.76,-2.76,-2.76,-2.76,-2.76,-2.7499,-2.735,-2.7284,-2.7104,-2.691,-2.6858,-2.6738,-2.6525,-2.6404,-2.6297,-2.6163,-2.5825,0.0,0.0,0.0,0.0,0.0,0.0,0.0,0.0,0.0,0.0,0.0,0.0,0.0,0.0,0.0,0.0,0.0,0.0,0.0,0.0,-2.5384,-2.5109,-2.5026,-2.5438,-2.538,-2.5204,-2.4825,-2.4788,-2.4983,-2.541,-2.5448,-2.5636,-2.6135,-2.6172,-2.6223,-2.6323,-2.6336,-2.6386,-2.6499,-2.6499,-2.6499,-2.6499,-2.6339,-2.6236,-2.6201,-2.5641,0.0,-2.4647,-2.3728,-2.2809,-2.1899,-2.1341,-2.0795,-2.0351,-2.0351,-2.0145,-1.9746,-1.9326,-1.916,-1.915,-1.9026,-1.8863,-1.8573,0.0,0.0,0.0,0.0,0.0,0.0,0.0,0.0,0.0,0.0,-2.9873,-3.0841,-3.2512,-3.2771,-3.2737,-3.2622,-3.2249,0.0,0.0,-3.1274,-3.1058,-3.0855,-3.0651,-3.0485,-3.0359,-3.0135,-2.9919,-2.9655,-2.9387,-2.902,-2.8558,-2.8323,-2.8054,-2.779,-2.765,-2.76,-2.76,-2.76,-2.76,-2.76,-2.76,-2.7549,-2.7514,-2.7514,-2.7412,-2.7284,-2.7284,-2.7181,-2.7037,-2.6985,-2.6855,-2.6712,-2.65,-2.6245,-2.5934,0.0,0.0,0.0,0.0,0.0,0.0,0.0,0.0,0.0,0.0,0.0,0.0,0.0,0.0,-2.5286,0.0,0.0,-2.5821,-2.5935,-2.5794,-2.5804,-2.6118,-2.616,-2.6026,-2.5707,-2.5636,-2.5749,-2.6034,-2.6059,-2.6185,-2.6474,-2.6499,-2.6499,-2.6499,-2.6499,-2.6499,-2.6499,-2.6499,-2.6499,-2.6499,-2.6305,-2.6131,-2.6027,-2.5347,-2.4755,-2.4263,-2.3287,-2.2478,-2.1769,-2.1282,-2.0896,-2.0605,-2.0605,-2.0478,-2.0215,-2.0048,-1.9668,-1.9287,-1.9287,-1.9251,-1.9114,0.0,0.0,0.0,0.0,0.0,0.0,0.0,0.0,0.0,0.0,-2.9879,-3.0909,-3.2523,-3.2905,-3.3013,0.0,0.0,0.0,0.0,-3.1428,-3.1215,-3.1015,-3.0952,-3.0851,-3.0733,-3.063,-3.0426,-3.0135,-2.9875,-2.9445,-2.8896,-2.8637,-2.8332,-2.7925,-2.7775,-2.77,-2.7675,-2.7675,-2.7675,-2.7675,-2.765,-2.765,-2.765,-2.7625,-2.76,-2.76,-2.76,-2.7524,-2.7437,-2.7437,-2.7299,-2.7093,-2.7081,-2.6803,-2.6457,-2.6299,-2.6084,0.0,0.0,0.0,0.0,0.0,0.0,0.0,0.0,0.0,-2.5405,-2.5614,-2.5761,-2.5939,-2.6201,-2.6214,-2.6276,-2.6583,-2.6595,-2.6618,-2.6684,-2.6679,-2.6658,-2.6521,-2.6499,-2.6499,-2.6499,-2.6499,-2.6499,-2.6499,-2.6499,-2.6499,-2.6499,-2.6499,-2.6499,-2.6499,-2.6499,-2.6499,-2.6499,-2.627,-2.6015,-2.5758,-2.4981,-2.4299,-2.3677,-2.2777,-2.1987,-2.1436,-2.1012,-2.0741,-2.0605,-2.0605,-2.0605,-2.0605,-2.0605,-2.0184,-1.9541,-1.9541,-1.9541,-1.9541,0.0,0.0,0.0,0.0,0.0,0.0,0.0,0.0,0.0,0.0,0.0,0.0,0.0,0.0,0.0,0.0,0.0,0.0,-3.18,-3.1485,-3.1215,-3.1015,-3.0952,-3.0892,-3.0892,-3.0871,-3.0773,-3.063,-3.0351,-3.0038,-2.9661,-2.9234,-2.8811,-2.8407,-2.822,-2.8063,-2.7955,-2.7955,-2.7955,-2.793,-2.7815,-2.779,-2.7765,-2.765,-2.76,-2.76,-2.76,-2.76,-2.7575,-2.7575,-2.7549,-2.7499,-2.7386,-2.7233,-2.7063,-2.6937,0.0,-2.6431,-2.6537,-2.6537,-2.6563,-2.6604,-2.6431,-2.6305,0.0,0.0,-2.608,-2.7037,-2.7022,-2.7048,-2.7721,-2.7703,-2.7519,-2.7385,-2.7278,-2.709,-2.6748,-2.6679,-2.6658,-2.6521,-2.6499,-2.6499,-2.6499,-2.6499,-2.6499,-2.6499,-2.6499,-2.6499,-2.6499,-2.6499,-2.6499,-2.6499,-2.6499,-2.6499,-2.6499,-2.6119,-2.5758,-2.5347,-2.4611,-2.3849,-2.3075,-2.244,-2.1807,-2.1205,-2.0809,-2.0605,-2.0605,-2.0605,-2.0605,-2.0605,-2.0605,-2.0546,-2.0458,-2.0458,-2.0458,-2.042,0.0,0.0,0.0,0.0,0.0,0.0,0.0,0.0,0.0,0.0,0.0,0.0,0.0,0.0,0.0,0.0,0.0,0.0,-3.1893,-3.1617,-3.137,-3.1131,-3.1092,-3.1072,-3.1072,-3.1072,-3.1012,-3.0875,-3.0654,-3.0347,-3.0022,-2.9544,-2.9159,-2.8842,-2.8503,-2.835,-2.8277,-2.825,-2.8226,-2.8226,-2.8177,-2.8088,-2.8039,-2.7974,-2.785,-2.77,-2.7625,-2.76,0.0,0.0,-2.76,-2.76,-2.7524,-2.7437,-2.7325,-2.7248,-2.7078,0.0,-2.6985,-2.7037,-2.7203,0.0,-2.7448,-2.7339,-2.7809,-2.7723,-2.7626,-2.7954,-2.8138,-2.8275,-2.8454,-2.843,-2.8287,0.0,-2.7855,-2.7616,-2.7134,-2.693,-2.6773,-2.6521,-2.6499,-2.6499,-2.6499,-2.6499,-2.6499,-2.6499,-2.6499,-2.6499,-2.6499,-2.6499,-2.6499,-2.6499,-2.6499,-2.6499,-2.6499,-2.6119,-2.5688,-2.5276,-2.4322,-2.3482,-2.2815,-2.1949,-2.131,-2.0848,-2.0683,-2.0605,-2.0605,-2.0605,-2.0605,-2.0605,-2.0605,-2.0605,-2.0605,-2.0605,-2.0605,-2.0605,0.0,0.0,0.0,0.0,0.0,0.0,0.0,0.0,0.0,0.0,0.0,0.0,0.0,0.0,0.0,0.0,0.0,0.0,0.0,-3.1711,-3.1483,-3.121,-3.119,-3.119,-3.119,-3.119,-3.1151,-3.1072,-3.0875,-3.0651,-3.038,-2.9957,-2.9633,-2.9325,-2.9005,-2.8842,-2.8772,-2.8724,-2.8668,-2.8645,-2.8573,-2.8453,-2.8268,-2.822,-2.8039,-2.779,-2.7675,-2.7625,0.0,0.0,-2.76,-2.76,-2.76,-2.7524,-2.7478,-2.7478,-2.7386,-2.7295,-2.7295,0.0,0.0,-2.8342,-2.8394,-2.8431,-2.8966,-2.9015,-2.8928,-2.8933,-2.9173,-2.9293,-2.9121,-2.898,-2.8835,-2.843,-2.8197,-2.7848,-2.7302,-2.7045,-2.6807,-2.6521,-2.6499,-2.6499,-2.6499,-2.6499,-2.6499,-2.6499,-2.6499,-2.6499,-2.6499,-2.6499,-2.6499,-2.6499,-2.6499,-2.6499,-2.6499,-2.6119,-2.5676,-2.5194,-2.4129,-2.3224,-2.2515,-2.1502,-2.0886,-2.0605,-2.0605,-2.0605,-2.0605,-2.0605,-2.0605,-2.0605,-2.0605,-2.0605,-2.0605,-2.0605,-2.0605,-2.0605,0.0,0.0,0.0,0.0,0.0,0.0,0.0,0.0,0.0,0.0,0.0,0.0,0.0,0.0,0.0,0.0,0.0,0.0,0.0,-3.1748,-3.1483,-3.121,-3.119,-3.119,-3.119,-3.119,-3.119,-3.119,-3.1055,-3.0955,-3.0871,-3.0609,-3.0284,-2.9984,-2.9815,-2.9655,-2.947,-2.947,-2.938,-2.9259,-2.899,-2.874,-2.8479,-2.8268,-2.8039,-2.779,-2.779,0.0,0.0,0.0,-2.76,-2.76,-2.76,-2.76,0.0,-2.76,-2.76,-2.76,-2.76,-2.8068,-2.8577,-2.8592,-2.8991,-2.9495,-2.9966,-2.9798,-2.971,-3.0168,-3.0146,-3.0007,-2.9808,-2.9498,-2.9121,-2.8683,-2.8151,-2.7623,-2.7079,-2.6841,-2.6658,-2.6521,-2.6499,-2.6499,0.0,-2.6499,-2.6499,-2.6499,-2.6499,-2.6499,-2.6499,-2.6499,-2.6499,-2.6499,-2.6499,-2.6499,-2.6499,-2.6119,-2.5606,-2.5004,-2.4057,-2.3075,-2.2063,-2.1069,-2.0605,-2.0605,-2.0605,-2.0605,-2.0605,-2.0605,-2.0605,-2.0605,-2.0605,-2.0605,-2.0605,-2.0605,-2.0605,-2.0605,0.0,0.0,0.0,0.0,0.0,0.0,0.0,0.0,0.0,0.0,0.0,0.0,0.0,0.0,0.0,0.0,0.0,0.0,0.0,-3.1912,-3.1637,-3.1274,-3.1274,-3.1252,-3.119,-3.119,-3.119,-3.119,-3.1072,-3.0995,-3.0955,-3.0733,-3.0568,-3.0447,-3.0225,-3.0081,-3.0032,-2.9892,-2.976,-2.9611,-2.9387,-2.909,-2.874,-2.8645,-2.8323,-2.793,0.0,0.0,0.0,-2.76,-2.76,-2.76,-2.76,-2.76,-2.76,-2.76,-2.76,-2.7705,-2.8128,-2.8427,-2.8801,-2.9654,-2.9933,-3.0164,-3.076,-3.0734,-3.0631,-3.0792,-3.0791,-3.0672,-3.0387,-3.0129,-2.9777,-2.9166,-2.8656,-2.8151,-2.759,-2.7167,-2.6841,-2.6658,-2.6555,0.0,0.0,0.0,0.0,-2.6499,-2.6499,-2.6499,-2.6499,-2.6499,-2.6499,-2.6499,-2.6499,-2.643,-2.6305,-2.5898,-2.5382,-2.4791,-2.3313,-2.2214,-2.1464,-2.0876,-2.0605,-2.0605,-2.0605,-2.0605,-2.0605,-2.0605,-2.0605,-2.0605,-2.0605,-2.0605,-2.0605,-2.0605,-2.0605,-2.0605,0.0,0.0,0.0,0.0,0.0,0.0,0.0,0.0,0.0,0.0,0.0,0.0,0.0,0.0,0.0,0.0,0.0,0.0,0.0,0.0,-3.1766,-3.1315,-3.1295,-3.1274,-3.119,-3.119,-3.119,-3.119,-3.1112,-3.1055,-3.1072,-3.0935,-3.0855,-3.0794,-3.0617,-3.0514,-3.0431,-3.0258,-3.0065,-2.9853,-2.9605,-2.9243,-2.8826,-2.8708,-2.8348,0.0,0.0,0.0,0.0,-2.76,-2.76,-2.76,-2.76,-2.76,-2.76,-2.76,-2.7764,-2.8064,-2.8472,-2.8936,-2.9475,-3.0298,-3.0617,-3.083,-3.1275,-3.1292,-3.1249,-3.1249,-3.1249,-3.1161,-3.0821,-3.0507,-3.0068,-2.9404,-2.8785,-2.8216,-2.7756,-2.7235,-2.6829,-2.6726,-2.6589,-2.6499,0.0,0.0,0.0,-2.6499,-2.6499,-2.6499,-2.6499,-2.643,-2.6396,-2.6396,-2.6245,-2.6107,-2.598,-2.5535,-2.4826,-2.3961,-2.2644,-2.1693,-2.1099,-2.077,-2.0605,-2.0605,-2.0605,-2.0605,-2.0605,-2.0605,-2.0605,-2.0605,-2.0605,-2.0605,-2.0605,-2.0605,-2.0605,-2.0605,0.0,0.0,0.0,0.0,0.0,0.0,0.0,0.0,0.0,0.0,0.0,0.0,0.0,0.0,0.0,0.0,0.0,0.0,0.0,0.0,0.0,-3.1334,-3.1315,-3.1274,-3.119,-3.119,-3.119,-3.119,-3.119,-3.119,-3.119,-3.119,-3.1131,-3.0995,-3.0995,-3.0895,-3.0692,-3.0568,-3.0295,-2.9951,-2.9605,-2.9175,-2.8677,-2.8468,0.0,0.0,0.0,0.0,0.0,-2.76,-2.76,-2.76,-2.76,-2.76,-2.76,-2.76,-2.8053,-2.8607,-2.8637,-2.9564,-3.0507,-3.0552,-3.1017,-3.1511,-3.1511,-3.1511,-3.1511,-3.1511,-3.1511,-3.1424,-3.1146,-3.0672,-3.0099,-2.9435,-2.8578,-2.7908,-2.7603,-2.7053,-2.6726,0.0,0.0,0.0,0.0,0.0,0.0,-2.6499,-2.6499,-2.6499,-2.6499,-2.6305,-2.6213,-2.6166,-2.5793,-2.5571,-2.5535,-2.4898,-2.3961,-2.2665,-2.2073,-2.1464,-2.0906,-2.0693,-2.0605,-2.0605,-2.0605,-2.0605,-2.0605,-2.0605,-2.0605,-2.0605,-2.0605,-2.0605,-2.0605,-2.0605,-2.0605,-2.0605,0.0,0.0,0.0,0.0,0.0,0.0,0.0,0.0,0.0,0.0,0.0,0.0,0.0,0.0,0.0,0.0,0.0,0.0,0.0,0.0,0.0,0.0,0.0,0.0,0.0,0.0,0.0,0.0,0.0,-3.119,-3.119,-3.119,-3.1131,-3.0995,-3.0995,-3.0895,-3.0692,-3.0452,-3.0177,-2.981,0.0,-2.8935,-2.8527,0.0,0.0,0.0,0.0,0.0,0.0,0.0,-2.76,-2.76,-2.76,-2.76,-2.76,-2.76,-2.8053,-2.8712,-2.9205,-2.9909,-3.0627,-3.1122,-3.1376,-3.1511,-3.1511,-3.1511,-3.1511,-3.1511,-3.1511,-3.1424,-3.1146,-3.0791,-3.0296,-2.962,-2.8926,0.0,-2.8,-2.7348,0.0,-2.6909,0.0,-2.6499,-2.6499,-2.6499,0.0,0.0,-2.6499,-2.6499,-2.6499,-2.6305,-2.6131,-2.598,-2.5571,-2.5158,-2.4707,-2.3706,-2.2879,-2.2252,-2.1655,-2.1205,-2.0906,-2.0693,-2.0605,-2.0605,-2.0605,-2.0605,-2.0605,-2.0605,-2.0605,-2.0605,-2.0605,-2.0605,-2.0605,-2.0605,-2.0605,-2.0605,0.0,0.0,0.0,0.0,0.0,0.0,0.0,0.0,0.0,0.0,0.0,0.0,0.0,0.0,0.0,0.0,0.0,0.0,0.0,0.0,0.0,0.0,0.0,0.0,0.0,0.0,0.0,0.0,0.0,0.0,0.0,-3.119,-3.1131,-3.0995,-3.0955,-3.0814,-3.0493,-3.0204,0.0,0.0,0.0,0.0,0.0,0.0,0.0,0.0,0.0,0.0,0.0,0.0,0.0,-2.76,-2.76,-2.76,-2.76,-2.76,-2.8289,-2.9116,-2.9517,-3.0253,-3.1017,-3.1406,-3.1511,-3.1511,-3.1511,-3.1511,-3.1467,-3.1409,-3.1409,-3.1292,-3.0821,-3.0477,-3.0007,0.0,0.0,0.0,-2.7815,-2.7248,-2.6875,0.0,-2.6658,0.0,-2.6499,-2.6499,-2.6499,-2.6499,-2.6499,-2.6499,-2.6499,-2.6236,-2.5945,-2.5653,-2.5111,-2.4407,-2.3511,-2.2718,-2.2101,-2.1693,-2.1282,-2.0974,-2.078,-2.0644,-2.0605,-2.0605,-2.0605,-2.0605,-2.0605,-2.0605,-2.0605,-2.0605,-2.0605,-2.0605,-2.0605,-2.0605,-2.0605,-2.0605,0.0,0.0,0.0,0.0,0.0,0.0,0.0,0.0,0.0,0.0,0.0,0.0,0.0,0.0,0.0,0.0,0.0,0.0,0.0,0.0,0.0,0.0,0.0,0.0,0.0,0.0,0.0,0.0,0.0,0.0,0.0,0.0,0.0,0.0,0.0,0.0,0.0,0.0,0.0,0.0,0.0,0.0,0.0,0.0,0.0,0.0,0.0,0.0,0.0,0.0,-2.76,-2.76,-2.76,-2.76,-2.76,-2.76,-2.8558,-2.9606,-2.9606,-3.0537,-3.1511,-3.1511,-3.1511,-3.1467,-3.1467,-3.1453,-3.138,-3.1263,-3.1205,-3.0984,-3.0342,-2.9962,-2.9467,-2.8683,0.0,-2.7689,-2.7335,-2.6964,-2.6679,-2.6679,-2.6589,-2.6499,-2.6499,-2.6499,-2.6499,-2.6499,-2.6499,-2.6465,-2.6499,-2.6119,-2.5653,-2.5135,-2.4394,-2.3446,-2.2327,-2.1883,-2.1512,-2.1177,-2.0984,-2.078,-2.0605,-2.0605,-2.0605,-2.0605,-2.0605,-2.0605,-2.0605,-2.0605,-2.0605,-2.0605,-2.0605,-2.0605,-2.0605,-2.0605,-2.0605,-2.0605,0.0,0.0,0.0,0.0,0.0,0.0,0.0,0.0,0.0,0.0,0.0,0.0,0.0,0.0,0.0,0.0,0.0,0.0,0.0,0.0,0.0,0.0,0.0,0.0,0.0,0.0,0.0,0.0,0.0,0.0,0.0,0.0,0.0,0.0,0.0,0.0,0.0,0.0,0.0,0.0,0.0,0.0,0.0,0.0,0.0,0.0,0.0,0.0,0.0,0.0,-2.76,-2.76,-2.76,-2.76,-2.76,-2.76,-2.8558,-2.9606,-2.9606,-3.0537,-3.1511,-3.1511,-3.1409,-3.1322,-3.1322,-3.1117,0.0,-3.0881,-3.0657,-3.0342,-2.9962,-2.9623,-2.9139,-2.8449,-2.8039,-2.7689,-2.7335,-2.6964,-2.6679,0.0,-2.6589,-2.6499,-2.6499,-2.6499,0.0,0.0,-2.6339,-2.6339,-2.6499,-2.6119,-2.5371,-2.4177,-2.3372,-2.2628,-2.1921,-2.1359,-2.1022,-2.0945,-2.0741,-2.0644,-2.0605,-2.0605,-2.0605,-2.0605,-2.0605,-2.0605,-2.0605,-2.0605,-2.0605,-2.0605,-2.0605,-2.0605,-2.0605,-2.0605,-2.0605,-2.0605,0.0,0.0,0.0,0.0,0.0,0.0,0.0,0.0,0.0,0.0,-2.7119,-2.754,0.0,0.0,0.0,0.0,0.0,0.0,0.0,0.0,0.0,0.0,0.0,0.0,0.0,0.0,-3.0952,-3.0952,0.0,0.0,0.0,-3.0535,-3.0389,0.0,0.0,0.0,0.0,0.0,0.0,0.0,0.0,0.0,0.0,0.0,0.0,0.0,0.0,0.0,0.0,0.0,-2.7448,-2.7423,-2.7549,-2.76,-2.76,-2.76,-2.8558,-2.9606,-2.9606,-3.0537,-3.1511,-3.1511,-3.1409,-3.1278,-3.1161,0.0,0.0,-3.0357,-3.0099,-2.9747,-2.9139,-2.8803,0.0,-2.7729,-2.741,-2.7154,-2.693,-2.6726,-2.6589,-2.6589,-2.6521,-2.6499,-2.6499,-2.6499,-2.6499,-2.6499,-2.6305,-2.6236,-2.6339,-2.5618,-2.4671,-2.3629,-2.2703,-2.1987,-2.1502,-2.1002,-2.0731,-2.0731,-2.0644,-2.0605,-2.0605,-2.0605,-2.0605,-2.0605,-2.0605,-2.0605,-2.0605,-2.0605,-2.0605,-2.0605,-2.0605,-2.0605,-2.0605,-2.0605,-2.0605,-2.0605,0.0,0.0,0.0,0.0,0.0,0.0,0.0,-2.6691,-2.6691,-2.6691,-2.6775,-2.699,-2.7357,-2.8111,0.0,0.0,0.0,0.0,0.0,0.0,0.0,0.0,0.0,0.0,0.0,0.0,0.0,-3.0589,-3.0426,0.0,0.0,0.0,0.0,0.0,-2.9095,0.0,0.0,0.0,0.0,0.0,0.0,0.0,0.0,0.0,0.0,0.0,0.0,0.0,0.0,0.0,-2.7155,-2.7089,-2.7306,-2.7433,-2.7524,-2.7524,-2.8439,-2.9498,-2.9471,-3.0397,-3.1322,-3.1322,-3.1161,-3.097,-3.0777,-3.0463,0.0,-2.9623,-2.9373,-2.898,-2.8254,-2.7973,-2.7643,0.0,-2.6816,-2.6658,-2.6521,-2.6499,-2.6499,0.0,-2.6465,0.0,-2.643,-2.6361,0.0,-2.6314,-2.6002,-2.5828,-2.5945,-2.4969,-2.4057,-2.3261,-2.2289,-2.1617,-2.1205,-2.0809,-2.0605,-2.0605,-2.0605,-2.0605,-2.0605,-2.0605,-2.0605,-2.0605,-2.0605,-2.0605,-2.0605,-2.0605,-2.0605,-2.0605,-2.0605,-2.0605,-2.0605,-2.0605,-2.0605,-2.0605,0.0,0.0,0.0,0.0,0.0,0.0,0.0,-2.6691,-2.6674,-2.6623,-2.6657,-2.6708,-2.6691,-2.7041,0.0,0.0,0.0,0.0,0.0,0.0,0.0,0.0,0.0,0.0,0.0,0.0,0.0,-3.0248,-2.9984,0.0,0.0,0.0,0.0,0.0,0.0,-2.7152,-2.7558,0.0,0.0,0.0,0.0,0.0,0.0,0.0,0.0,0.0,0.0,0.0,0.0,0.0,0.0,-2.6563,-2.659,-2.6893,-2.7233,-2.7233,0.0,0.0,-2.8988,-2.987,-3.0821,-3.0702,-3.0447,-3.016,-2.9962,0.0,-2.8885,-2.8675,-2.8254,-2.7875,-2.7623,-2.7469,-2.7222,-2.6782,0.0,-2.6658,-2.6521,-2.6499,-2.6499,-2.6499,0.0,0.0,-2.6236,-2.5898,-2.5676,-2.5676,-2.5004,-2.4707,-2.5087,-2.4539,-2.3861,-2.3038,-2.2214,-2.1617,-2.1205,-2.0809,-2.0605,-2.0605,-2.0605,-2.0605,-2.0605,-2.0605,-2.0605,-2.0605,-2.0605,-2.0605,-2.0605,-2.0605,-2.0605,-2.0605,-2.0605,-2.0605,-2.0605,-2.0605,-2.0605,-2.0605,0.0,0.0,0.0,0.0,0.0,0.0,0.0,-2.6657,-2.6606,-2.6487,-2.6435,-2.6348,-2.6259,-2.6313,-2.6604,0.0,0.0,0.0,0.0,0.0,0.0,0.0,0.0,0.0,0.0,0.0,-2.8319,-2.8319,-2.8066,0.0,0.0,0.0,0.0,0.0,0.0,-2.6465,-2.6658,0.0,0.0,0.0,0.0,0.0,0.0,0.0,0.0,0.0,0.0,0.0,-2.6204,0.0,0.0,0.0,-2.5837,-2.5987,0.0,0.0,-2.7554,-2.8539,-2.8497,-2.942,-3.0387,-3.0312,-3.0068,-2.9747,-2.9529,0.0,-2.8417,-2.8124,-2.7776,-2.739,-2.7087,-2.6952,-2.6863,-2.6624,0.0,0.0,-2.6499,-2.6499,-2.6499,-2.6499,-2.6339,0.0,0.0,0.0,-2.5241,-2.4802,-2.4335,-2.3948,-2.3644,-2.3398,-2.2964,-2.2289,-2.1731,-2.132,-2.1022,-2.0731,-2.0605,-2.0605,-2.0605,-2.0605,-2.0605,-2.0605,-2.0605,-2.0605,-2.0605,-2.0605,-2.0605,-2.0605,-2.0605,-2.0605,-2.0605,-2.0605,-2.0605,-2.0605,-2.0605,-2.0605,0.0,0.0,0.0,0.0,0.0,0.0,-2.6691,-2.664,-2.6537,-2.6365,-2.6207,-2.6045,-2.5846,-2.5752,-2.5828,-2.6137,0.0,0.0,0.0,0.0,0.0,0.0,0.0,0.0,0.0,0.0,0.0,-2.6891,-2.6658,-2.6432,0.0,0.0,-2.5918,-2.5623,0.0,0.0,0.0,0.0,0.0,0.0,0.0,0.0,0.0,0.0,0.0,0.0,0.0,0.0,0.0,0.0,0.0,0.0,0.0,0.0,0.0,0.0,-2.6933,-2.7894,-2.7764,-2.8679,-2.9591,-2.9498,-2.9279,-2.9012,0.0,0.0,-2.7829,-2.7543,-2.7268,-2.6964,-2.6692,-2.6658,-2.6624,0.0,0.0,-2.6499,-2.643,-2.6396,-2.6361,-2.6245,0.0,-2.5758,-2.55,-2.4945,-2.4335,-2.3644,-2.3398,-2.2964,-2.2289,-2.2214,-2.2035,-2.1731,-2.132,-2.1051,-2.0906,-2.0693,-2.0605,-2.0605,-2.0605,-2.0605,-2.0605,-2.0605,-2.0605,-2.0605,-2.0605,-2.0605,-2.0605,-2.0605,-2.0605,-2.0605,-2.0605,-2.0605,-2.0605,-2.0527,-2.0489,-2.0489,0.0,0.0,0.0,0.0,0.0,0.0,0.0,-2.664,-2.6503,-2.6241,-2.6026,-2.577,-2.5435,-2.5285,-2.5173,-2.5111,0.0,0.0,0.0,0.0,0.0,0.0,0.0,0.0,0.0,0.0,0.0,-2.6401,-2.6259,-2.587,-2.5212,-2.4925,-2.4467,-2.3812,0.0,0.0,0.0,0.0,0.0,0.0,0.0,0.0,0.0,0.0,0.0,0.0,0.0,0.0,0.0,0.0,0.0,0.0,0.0,0.0,0.0,0.0,-2.6254,-2.7134,-2.6818,-2.761,-2.8449,-2.8105,-2.7908,-2.7776,0.0,-2.7255,-2.6973,-2.6748,-2.6589,-2.6499,-2.6499,-2.6499,-2.6499,-2.6499,-2.6499,0.0,-2.6236,-2.6213,-2.6062,0.0,0.0,-2.4862,-2.4445,-2.3559,-2.2777,-2.2176,-2.1959,-2.1655,-2.1244,-2.1022,-2.1099,-2.1512,-2.1099,-2.0906,-2.0906,-2.0693,-2.0605,-2.0605,-2.0605,-2.0605,-2.0605,-2.0605,-2.0605,-2.0605,-2.0605,-2.0605,-2.0605,-2.0605,-2.0605,-2.0605,-2.0605,-2.0605,-2.0566,-2.0381,-2.0303,-2.0225,0.0,0.0,0.0,0.0,0.0,0.0,0.0,-2.6503,-2.626,-2.5919,-2.5551,-2.5224,-2.489,-2.4695,-2.4589,-2.4569,0.0,0.0,0.0,0.0,0.0,0.0,0.0,0.0,0.0,0.0,0.0,0.0,0.0,-2.3978,-2.3748,-2.3577,-2.3385,-2.3179,-2.3127,-2.3155,0.0,0.0,0.0,0.0,0.0,0.0,0.0,0.0,0.0,0.0,0.0,0.0,0.0,0.0,0.0,0.0,0.0,0.0,0.0,0.0,0.0,0.0,-2.6096,-2.6924,-2.7776,-2.7689,-2.7556,-2.7436,-2.7369,-2.7053,-2.6782,-2.6714,-2.6589,-2.6499,-2.6499,-2.6396,-2.6305,-2.6305,-2.6188,0.0,0.0,0.0,0.0,-2.5229,-2.4635,-2.3984,0.0,-2.2841,-2.2327,-2.1731,-2.1617,-2.1436,-2.1022,-2.0945,-2.0896,-2.0876,-2.076,-2.0693,-2.0693,-2.0644,-2.0605,-2.0605,-2.0605,-2.0605,-2.0605,-2.0605,-2.0605,-2.0605,-2.0605,-2.0605,-2.0605,-2.0605,-2.0605,-2.0605,-2.0605,-2.0527,-2.0381,-2.0108,-1.9863,-1.9587,0.0,0.0,0.0,0.0,0.0,0.0,0.0,-2.6329,-2.6046,-2.5645,-2.5246,-2.4855,-2.4528,-2.4302,-2.4193,-2.4193,0.0,0.0,0.0,0.0,0.0,0.0,0.0,0.0,0.0,0.0,0.0,0.0,0.0,0.0,0.0,0.0,-2.2754,-2.2754,-2.2663,0.0,0.0,0.0,0.0,0.0,0.0,0.0,-2.324,0.0,0.0,0.0,0.0,0.0,0.0,0.0,0.0,0.0,0.0,0.0,0.0,0.0,-2.3823,-2.493,0.0,-2.6028,-2.6884,-2.6803,-2.6816,0.0,0.0,-2.6705,-2.6499,-2.6499,-2.6314,-2.6176,-2.6176,-2.6002,-2.5875,-2.5875,-2.5688,-2.5488,0.0,0.0,0.0,-2.4179,-2.3545,0.0,-2.2187,-2.1959,-2.1655,-2.1195,-2.1156,-2.1041,-2.0819,-2.078,-2.0731,-2.0605,-2.0605,-2.0605,-2.0605,-2.0605,-2.0605,-2.0605,-2.0605,-2.0605,-2.0605,-2.0527,-2.0498,-2.0489,-2.0372,-2.0411,0.0,-2.0498,-2.0527,-2.0605,-2.0605,-2.0489,-2.0264,-1.9824,-1.942,-1.8975,0.0,0.0,0.0,0.0,0.0,0.0,0.0,0.0,0.0,0.0,-2.5009,-2.4634,-2.4302,-2.4073,-2.3982,0.0,0.0,0.0,0.0,0.0,0.0,0.0,0.0,0.0,0.0,0.0,0.0,-2.2649,-2.264,-2.2535,-2.242,0.0,0.0,-2.2397,-2.2194,0.0,0.0,0.0,0.0,0.0,0.0,0.0,0.0,0.0,0.0,0.0,0.0,0.0,0.0,0.0,0.0,0.0,0.0,0.0,0.0,0.0,0.0,0.0,0.0,-2.4893,-2.5758,-2.5606,-2.5828,-2.6131,-2.6131,-2.6131,0.0,-2.6131,-2.584,-2.5535,-2.5535,-2.5347,-2.5241,-2.5241,-2.5052,-2.4826,0.0,-2.4288,0.0,0.0,-2.2101,-2.1617,-2.1205,-2.1022,-2.0819,-2.0605,-2.0605,-2.0605,-2.0605,-2.0605,-2.0605,-2.0605,-2.0605,-2.0605,-2.0605,-2.0605,-2.0605,-2.0605,-2.0605,-2.0566,-2.0566,-2.0342,-2.0264,-2.0225,-1.9981,-1.9981,-2.0225,-2.0225,-2.0333,-2.0527,-2.0527,-2.0372,-2.0108,-1.946,-1.8935,-1.8416,0.0,0.0,0.0,0.0,0.0,0.0,0.0,0.0,0.0,0.0,0.0,-2.4302,-2.3952,-2.3782,0.0,0.0,0.0,0.0,0.0,0.0,0.0,0.0,0.0,0.0,0.0,0.0,0.0,-2.231,-2.1912,-2.1698,-2.1636,-2.1455,0.0,0.0,0.0,-2.0968,-2.0658,0.0,0.0,0.0,0.0,0.0,0.0,0.0,0.0,0.0,-2.1846,-2.1846,0.0,0.0,0.0,0.0,0.0,0.0,0.0,0.0,-2.1583,-2.1965,-2.2103,0.0,-2.5004,-2.5123,-2.5194,-2.5312,0.0,0.0,0.0,0.0,0.0,-2.5087,-2.4933,-2.4647,-2.4479,-2.4479,-2.4154,-2.3838,-2.3655,-2.3176,-2.2542,-2.1873,-2.1655,-2.1397,-2.1022,-2.0945,-2.0819,-2.0605,-2.0605,-2.0605,-2.0605,-2.0605,-2.0605,-2.0605,-2.0605,-2.0605,-2.0605,-2.0605,-2.0605,-2.0605,-2.045,-2.0381,-2.0342,-1.9951,-1.9764,-1.9754,-1.9548,-1.946,-1.9539,-1.9539,-1.9578,-1.9618,-1.9618,-1.9381,-1.9015,-1.8487,-1.7813,-1.7098,0.0,0.0,0.0,0.0,0.0,0.0,0.0,0.0,0.0,0.0,0.0,0.0,0.0,0.0,0.0,0.0,0.0,0.0,0.0,0.0,0.0,0.0,0.0,0.0,0.0,0.0,0.0,0.0,0.0,-2.0995,0.0,0.0,0.0,0.0,0.0,-1.9965,-1.9631,-1.9501,0.0,0.0,-1.9964,0.0,0.0,0.0,0.0,0.0,-2.0921,-2.1028,0.0,-2.0953,-2.0921,-2.089,0.0,0.0,0.0,0.0,-2.052,-2.085,-2.097,-2.2427,-2.3961,-2.4045,-2.436,-2.4659,-2.4767,0.0,0.0,0.0,0.0,-2.4045,-2.3925,-2.3607,-2.3386,-2.3386,-2.3102,-2.2815,-2.2515,-2.2101,-2.1693,-2.1282,-2.1156,-2.1002,-2.077,-2.078,-2.0731,-2.0605,-2.0605,-2.0605,-2.0605,-2.0605,-2.0605,-2.0605,-2.0489,-2.0489,-2.0605,-2.0605,-2.0566,-2.045,-2.0225,-2.002,-1.9824,-1.9271,-1.8944,-1.8865,-1.8576,-1.8527,-1.8687,-1.8687,-1.8816,-1.9024,-1.9024,-1.8776,-1.8327,-1.7876,-1.7155,-1.6353,0.0,0.0,0.0,0.0,0.0,0.0,0.0,0.0,0.0,0.0,0.0,0.0,0.0,0.0,0.0,0.0,0.0,0.0,0.0,0.0,0.0,0.0,0.0,0.0,0.0,0.0,0.0,0.0,0.0,0.0,0.0,0.0,-1.9786,0.0,-1.9345,-1.9016,-1.8721,-1.859,-1.8329,0.0,-1.8968,0.0,0.0,0.0,0.0,0.0,0.0,0.0,0.0,-2.0042,-1.9944,-1.9911,-1.9594,0.0,0.0,0.0,0.0,0.0,-2.02,-2.1408,-2.2606,-2.2793,-2.3398,-2.3888,-2.3925,0.0,0.0,0.0,0.0,-2.2852,-2.2815,-2.2515,-2.2252,-2.2252,-2.2101,-2.1845,-2.1474,-2.1244,-2.1099,-2.0867,-2.0693,-2.0605,-2.0605,-2.0605,-2.0605,-2.0605,-2.0605,-2.0605,-2.0605,-2.0605,-2.0605,-2.0566,-2.0342,-2.0303,-2.045,-2.0489,-2.0372,-2.0186,-1.9912,-1.9548,-1.9103,-1.8416,-1.8006,-1.7796,-1.7391,-1.7391,-1.7715,-1.7715,-1.7925,-1.8287,-1.8287,-1.8046,-1.7594,-1.7229,-1.6583,-1.5809,0.0,0.0,0.0,0.0,0.0,0.0,0.0,0.0,0.0,0.0,0.0,0.0,0.0,0.0,0.0,0.0,0.0,0.0,0.0,0.0,0.0,0.0,0.0,0.0,0.0,0.0,0.0,0.0,0.0,0.0,-1.9225,-1.9052,-1.8762,-1.8379,-1.8336,-1.7995,-1.7457,-1.7457,-1.7475,-1.7541,-1.7997,0.0,0.0,0.0,0.0,0.0,0.0,0.0,0.0,-1.9264,-1.9264,-1.9231,-1.9198,0.0,0.0,0.0,0.0,0.0,-1.9587,-2.0166,-2.088,-2.1958,-2.2327,-2.2467,-2.2628,-2.2692,0.0,0.0,0.0,0.0,0.0,-2.1807,-2.1655,-2.1655,-2.1474,-2.1244,-2.1022,-2.0984,-2.0858,-2.0654,-2.0605,-2.0605,-2.0605,-2.0605,-2.0605,-2.0605,-2.0605,-2.0605,-2.0605,-2.0605,-2.0527,-2.0342,-2.0108,-1.9902,-1.9754,-1.9912,-1.9912,-1.9715,-1.932,-1.8913,-1.8416,-1.7561,-1.7074,-1.6862,-1.646,-1.6337,-1.6378,-1.6378,-1.6419,-1.6501,-1.6501,-1.6337,-1.6015,-1.5809,-1.5352,-1.4859,0.0,0.0,0.0,0.0,0.0,0.0,0.0,0.0,0.0,0.0,0.0,0.0,0.0,0.0,0.0,0.0,0.0,0.0,0.0,0.0,0.0,0.0,0.0,0.0,0.0,0.0,0.0,0.0,0.0,-1.8617,-1.8509,-1.8127,-1.7744,-1.7401,-1.7307,-1.7151,-1.6902,-1.7016,-1.7103,-1.7118,0.0,0.0,0.0,0.0,0.0,0.0,0.0,0.0,0.0,0.0,-1.8674,-1.864,-1.8539,0.0,0.0,0.0,0.0,0.0,-1.9324,-1.9748,-2.0236,-2.1074,-2.153,-2.1807,-2.1883,-2.1911,0.0,0.0,0.0,0.0,0.0,0.0,-2.0992,-2.0992,-2.0925,-2.0848,-2.0741,-2.0731,-2.0693,-2.0605,-2.0605,-2.0605,-2.0605,-2.0605,-2.0605,-2.0605,-2.0605,-2.0605,-2.0605,-2.0489,-2.0342,-2.0098,-1.9666,-1.9231,-1.8904,-1.8785,-1.8865,-1.9112,-1.8545,-1.7983,-1.7416,-1.6632,-1.6139,-1.5816,-1.5477,-1.5443,-1.5575,-1.5575,-1.5609,-1.5726,-1.5726,-1.5567,-1.5325,-1.4985,-1.4727,-1.4482,0.0,0.0,0.0,0.0,0.0,0.0,0.0,0.0,0.0,0.0,0.0,0.0,0.0,0.0,0.0,0.0,0.0,0.0,0.0,0.0,0.0,0.0,0.0,0.0,0.0,0.0,-1.8721,-1.8491,-1.8088,-1.7831,-1.7749,-1.7234,-1.6853,0.0,-1.6524,-1.6491,-1.6529,-1.6743,-1.689,-1.6991,0.0,0.0,0.0,0.0,0.0,0.0,0.0,0.0,0.0,0.0,0.0,0.0,0.0,0.0,0.0,-1.793,-1.8232,-1.8695,-1.917,-1.959,-2.0019,-2.0498,0.0,-2.1272,-2.1272,-2.1272,0.0,0.0,0.0,0.0,0.0,-2.0693,-2.0605,-2.0605,-2.0605,-2.0605,-2.0605,-2.0605,-2.0605,-2.0605,-2.0605,-2.0605,-2.0605,-2.0605,-2.0605,-2.0605,-2.0566,-2.0527,-2.0527,-2.0264,-1.999,-1.9706,-1.9073,-1.8505,-1.8014,-1.7538,-1.7651,-1.8296,-1.7691,-1.709,-1.6443,-1.5775,-1.5284,-1.4915,-1.4657,-1.4664,-1.488,-1.488,-1.4957,-1.511,-1.511,-1.4992,-1.4838,-1.4447,-1.4321,-1.4321,0.0,0.0,0.0,0.0,0.0,0.0,0.0,0.0,0.0,0.0,0.0,0.0,0.0,0.0,0.0,0.0,0.0,0.0,0.0,0.0,0.0,0.0,0.0,0.0,0.0,-1.8467,-1.8088,-1.7579,-1.7385,-1.7078,-1.6712,-1.6457,-1.6296,-1.6142,-1.6142,-1.6203,-1.6327,-1.6327,-1.673,-1.736,-1.7236,0.0,0.0,0.0,0.0,0.0,0.0,0.0,0.0,0.0,0.0,0.0,0.0,0.0,-1.7706,-1.7706,-1.8153,-1.8695,-1.917,-1.959,-2.0019,-2.0498,-2.0644,-2.0644,-2.0644,-2.0644,0.0,-2.0644,0.0,0.0,0.0,-2.0605,-2.0605,-2.0605,-2.0605,-2.0605,-2.0605,-2.0605,-2.0605,-2.0605,-2.0605,-2.0605,-2.0605,-2.0605,-2.0605,-2.0605,-2.042,-2.0303,-2.0303,-1.9872,-1.9478,-1.9082,-1.8416,-1.7764,-1.7115,-1.6525,-1.6525,-1.7115,-1.6722,-1.6229,-1.5733,-1.5068,-1.465,-1.444,-1.4243,-1.413,-1.4173,-1.4173,-1.4173,-1.4173,-1.4173,-1.4166,-1.4173,-1.4124,-1.413,-1.413,0.0,0.0,0.0,0.0,0.0,0.0,0.0,0.0,0.0,0.0,0.0,0.0,0.0,0.0,0.0,0.0,0.0,0.0,0.0,0.0,0.0,0.0,0.0,-1.7318,-1.7346,-1.7457,-1.7346,-1.706,-1.6712,-1.6343,-1.6038,-1.5961,0.0,0.0,-1.5959,-1.6068,-1.6012,-1.6578,-1.6792,-1.6845,-1.7077,-1.7095,0.0,0.0,0.0,0.0,0.0,0.0,0.0,0.0,-1.7348,-1.7373,0.0,-1.7417,-1.7588,-1.7672,-1.8346,-1.9072,-1.9238,-1.9795,-2.04,-2.0566,-2.0605,0.0,0.0,-2.0605,-2.0605,-2.0605,-2.0605,0.0,0.0,0.0,-2.0605,-2.0605,-2.0605,-2.0605,-2.0605,-2.0605,-2.0605,-2.0605,-2.0605,-2.0605,-2.0605,-2.0605,-2.0605,-2.0605,-2.0411,-2.0225,-2.0059,-1.9429,-1.8825,-1.8376,-1.748,-1.6755,-1.618,-1.5699,-1.5499,-1.556,-1.5575,-1.5409,-1.5068,-1.4692,-1.4405,-1.4201,-1.4124,-1.4088,-1.4088,-1.4088,-1.4088,-1.4088,-1.4088,-1.4088,-1.4088,-1.4088,-1.4088,-1.4088,0.0,0.0,0.0,0.0,0.0,0.0,0.0,0.0,0.0,0.0,0.0,0.0,0.0,0.0,0.0,0.0,0.0,0.0,0.0,0.0,0.0,0.0,0.0,-1.6524,-1.6371,-1.6475,-1.6503,-1.6524,-1.6085,-1.5797,-1.5604,0.0,0.0,0.0,0.0,0.0,0.0,-1.658,-1.6693,-1.6529,-1.6702,-1.6603,0.0,0.0,0.0,0.0,0.0,0.0,0.0,0.0,-1.6821,-1.689,0.0,0.0,0.0,-1.7464,-1.8249,-1.906,-1.9343,-1.9868,-2.0411,-2.0489,0.0,0.0,-2.0372,-2.0489,-2.0605,-2.0605,-2.0605,-2.0605,-2.0605,0.0,0.0,-2.0605,-2.0605,-2.0605,-2.0605,-2.0605,-2.0605,-2.0605,-2.0605,-2.0605,-2.0605,-2.0527,-2.0489,-2.0489,-2.0108,-1.9784,-1.9539,-1.8656,-1.7965,-1.7521,-1.6591,-1.585,-1.5401,-1.5033,-1.4748,-1.4489,-1.4713,-1.4706,-1.4608,-1.4405,-1.4243,-1.4088,-1.4088,-1.4088,-1.4088,-1.4088,-1.4088,-1.4088,-1.4088,-1.4088,-1.4088,-1.4088,-1.4088,-1.4088,0.0,0.0,0.0,0.0,0.0,0.0,0.0,0.0,0.0,0.0,0.0,0.0,0.0,0.0,0.0,0.0,0.0,0.0,0.0,0.0,0.0,0.0,0.0,-1.6028,-1.5902,-1.5555,-1.5555,-1.5902,-1.5555,-1.5381,-1.5381,-1.5381,0.0,0.0,0.0,0.0,0.0,0.0,-1.6362,-1.6533,-1.6009,-1.5798,-1.5683,0.0,0.0,0.0,0.0,0.0,0.0,0.0,-1.6017,-1.6237,0.0,0.0,0.0,-1.7,-1.7752,-1.8564,-1.9354,-1.9745,-1.9942,-2.0225,0.0,0.0,-1.9872,-2.0255,-2.0605,-2.0605,-2.0605,-2.0605,-2.0605,-2.0605,0.0,-2.0605,-2.0605,-2.0605,-2.0605,-2.0605,-2.0605,-2.0605,-2.0605,-2.0605,-2.0605,-2.0411,-2.0303,-2.0303,-1.9478,-1.8913,-1.8696,-1.7602,-1.6796,-1.6394,-1.5726,-1.5186,-1.4692,-1.4482,-1.4279,-1.4088,-1.4088,-1.4201,-1.4398,-1.4208,-1.4088,-1.4088,-1.4088,-1.4088,-1.4088,-1.4088,-1.4088,-1.4088,-1.4088,-1.4088,-1.4088,-1.4088,-1.4088,-1.4088,0.0,0.0,0.0,0.0,0.0,0.0,0.0,0.0,0.0,0.0,0.0,0.0,0.0,0.0,0.0,0.0,0.0,0.0,0.0,0.0,0.0,0.0,0.0,0.0,0.0,0.0,-1.4715,-1.5059,-1.4854,-1.4765,0.0,0.0,0.0,-1.5266,0.0,0.0,0.0,0.0,-1.5651,-1.5171,-1.5037,-1.4716,-1.4366,0.0,0.0,0.0,0.0,0.0,0.0,0.0,0.0,0.0,-1.5188,0.0,0.0,-1.6406,-1.723,-1.808,-1.8557,-1.9077,-1.946,-1.939,0.0,0.0,0.0,-1.9597,0.0,0.0,-2.0489,-2.0605,-2.0605,-2.0605,-2.0605,-2.0605,-2.0605,-2.0605,-2.0605,-2.0605,-2.0605,-2.0605,-2.0489,-2.0381,-2.0381,-2.0029,-1.9754,-1.9627,-1.8904,-1.8345,-1.8014,-1.696,-1.6221,-1.5899,-1.5103,-1.4643,-1.4482,-1.4279,-1.4166,-1.4088,-1.4088,-1.4124,-1.4208,-1.4124,-1.4088,-1.4088,-1.4088,-1.4088,-1.4088,-1.4088,-1.4088,-1.4088,-1.4088,-1.4088,-1.4088,-1.4088,-1.4088,-1.4088,0.0,0.0,0.0,0.0,0.0,0.0,0.0,0.0,0.0,0.0,0.0,0.0,0.0,0.0,0.0,0.0,0.0,0.0,0.0,0.0,0.0,0.0,0.0,0.0,0.0,-1.3941,-1.3692,0.0,0.0,0.0,0.0,0.0,0.0,-1.5056,0.0,-1.542,0.0,0.0,-1.4832,-1.425,-1.4114,-1.3861,-1.3542,0.0,0.0,0.0,0.0,0.0,0.0,0.0,0.0,0.0,-1.4374,0.0,0.0,-1.5733,-1.6413,-1.7156,-1.7965,-1.836,-1.8536,-1.8585,-1.8336,-1.8135,-1.8304,0.0,0.0,0.0,-2.045,-2.0605,-2.0605,-2.0605,-2.0605,-2.0605,-2.0527,-2.0489,-2.0489,-2.0333,-2.0216,-2.0216,-2.002,-1.9863,-1.9784,-1.935,-1.8984,-1.8807,-1.8006,-1.7408,-1.7082,-1.6098,-1.5436,-1.5193,-1.4615,-1.4279,-1.4279,-1.4166,-1.4088,-1.4088,-1.4088,-1.4088,-1.4088,-1.4088,-1.4088,-1.4088,-1.4088,-1.4088,-1.4088,-1.4088,-1.4088,-1.4088,-1.4088,-1.4088,-1.4088,-1.4088,-1.4088,-1.4088,0.0,0.0,0.0,0.0,0.0,0.0,0.0,0.0,0.0,0.0,0.0,0.0,0.0,0.0,0.0,0.0,0.0,0.0,0.0,0.0,0.0,0.0,0.0,0.0,0.0,0.0,0.0,0.0,0.0,0.0,0.0,0.0,-1.4595,-1.4959,0.0,-1.4805,-1.4502,-1.4302,-1.4013,-1.3651,-1.3295,-1.3119,-1.3083,-1.2709,0.0,0.0,0.0,0.0,0.0,0.0,0.0,0.0,-1.3492,-1.3608,-1.3961,-1.4981,-1.5459,-1.5981,-1.7409,-1.7553,-1.735,-1.7715,-1.7229,-1.678,-1.7237,-1.8567,-1.9824,-2.0186,0.0,-2.0605,-2.0605,-2.0605,-2.0566,-2.0566,-2.0372,-2.0225,-2.0225,-1.9833,-1.9527,-1.9527,-1.9311,-1.9103,-1.8913,-1.8456,-1.8086,-1.7876,-1.687,-1.6229,-1.6015,-1.5144,-1.4608,-1.4398,-1.4201,-1.4088,-1.4088,-1.4088,-1.4088,-1.4088,-1.4088,-1.4088,-1.4088,-1.4088,-1.4088,-1.4088,-1.4088,-1.4088,-1.4088,-1.4088,-1.4088,-1.4088,-1.4088,-1.4088,-1.4088,-1.4088,-1.4088,-1.4046,0.0,0.0,0.0,0.0,0.0,0.0,0.0,0.0,0.0,0.0,0.0,0.0,0.0,0.0,0.0,0.0,0.0,0.0,0.0,0.0,0.0,0.0,0.0,0.0,0.0,0.0,0.0,0.0,0.0,0.0,0.0,0.0,0.0,-1.3858,0.0,-1.3945,-1.3702,-1.3521,-1.3222,-1.2856,-1.2746,-1.2636,-1.2489,-1.2415,-1.2489,0.0,0.0,0.0,0.0,0.0,0.0,0.0,-1.3046,-1.332,-1.3742,-1.4302,-1.4862,-1.5458,-1.6024,-1.6304,0.0,-1.6221,-1.6188,-1.6327,-1.6771,-1.7651,-1.8647,-1.9557,-2.0216,-2.0605,-2.0605,-2.0459,-2.0342,-2.0342,-2.0029,-1.9715,-1.9548,-1.9271,-1.9082,-1.8904,-1.8536,-1.8238,-1.8207,-1.7513,-1.6952,-1.6755,-1.6057,-1.5526,-1.5333,-1.4776,-1.444,-1.4398,-1.4201,-1.4088,-1.4088,-1.4088,-1.4088,-1.4088,-1.4088,-1.4088,-1.4088,-1.4088,-1.4088,-1.4088,-1.4088,-1.4088,-1.4088,-1.4088,-1.4088,-1.4088,-1.4088,-1.4088,-1.4088,-1.4088,-1.3955,-1.3779,0.0,0.0,0.0,0.0,0.0,0.0,0.0,0.0,0.0,0.0,0.0,0.0,0.0,0.0,0.0,0.0,0.0,0.0,0.0,0.0,0.0,0.0,0.0,0.0,0.0,0.0,0.0,0.0,0.0,0.0,0.0,0.0,0.0,-1.3371,0.0,-1.3339,-1.3046,-1.2973,-1.2746,-1.2452,-1.2452,-1.2378,-1.2305,-1.2305,-1.2378,-1.2452,-1.2452,0.0,0.0,0.0,0.0,0.0,0.0,0.0,-1.3303,-1.3733,-1.4233,-1.4748,-1.5279,-1.5401,0.0,-1.5144,0.0,-1.5824,-1.6023,-1.6911,-1.7885,-1.8545,-1.9381,-1.9971,-1.9971,-1.9893,-1.9784,-1.9706,-1.9271,-1.8904,-1.8696,-1.8247,-1.7844,-1.7755,-1.735,-1.7025,-1.6903,-1.6419,-1.6008,-1.5782,-1.5235,-1.4901,-1.4783,-1.4447,-1.4243,-1.4243,-1.4166,-1.4088,-1.4088,-1.4088,-1.4088,-1.4088,-1.4088,-1.4046,-1.3913,-1.3913,-1.3913,-1.3913,-1.3701,-1.361,-1.3616,-1.3483,-1.344,-1.344,-1.344,-1.344,-1.344,-1.344,-1.3349,-1.3222,0.0,0.0,0.0,0.0,0.0,0.0,0.0,0.0,0.0,0.0,0.0,0.0,0.0,0.0,0.0,0.0,0.0,0.0,0.0,0.0,0.0,0.0,0.0,0.0,0.0,0.0,0.0,0.0,0.0,0.0,0.0,0.0,0.0,-1.3046,0.0,-1.2856,-1.2562,-1.2562,-1.2452,-1.2305,-1.2305,-1.2305,-1.2305,-1.2305,-1.2305,-1.2305,-1.2305,-1.2305,-1.2305,-1.2305,0.0,0.0,0.0,0.0,-1.2963,-1.337,-1.3756,-1.4131,-1.4768,-1.479,-1.4573,-1.4398,-1.4768,0.0,-1.5269,-1.6214,-1.7115,-1.7326,-1.8336,-1.9183,-1.9183,-1.9134,-1.9024,-1.8873,-1.8385,-1.7965,-1.7755,-1.7025,-1.6494,-1.6494,-1.6131,-1.5858,-1.5609,-1.5352,-1.5151,-1.4999,-1.4573,-1.4356,-1.4356,-1.4208,-1.4088,-1.4088,-1.4088,-1.4088,-1.4088,-1.4088,-1.4088,-1.4088,-1.4039,-1.387,-1.361,-1.3519,-1.3476,-1.3519,-1.3137,-1.2966,-1.2881,-1.2662,-1.2571,-1.2571,-1.2571,-1.2571,-1.2571,-1.2571,-1.2534,-1.2448,0.0,0.0,0.0,0.0,0.0,0.0,0.0,0.0,0.0,0.0,0.0,0.0,0.0,0.0,0.0,0.0,0.0,0.0,-1.4339,0.0,0.0,-1.1965,-1.1816,0.0,0.0,0.0,0.0,0.0,0.0,0.0,0.0,0.0,0.0,-1.2415,0.0,0.0,-1.2342,-1.2342,-1.2335,-1.2305,-1.2305,-1.2305,-1.2305,-1.2305,-1.2305,-1.2305,-1.2305,-1.2305,-1.2305,-1.2305,-1.2305,0.0,0.0,0.0,-1.3206,-1.3494,-1.3836,-1.4119,-1.4201,0.0,-1.4166,0.0,-1.4321,-1.4559,0.0,0.0,-1.5726,-1.5933,-1.748,-1.8776,-1.8776,-1.8447,-1.8158,-1.8118,-1.7432,-1.6821,-1.6632,-1.6139,-1.5767,-1.5594,-1.5367,-1.5208,-1.5166,-1.4776,-1.4517,-1.4482,-1.4286,-1.4124,-1.4124,-1.413,-1.4088,-1.4088,-1.4088,-1.4088,-1.4088,-1.4088,-1.4088,-1.4088,-1.387,-1.3568,-1.3185,-1.2747,-1.2662,-1.2833,-1.2577,-1.2363,-1.2143,-1.21,-1.21,-1.21,-1.21,-1.21,-1.21,-1.21,-1.1843,-1.1499,0.0,0.0,0.0,0.0,0.0,0.0,0.0,0.0,0.0,0.0,0.0,0.0,0.0,0.0,0.0,-1.4931,-1.4636,-1.41,-1.3307,-1.2664,-1.2103,-1.1664,-1.1671,-1.1565,0.0,0.0,0.0,0.0,0.0,0.0,0.0,-1.212,-1.2194,0.0,0.0,0.0,0.0,0.0,-1.2305,-1.2305,-1.2305,-1.2305,-1.2305,-1.2305,-1.2305,-1.2305,-1.2305,-1.2412,-1.2589,-1.2589,-1.2665,-1.2832,-1.2966,0.0,0.0,0.0,-1.3854,-1.4088,-1.4088,-1.4088,-1.4088,0.0,-1.4243,-1.4433,-1.4524,-1.4901,-1.5242,-1.5367,-1.618,-1.6944,-1.7188,-1.7066,-1.6903,-1.6747,-1.6296,-1.5884,-1.5699,-1.5276,-1.4936,-1.4852,-1.4657,-1.4545,-1.4545,-1.4334,-1.4243,-1.4243,-1.4166,-1.4088,-1.4088,-1.4088,-1.4088,-1.4088,-1.4088,-1.4088,-1.4088,-1.3955,-1.3737,-1.3525,-1.3264,-1.2833,-1.232,-1.1843,-1.18,-1.2106,-1.1499,-1.1068,-1.0809,-1.0539,-1.0448,-1.0448,-1.0448,-1.0448,-1.0448,-1.0448,-1.0318,-1.0106,0.0,0.0,0.0,0.0,0.0,0.0,0.0,0.0,0.0,0.0,0.0,0.0,0.0,0.0,0.0,0.0,-1.4031,-1.3432,-1.2484,-1.2228,-1.1956,-1.1567,-1.1621,-1.1606,-1.1433,0.0,0.0,0.0,0.0,0.0,-1.1855,-1.1855,-1.1966,0.0,-1.2187,0.0,0.0,0.0,0.0,0.0,0.0,-1.215,0.0,-1.2187,-1.2231,-1.2238,-1.2392,-1.2596,-1.2797,-1.2878,-1.3019,-1.3227,-1.33,-1.3427,0.0,0.0,0.0,-1.4088,0.0,0.0,-1.4088,-1.4088,-1.4201,-1.4321,0.0,0.0,-1.4838,-1.4838,-1.495,-1.5193,-1.5526,-1.5726,-1.5775,-1.5575,-1.5318,-1.511,-1.4957,-1.4573,-1.4321,-1.4321,-1.4208,-1.4088,-1.4088,-1.4088,-1.4088,-1.4088,-1.4088,-1.4088,-1.4088,-1.4088,-1.4088,-1.4088,-1.4046,-1.4004,-1.4004,-1.361,-1.3222,-1.2753,-1.2491,-1.1972,-1.1241,-1.0809,-1.0722,-1.0847,-1.0294,-0.9859,-0.955,-0.9196,-0.9061,-0.9061,-0.9061,-0.9061,-0.9061,-0.9061,-0.9017,-0.893,0.0,0.0,0.0,0.0,0.0,0.0,0.0,0.0,0.0,0.0,0.0,0.0,0.0,-1.4249,-1.4061,-1.3601,-1.342,-1.3011,-1.2275,-1.204,-1.1846,-1.1717,-1.1655,0.0,-1.1595,0.0,0.0,0.0,0.0,0.0,-1.1446,-1.1446,-1.1558,-1.1744,-1.1929,-1.2003,-1.2003,0.0,0.0,0.0,0.0,0.0,0.0,0.0,-1.2003,0.0,0.0,-1.2808,-1.2831,-1.3086,-1.32,-1.326,-1.3493,-1.3593,-1.366,0.0,0.0,0.0,0.0,-1.4088,0.0,-1.4088,-1.413,-1.413,0.0,0.0,-1.413,-1.413,-1.4166,-1.4173,-1.4215,-1.4713,-1.5131,-1.5124,-1.4741,-1.444,-1.444,-1.4243,-1.413,-1.413,-1.413,-1.4088,-1.4088,-1.4088,-1.4088,-1.4088,-1.4088,-1.4088,-1.4088,-1.4088,-1.4088,-1.4088,-1.3864,-1.3737,-1.3737,-1.3094,-1.24,-1.1757,-1.1499,-1.0895,-0.999,-0.9777,-0.9292,-0.8675,-0.9165,-0.9078,-0.8679,-0.8636,-0.8636,-0.8636,-0.8636,-0.8636,-0.8636,-0.8636,-0.846,-0.8241,0.0,0.0,0.0,0.0,0.0,0.0,0.0,0.0,0.0,0.0,0.0,0.0,0.0,-1.3549,-1.3349,-1.3192,-1.2916,-1.2467,-1.1854,-1.1813,-1.1668,-1.1288,-1.1371,-1.134,-1.1083,0.0,0.0,0.0,0.0,-1.0331,-1.0625,-1.0775,-1.0925,-1.1149,-1.1484,-1.1595,-1.1595,-1.1409,0.0,0.0,0.0,0.0,0.0,0.0,0.0,0.0,0.0,0.0,-1.2686,-1.2794,-1.2953,-1.316,0.0,0.0,0.0,0.0,0.0,0.0,0.0,0.0,0.0,-1.4088,-1.4088,-1.4088,-1.4088,-1.4088,-1.4088,-1.4088,-1.4088,-1.4088,-1.4088,-1.4299,-1.4468,-1.4468,-1.4334,-1.4201,-1.4201,-1.4166,-1.4088,-1.4088,-1.4088,-1.4088,-1.4088,-1.4088,-1.4088,-1.4088,-1.4088,-1.4088,-1.4088,-1.4088,-1.3997,-1.3864,-1.361,-1.3179,-1.24,-1.2015,-1.137,-1.0549,-1.0337,-0.9767,-0.8982,-0.8811,-0.8376,-0.7852,-0.8076,-0.8032,-0.7896,-0.7713,-0.7625,-0.7625,-0.7625,-0.7625,-0.7625,-0.7625,-0.758,-0.7492,0.0,0.0,0.0,0.0,0.0,0.0,0.0,0.0,0.0,0.0,0.0,0.0,0.0,0.0,-1.282,-1.2656,-1.2381,-1.1978,-1.1494,-1.1588,-1.1463,-1.0961,-1.0984,-1.085,-1.0519,0.0,0.0,0.0,0.0,0.0,0.0,-0.9911,-1.0099,-1.0282,-1.0432,-1.0657,0.0,0.0,0.0,-1.0714,0.0,0.0,-1.0941,0.0,0.0,0.0,0.0,0.0,0.0,-1.2409,-1.2602,0.0,0.0,0.0,0.0,0.0,0.0,0.0,-1.3701,0.0,0.0,0.0,-1.3955,-1.3997,-1.4088,-1.4088,-1.4088,-1.4088,-1.4088,-1.4088,-1.4088,-1.4088,-1.4088,-1.4088,-1.4088,-1.4088,-1.4088,-1.4088,-1.4088,-1.4088,-1.4088,-1.4088,-1.4088,-1.4088,-1.4088,-1.4088,-1.4088,-1.4046,-1.3955,-1.3955,-1.3743,-1.3264,-1.296,-1.232,-1.1241,-1.0895,-1.0289,-0.9419,-0.9205,-0.8811,-0.8153,-0.8025,-0.7764,-0.737,-0.737,-0.737,-0.7367,-0.7187,-0.7095,-0.7095,-0.7095,-0.7095,-0.7095,-0.7095,-0.7095,-0.7095,0.0,0.0,0.0,0.0,0.0,0.0,0.0,0.0,0.0,0.0,0.0,0.0,0.0,0.0,0.0,-1.1956,-1.1844,-1.1621,-1.1228,-1.1297,-1.1186,-1.0775,-1.0368,-1.0067,-0.9841,0.0,0.0,0.0,0.0,0.0,0.0,0.0,-0.9074,-0.9226,-0.8851,-0.9084,-0.9814,0.0,-0.9678,-0.9875,0.0,-1.0293,-1.0506,0.0,0.0,0.0,-1.1687,-1.1857,0.0,-1.1935,0.0,0.0,0.0,0.0,0.0,0.0,0.0,0.0,0.0,0.0,0.0,0.0,0.0,0.0,-1.4046,0.0,-1.4088,-1.4088,-1.4088,-1.4088,-1.4088,-1.4088,-1.4088,-1.4088,-1.4088,-1.4088,-1.4088,-1.4088,-1.4088,-1.4088,-1.4088,-1.4088,-1.4088,-1.4088,-1.4088,-1.4088,-1.4088,-1.3955,-1.3695,-1.3652,-1.3264,-1.2406,-1.1892,-1.1198,-1.025,-0.9777,-0.9205,-0.8456,-0.8285,-0.794,-0.7507,-0.7507,-0.7323,-0.7095,-0.7095,-0.7095,-0.7095,-0.7095,-0.7095,-0.7095,-0.7095,-0.7095,-0.7095,-0.7095,-0.7095,-0.7095,0.0,0.0,0.0,0.0,0.0,0.0,0.0,0.0,0.0,0.0,0.0,0.0,0.0,0.0,-1.2177,-1.2001,-1.1833,-1.1519,-1.0966,-1.0659,-1.0212,-0.9528,-0.9268,-0.8889,-0.8394,0.0,0.0,0.0,0.0,0.0,0.0,0.0,0.0,0.0,-0.794,-0.7936,-0.8138,-0.8686,0.0,-0.9271,-0.9412,-0.9509,0.0,0.0,0.0,0.0,0.0,-1.0754,-1.0512,0.0,-1.0679,-1.0636,0.0,0.0,0.0,0.0,0.0,0.0,-1.2186,0.0,0.0,0.0,0.0,0.0,-1.3737,-1.3822,-1.387,-1.4046,-1.4088,-1.4088,-1.4088,-1.4088,-1.4088,-1.4088,-1.4088,-1.4088,-1.4088,-1.4088,-1.4088,-1.4088,-1.4088,-1.4088,-1.4088,-1.3913,-1.3822,-1.3822,-1.3525,-1.3355,-1.3264,-1.2619,-1.1972,-1.1413,-1.0593,-0.9907,-0.9301,-0.8815,-0.8332,-0.7764,-0.7724,-0.7544,-0.7231,-0.7231,-0.7187,-0.7095,-0.7095,-0.7095,-0.7095,-0.7095,-0.7095,-0.7095,-0.7095,-0.7095,-0.7095,-0.7095,-0.7095,-0.7095,0.0,0.0,0.0,0.0,0.0,0.0,0.0,0.0,0.0,0.0,0.0,0.0,0.0,0.0,0.0,-1.1768,-1.1484,-1.1037,-1.0331,-0.9997,-0.9463,-0.8665,-0.8432,-0.8093,-0.7557,0.0,0.0,0.0,0.0,0.0,0.0,0.0,0.0,0.0,0.0,0.0,0.0,0.0,0.0,0.0,-0.8706,0.0,0.0,-0.9332,-0.9463,0.0,0.0,0.0,-0.9506,-0.9641,-0.9733,0.0,0.0,0.0,0.0,0.0,0.0,0.0,0.0,0.0,0.0,0.0,0.0,0.0,-1.3052,-1.3222,-1.3349,-1.3476,-1.3525,-1.3568,-1.3659,-1.3701,-1.3701,-1.3786,-1.3828,-1.387,-1.4088,-1.4088,-1.4088,-1.4088,-1.4088,-1.4046,-1.3955,-1.3737,-1.3476,-1.3307,-1.3009,-1.2662,-1.2363,-1.1456,-1.0809,-1.0424,-0.9598,-0.8903,-0.8424,-0.8072,-0.772,-0.7323,-0.7323,-0.7234,-0.7095,-0.7095,-0.7095,-0.7095,-0.7095,-0.7095,-0.7095,-0.7095,-0.7095,-0.7095,-0.7095,-0.7095,-0.7095,-0.7095,-0.7095,-0.7095,0.0,0.0,0.0,0.0,0.0,0.0,0.0,0.0,0.0,0.0,0.0,0.0,0.0,0.0,0.0,0.0,-1.0962,-1.0363,-0.9544,-0.9279,0.0,-0.7987,-0.7787,-0.748,-0.7107,0.0,0.0,0.0,0.0,0.0,0.0,0.0,0.0,0.0,0.0,0.0,0.0,0.0,0.0,-0.785,-0.806,-0.8324,0.0,0.0,-0.8803,-0.8803,-0.8803,-0.8763,-0.8763,-0.8732,-0.9038,0.0,0.0,0.0,0.0,0.0,-0.9104,0.0,0.0,0.0,0.0,0.0,-1.1327,0.0,-1.2149,-1.2406,-1.2577,-1.2619,-1.2619,-1.2705,-1.2924,-1.3009,-1.3094,-1.3264,-1.3307,-1.344,-1.3913,-1.3997,-1.3962,-1.3955,-1.3955,-1.387,-1.361,-1.3392,-1.3052,-1.2619,-1.2314,-1.18,-1.1063,-1.0202,-0.9641,-0.9471,-0.8767,-0.8197,-0.7764,-0.7547,-0.7323,-0.7095,-0.7095,-0.7095,-0.7095,-0.7095,-0.7095,-0.7095,-0.7095,-0.7095,-0.7095,-0.7095,-0.7095,-0.7095,-0.7095,-0.7095,-0.7095,-0.7095,-0.7095,-0.7095,0.0,0.0,0.0,0.0,0.0,0.0,0.0,0.0,0.0,0.0,0.0,0.0,0.0,0.0,0.0,0.0,0.0,-0.9728,-0.8932,-0.8394,-0.7825,-0.7173,-0.6942,-0.6718,-0.6493,0.0,0.0,0.0,0.0,0.0,0.0,0.0,0.0,0.0,0.0,0.0,0.0,0.0,0.0,-0.7318,-0.776,-0.8002,-0.8028,-0.8072,-0.8116,-0.8116,-0.8116,-0.794,-0.7764,-0.7768,-0.7988,-0.8248,0.0,0.0,0.0,-0.8372,0.0,0.0,0.0,0.0,0.0,0.0,-1.0077,0.0,-1.1327,-1.1542,-1.1671,-1.2057,-1.2143,-1.2143,-1.2186,-1.2406,-1.2534,-1.2577,-1.2619,-1.2747,-1.3228,-1.3313,-1.3222,-1.3009,-1.296,-1.296,-1.2918,-1.2528,-1.2186,-1.1886,-1.0982,-1.0072,-0.9414,-0.8978,-0.8675,-0.8464,-0.7984,-0.7635,-0.7547,-0.7323,-0.7143,-0.7095,-0.7095,-0.7095,-0.7095,-0.7095,-0.7095,-0.7095,-0.7095,-0.7095,-0.7095,-0.7095,-0.7095,-0.7095,-0.7095,-0.7095,-0.7095,-0.7095,-0.7095,-0.7095,0.0,0.0,0.0,0.0,0.0,0.0,0.0,0.0,0.0,0.0,0.0,0.0,0.0,0.0,0.0,0.0,0.0,0.0,0.0,0.0,-0.7375,-0.6874,-0.6831,-0.6715,-0.6521,-0.6481,0.0,0.0,0.0,0.0,0.0,0.0,0.0,0.0,0.0,0.0,0.0,0.0,-0.7031,-0.7139,-0.7408,0.0,-0.7496,-0.7496,-0.7496,-0.7496,-0.7496,-0.7499,-0.7507,-0.7507,-0.7683,0.0,-0.7724,-0.768,-0.768,0.0,-0.7669,-0.7713,0.0,0.0,0.0,-0.8767,-0.9074,0.0,0.0,-1.0193,-1.0323,-1.0577,-1.0577,-1.0669,-1.0895,-1.1068,-1.1241,-1.1456,-1.1499,-1.1499,-1.1499,-1.2106,-1.2491,-1.2363,-1.2357,-1.2272,-1.2015,-1.1714,-1.1241,-1.0554,-0.9598,-0.8899,-0.8588,-0.8201,-0.794,-0.7852,-0.7499,-0.7323,-0.7323,-0.7187,-0.7095,-0.7095,-0.7095,-0.7095,-0.7095,-0.7095,-0.7095,-0.7095,-0.7095,-0.7095,-0.7095,-0.7095,-0.7095,-0.7095,-0.7095,-0.7095,-0.7095,-0.7095,-0.7095,-0.7095,-1.29,0.0,0.0,0.0,0.0,0.0,0.0,0.0,0.0,0.0,0.0,0.0,0.0,0.0,0.0,0.0,0.0,0.0,0.0,0.0,-0.7159,-0.6808,-0.688,-0.6861,-0.6702,-0.6702,-0.6702,0.0,0.0,0.0,0.0,0.0,0.0,0.0,0.0,0.0,0.0,0.0,0.0,-0.7095,-0.7095,-0.7095,-0.7095,-0.7095,-0.7095,-0.7095,-0.7095,-0.7231,-0.7415,-0.7415,-0.7544,-0.772,-0.7503,-0.7415,0.0,0.0,0.0,0.0,0.0,0.0,0.0,0.0,-0.8201,-0.8372,0.0,0.0,0.0,-0.9061,-0.9104,-0.9192,-0.9593,-0.9685,-0.9811,-1.0197,-1.0289,-1.0154,-0.9767,-1.0631,-1.1365,-1.1451,-1.1445,-1.1322,-1.0933,-1.0674,-1.0115,-0.9082,-0.842,-0.8025,-0.7981,-0.7632,-0.7415,-0.7415,-0.7231,-0.7095,-0.7095,-0.7095,-0.7095,-0.7095,-0.7095,-0.7095,-0.7095,-0.7095,-0.7095,-0.7095,-0.7051,-0.7054,-0.7054,-0.6962,-0.6922,-0.6922,-0.7051,-0.7098,-0.7054,-0.7054,-0.6966,-0.6922,-1.2599,-1.2636,0.0,0.0,0.0,0.0,0.0,0.0,0.0,0.0,0.0,0.0,0.0,0.0,0.0,0.0,0.0,0.0,-0.7379,0.0,0.0,0.0,-0.6733,-0.674,-0.6702,-0.6702,-0.6702,0.0,0.0,0.0,0.0,0.0,0.0,0.0,-0.7007,0.0,0.0,0.0,-0.7095,0.0,-0.7095,-0.7095,-0.7095,-0.7095,-0.7095,-0.7095,-0.7095,-0.7139,-0.7143,-0.7143,-0.7183,-0.7183,0.0,-0.7143,-0.7143,-0.7095,0.0,0.0,0.0,0.0,0.0,-0.7503,-0.7591,-0.7724,-0.8157,0.0,-0.8372,-0.8636,0.0,-0.8675,-0.8723,0.0,0.0,-0.9065,-0.9109,-0.9065,-0.9021,-0.8982,-0.9109,-0.9492,-0.9536,-0.9492,-0.9449,-0.9065,-0.8544,-0.8025,-0.7724,-0.7459,-0.7228,-0.7183,-0.7143,-0.7143,-0.7095,-0.7095,-0.7095,-0.7095,-0.7095,-0.7095,-0.7095,-0.7095,-0.7095,-0.7095,-0.7095,-0.7095,-0.6925,-0.6836,-0.6792,-0.6393,-0.6216,-0.626,-0.6877,-0.701,-0.6836,-0.6836,-0.6571,-0.6216,-1.2449,-1.2342,0.0,0.0,0.0,0.0,0.0,0.0,0.0,0.0,0.0,0.0,0.0,0.0,-0.8178,0.0,-0.7578,-0.7245,-0.7146,0.0,0.0,0.0,-0.6912,-0.6913,-0.6913,-0.6913,-0.6913,0.0,-0.6913,0.0,0.0,0.0,0.0,0.0,-0.7068,0.0,-0.7095,0.0,-0.7095,-0.7095,-0.7095,-0.7095,-0.7095,-0.7095,-0.7095,-0.7095,-0.7095,-0.7095,-0.7095,-0.7095,-0.7095,-0.7095,-0.7095,0.0,0.0,-0.7095,0.0,0.0,0.0,0.0,-0.7139,-0.7231,-0.7279,-0.7323,-0.7536,-0.758,-0.758,-0.7713,0.0,0.0,0.0,0.0,0.0,0.0,-0.8328,-0.8245,-0.8113,-0.8028,-0.8201,-0.8763,-0.8851,-0.8803,-0.8632,-0.8201,-0.7852,-0.7635,-0.7411,-0.7231,-0.7095,-0.7095,-0.7095,-0.7095,-0.7095,-0.7095,-0.7095,-0.7095,-0.7095,-0.7095,-0.7095,-0.7095,-0.7095,-0.6966,-0.6925,-0.6925,-0.6571,-0.6393,-0.6349,-0.5905,-0.5683,-0.5727,-0.5811,-0.5988,-0.6166,-0.6038,-0.5861,-0.5683,-1.2592,0.0,0.0,0.0,0.0,0.0,0.0,0.0,0.0,0.0,0.0,0.0,-0.8587,-0.8012,-0.762,-0.7503,-0.7177,-0.6982,-0.7024,-0.6965,-0.6943,0.0,-0.7041,-0.7095,-0.7095,-0.7095,-0.7095,0.0,0.0,0.0,0.0,0.0,0.0,0.0,0.0,-0.7095,-0.7095,0.0,-0.7095,-0.7095,-0.7095,-0.7095,-0.7095,-0.7095,-0.7095,-0.7095,-0.7095,-0.7095,-0.7095,-0.7095,-0.7095,-0.7095,-0.7095,-0.7095,-0.7095,0.0,0.0,0.0,-0.7095,-0.7095,-0.7095,-0.7095,-0.7095,-0.7095,-0.7095,-0.7095,-0.7095,-0.7095,-0.7095,0.0,0.0,0.0,0.0,0.0,0.0,-0.7632,-0.7415,-0.737,-0.7588,-0.8109,-0.8197,-0.8109,-0.7933,-0.7588,-0.737,-0.737,-0.7231,-0.7095,-0.7095,-0.7095,-0.7095,-0.7095,-0.7095,-0.7095,-0.7095,-0.7095,-0.7051,-0.701,-0.701,-0.6966,-0.6833,-0.6659,-0.6571,-0.6479,-0.5991,-0.5769,-0.5677,-0.5057,-0.4746,-0.4699,-0.4338,-0.4427,-0.4783,-0.5013,-0.4924,-0.4699,-1.318,-1.2758,0.0,0.0,0.0,0.0,0.0,0.0,-0.8987,-0.8349,-0.8098,-0.7847,-0.7645,-0.727,-0.7087,-0.72,-0.7004,-0.6937,-0.7075,-0.7085,-0.7088,-0.7088,-0.7095,-0.7095,-0.7095,-0.7095,-0.7095,0.0,0.0,0.0,0.0,0.0,0.0,0.0,-0.7095,-0.7095,-0.7095,-0.7095,-0.7095,-0.7095,-0.7095,-0.7095,-0.7095,-0.7095,-0.7095,-0.7095,-0.7095,-0.7095,-0.7095,-0.7095,-0.7095,-0.7095,-0.7095,-0.7095,-0.7095,-0.7095,-0.7095,-0.7095,-0.7095,-0.7095,-0.7095,-0.7095,-0.7095,-0.7095,-0.7095,-0.7095,-0.7095,-0.7095,-0.7095,-0.7095,-0.7095,0.0,0.0,0.0,0.0,0.0,0.0,-0.7095,-0.7139,-0.7139,-0.7139,-0.7139,-0.7139,-0.7139,-0.7095,-0.7095,-0.7095,-0.7095,-0.7095,-0.7095,-0.7095,-0.7095,-0.7095,-0.7095,-0.7095,-0.7095,-0.701,-0.6795,-0.6795,-0.6571,-0.6127,-0.6127,-0.5991,-0.5719,-0.5233,-0.4919,-0.465,-0.3673,-0.3136,-0.2956,-0.2462,-0.2283,-0.2462,-0.3849,-0.3762,-0.3001,0.0,0.0,0.0,0.0,0.0,-1.0513,-0.9294,-0.8652,-0.8324,-0.8228,-0.7857,-0.7602,-0.7559,-0.7253,-0.7097,-0.7149,-0.7068,-0.7045,-0.7092,-0.7095,-0.7095,-0.7095,-0.7095,-0.7095,-0.7095,-0.7095,0.0,0.0,0.0,0.0,0.0,0.0,0.0,0.0,0.0,-0.7095,0.0,0.0,0.0,-0.7095,-0.7095,-0.7095,-0.7095,-0.7095,-0.7095,-0.7095,-0.7095,-0.7095,-0.7095,-0.7095,-0.7095,-0.7095,-0.7095,-0.7095,-0.7095,-0.7095,-0.7095,-0.7095,-0.7095,-0.7095,-0.7095,-0.7095,-0.7095,-0.7095,-0.7095,-0.7095,-0.7095,-0.7095,-0.7095,-0.7095,-0.7095,0.0,0.0,0.0,0.0,0.0,0.0,-0.7095,-0.7054,-0.6925,-0.701,-0.7095,-0.7095,-0.7095,-0.7095,-0.7095,-0.7095,-0.7095,-0.7095,-0.7095,-0.7095,-0.7095,-0.7095,-0.7095,-0.7095,-0.6966,-0.6789,-0.652,-0.621,-0.5902,-0.5638,-0.5146,-0.4877,-0.4743,-0.4074,-0.376,-0.3626,-0.2869,-0.2512,-0.2377,-0.1883,-0.1569,-0.1569,-0.2376,-0.2465,-0.2153,-1.3339,0.0,0.0,-1.2146,-1.1004,-0.9806,-0.8785,-0.8123,-0.7776,-0.779,-0.7544,-0.737,-0.737,-0.7187,-0.7095,-0.7095,-0.7095,-0.7095,-0.7095,-0.7095,-0.7095,-0.7095,-0.7095,-0.7095,-0.7095,-0.7095,0.0,0.0,0.0,-0.7095,0.0,0.0,0.0,0.0,0.0,-0.7095,-0.7095,-0.7095,-0.7095,-0.7095,-0.7095,-0.7095,-0.7095,-0.7095,-0.7095,-0.7095,-0.7095,-0.7095,-0.7095,-0.7095,-0.7095,-0.7095,-0.7095,-0.7095,-0.7095,-0.7095,-0.7095,-0.7095,-0.7095,-0.7095,-0.7095,-0.7095,-0.7095,-0.7095,-0.7095,-0.7095,-0.7095,-0.7095,-0.7095,-0.7095,-0.7095,0.0,0.0,0.0,0.0,0.0,0.0,-0.6833,-0.67,-0.6571,-0.6792,-0.6966,-0.6874,-0.683,-0.683,-0.683,-0.683,-0.683,-0.683,-0.6922,-0.701,-0.701,-0.7051,-0.7051,-0.701,-0.6789,-0.6435,-0.6033,-0.5586,-0.5097,-0.4612,-0.403,-0.3717,-0.3537,-0.2957,-0.2645,-0.251,-0.1929,-0.1615,-0.1525,-0.1077,-0.0808,-0.0763,-0.1346,-0.1436,-0.1256,-1.3398,-1.2796,-1.2192,-1.1886,-1.0381,-0.9038,-0.8288,-0.7768,-0.737,-0.7143,-0.7095,-0.7095,-0.7095,-0.7095,-0.7095,-0.7095,-0.7095,-0.7095,-0.7095,-0.7095,-0.7095,-0.7095,-0.7095,-0.7095,-0.7095,-0.7095,0.0,0.0,0.0,0.0,0.0,0.0,0.0,0.0,-0.7095,0.0,-0.7095,-0.7095,-0.7095,-0.7095,-0.7095,-0.7095,-0.7095,-0.7095,-0.7095,-0.7095,-0.7095,-0.7095,-0.7095,-0.7095,-0.7095,-0.7095,-0.7095,-0.7095,-0.7095,-0.7095,-0.7095,-0.7095,-0.7095,-0.7095,-0.7095,-0.7095,-0.7095,-0.7095,-0.7095,-0.7095,-0.7095,-0.7095,-0.7095,-0.7095,-0.7095,0.0,0.0,0.0,0.0,0.0,0.0,0.0,-0.6038,-0.5994,-0.6393,-0.6612,-0.6387,-0.6343,-0.6343,-0.6387,-0.6384,-0.6384,-0.6384,-0.6612,-0.6748,-0.6748,-0.6922,-0.6922,-0.6748,-0.6476,-0.5988,-0.5327,-0.483,-0.4117,-0.3136,-0.2911,-0.2552,-0.215,-0.1883,-0.1615,-0.1345,-0.0852,-0.0583,-0.0359,-0.009,0.0,-0.009,-0.0808,-0.0762,-0.0359,-1.2924,-1.1628,-1.0284,-0.954,-0.9021,-0.8548,-0.8072,-0.7544,-0.7187,-0.7095,-0.7095,-0.7095,-0.7095,-0.7095,-0.7095,-0.7095,-0.7095,-0.7095,-0.7095,-0.7095,-0.7095,-0.7095,-0.7095,-0.7095,-0.7095,-0.7095,-0.7095,-0.7095,0.0,0.0,-0.7095,0.0,0.0,0.0,0.0,-0.7095,-0.7095,-0.7095,-0.7095,-0.7095,-0.7095,-0.7095,-0.7095,-0.7095,-0.7095,-0.7095,-0.7095,-0.7095,-0.7095,-0.7095,-0.7095,-0.7095,-0.7095,-0.7095,-0.7095,-0.7095,-0.7095,-0.7095,-0.7095,-0.7095,-0.7095,-0.7095,-0.7095,-0.7095,-0.7095,-0.7095,-0.7095,-0.7095,-0.7095,-0.7095,-0.7095,-0.7095,0.0,0.0,0.0,0.0,0.0,0.0,-0.5371,-0.4835,-0.4877,-0.5188,-0.5808,-0.5725,-0.5725,-0.5852,-0.5897,-0.5897,-0.5897,-0.5941,-0.5988,-0.5988,-0.6033,-0.6033,-0.5988,-0.5586,-0.5099,-0.4567,-0.376,-0.3045,-0.2422,-0.1838,-0.1479,-0.1345,-0.1121,-0.0942,-0.0852,-0.0583,-0.0448,-0.0359,-0.009,0.0,-0.0045,-0.0225,-0.0225,-0.009,-1.2662,-1.0982,-0.9423,-0.8679,-0.8285,-0.7984,-0.7768,-0.7367,-0.7095,-0.7095,-0.7095,-0.7095,-0.7095,-0.7095,-0.7095,-0.7095,-0.7095,-0.7095,-0.7095,-0.7095,-0.7095,-0.7095,-0.7095,-0.7095,-0.7095,-0.7095,-0.7095,-0.7095,0.0,0.0,-0.7095,0.0,0.0,0.0,0.0,-0.6922,-0.6786,-0.6922,-0.6966,-0.6966,-0.7051,-0.7095,0.0,-0.7095,-0.7095,-0.7095,-0.7095,-0.7095,-0.7095,-0.7095,-0.7095,-0.7095,-0.7095,-0.7095,-0.7095,-0.7095,-0.7095,-0.7095,-0.7095,-0.7095,-0.7095,-0.7095,-0.7095,-0.7095,-0.7095,-0.7054,-0.6966,-0.6966,-0.6789,-0.67,-0.6786,-0.6745,0.0,0.0,0.0,0.0,0.0,0.0,-0.4253,-0.3762,-0.3405,-0.3492,-0.4247,-0.4563,-0.4788,-0.4917,-0.4919,-0.4919,-0.4919,-0.5008,-0.5099,-0.5099,-0.5275,-0.5275,-0.5099,-0.4696,-0.4162,-0.3492,-0.2777,-0.2107,-0.1525,-0.1031,-0.0718,-0.0628,-0.0449,-0.0404,-0.0404,-0.0269,-0.0224,-0.0224,-0.0045,0.0,0.0,0.0,0.0,0.0,-1.2186,-1.0511,-0.9038,-0.8548,-0.7896,-0.7459,-0.7459,-0.7234,-0.7095,-0.7095,-0.7095,-0.7095,-0.7095,-0.7095,-0.7095,-0.7095,-0.7095,-0.7095,-0.7095,-0.7095,-0.7095,-0.7095,-0.7095,-0.7095,-0.7095,-0.7095,-0.7095,0.0,0.0,0.0,0.0,0.0,0.0,0.0,0.0,0.0,0.0,-0.6656,-0.6748,-0.6836,-0.701,-0.7095,-0.7095,-0.7095,-0.7095,-0.7095,-0.7095,-0.7095,-0.7095,-0.7095,-0.7095,-0.7095,-0.7095,-0.7095,-0.7095,-0.7095,-0.7095,-0.7095,-0.7095,-0.7095,-0.7095,-0.7095,-0.7095,-0.7095,-0.7095,-0.6922,-0.6795,-0.6748,-0.6393,-0.608,-0.6254,-0.6124,-0.5994,0.0,0.0,0.0,-0.4561,-0.3671,-0.2957,-0.2688,-0.2107,0.0,-0.2239,-0.3133,-0.3715,-0.3758,-0.3714,-0.3714,-0.3714,-0.3894,-0.403,-0.403,-0.4429,-0.4429,-0.403,-0.376,-0.3179,-0.2329,-0.1883,-0.13,-0.0673,-0.0448,-0.0224,0.0,0.0,0.0,0.0,0.0,0.0,0.0,0.0,0.0,0.0,0.0,0.0,0.0,-1.0467,-0.9336,-0.8508,-0.7812,-0.7411,-0.7187,-0.7187,-0.7139,-0.7095,-0.7095,-0.7095,-0.7095,-0.7095,-0.7095,-0.7095,-0.7095,-0.7095,-0.7095,-0.7095,-0.7095,-0.7095,-0.7095,-0.7095,-0.7095,-0.7095,-0.7095,-0.701,-0.6836,0.0,0.0,0.0,0.0,0.0,0.0,0.0,0.0,-0.6171,-0.6387,-0.6612,-0.6836,-0.701,-0.7095,-0.7095,-0.7095,-0.7095,-0.7095,-0.7095,-0.7095,-0.7095,-0.7095,-0.7095,-0.7095,-0.7095,-0.7095,-0.7095,-0.7095,-0.7095,-0.7095,-0.7095,-0.7095,-0.7095,-0.7095,-0.7095,-0.7095,-0.7095,-0.6922,-0.6748,-0.652,-0.6077,-0.5722,-0.5594,-0.5549,-0.5413,-0.5008,-0.4699,-0.4208,-0.3314,-0.2734,-0.2153,-0.148,-0.13,-0.1166,-0.1031,-0.1928,-0.2645,-0.3045,-0.2865,-0.2731,-0.2731,-0.264,-0.2551,-0.2551,-0.264,-0.264,-0.2551,-0.2286,-0.1973,-0.1569,-0.1121,-0.0718,-0.0448,-0.018,-0.0045,0.0,0.0,0.0,0.0,0.0,0.0,0.0,0.0,0.0,0.0,0.0,0.0,0.0,-1.0033,-0.903,-0.8245,-0.7768,-0.7367,-0.7095,-0.7095,-0.7095,-0.7095,-0.7095,-0.7095,-0.7095,-0.7095,-0.7095,-0.7095,-0.7095,-0.7095,-0.7095,-0.7095,-0.7095,-0.7095,-0.7095,-0.7095,-0.7095,-0.7095,-0.7095,-0.701,-0.6795,-0.6659,0.0,0.0,0.0,0.0,0.0,0.0,-0.5324,0.0,-0.6035,-0.639,-0.6612,-0.6966,-0.7095,-0.7095,-0.7095,-0.7095,-0.7095,-0.7095,-0.7095,-0.7095,-0.7095,-0.7095,-0.7095,-0.7095,-0.7095,-0.7095,-0.7095,-0.7095,-0.7095,-0.7095,-0.701,-0.6922,-0.6922,-0.6745,-0.6567,-0.6567,-0.6213,-0.5811,-0.5583,-0.4917,-0.434,-0.4119,-0.4297,-0.434,-0.3983,-0.3715,-0.327,-0.2465,-0.1929,-0.1391,-0.0807,-0.0628,-0.0539,-0.0538,-0.0987,-0.148,-0.1927,-0.1837,-0.1792,-0.1792,-0.1703,-0.1613,-0.1613,-0.1748,-0.1748,-0.1613,-0.148,-0.1256,-0.0897,-0.0673,-0.0404,-0.018,-0.0045,0.0,0.0,0.0,0.0,0.0,0.0,0.0,0.0,0.0,0.0,0.0,0.0,0.0,0.0,-0.9816,-0.8855,-0.8069,-0.7856,-0.7408,-0.7095,-0.7095,-0.7095,-0.7095,-0.7095,-0.7095,-0.7095,-0.7095,-0.7095,-0.7095,-0.7095,-0.7095,-0.7095,-0.7095,-0.7095,-0.7095,-0.7095,-0.7095,-0.7095,-0.7095,-0.7095,-0.6966,-0.6659,-0.6387,-0.5897,0.0,0.0,0.0,0.0,-0.4478,-0.4746,-0.5144,-0.5813,-0.6257,-0.652,-0.6918,-0.7095,-0.7095,-0.7095,-0.7095,-0.7095,-0.7095,-0.7095,-0.7095,-0.7095,-0.7095,-0.7095,-0.7095,-0.7095,-0.7095,-0.7054,-0.7054,-0.7007,-0.6922,-0.6789,-0.6615,-0.6526,-0.6216,-0.5949,-0.5858,-0.5322,-0.4786,-0.4561,-0.3715,-0.2913,-0.2644,-0.2911,-0.3133,-0.2868,-0.2689,-0.2331,-0.166,-0.1211,-0.0807,-0.0359,-0.0135,-0.009,-0.0314,-0.0314,-0.0448,-0.0852,-0.0897,-0.0942,-0.0942,-0.0897,-0.0852,-0.0852,-0.1032,-0.1032,-0.0852,-0.0852,-0.0673,-0.0314,-0.0314,-0.0224,0.0,0.0,0.0,0.0,0.0,0.0,0.0,0.0,0.0,0.0,0.0,0.0,0.0,0.0,0.0,0.0,-0.9126,-0.838,-0.7764,-0.7595,-0.7279,-0.7095,-0.7095,-0.7095,-0.7095,-0.7095,-0.7095,-0.7095,-0.7095,-0.7095,-0.7095,-0.7095,-0.7095,-0.7095,-0.7095,-0.7095,-0.7095,-0.7095,-0.7095,-0.7095,-0.7095,-0.7095,-0.6789,-0.6171,-0.5899,-0.5095,-0.3801,0.0,0.0,-0.336,-0.3805,-0.4476,-0.5416,-0.5905,-0.6349,-0.6792,-0.701,-0.7095,-0.7095,-0.7095,-0.7095,-0.7095,-0.7095,-0.7095,-0.7095,-0.7095,-0.7095,-0.7095,-0.7095,-0.7095,-0.7051,-0.6881,-0.6836,-0.6748,-0.6305,-0.6171,-0.6083,-0.5638,-0.5505,-0.5416,-0.5144,-0.4699,-0.4297,-0.4028,-0.3092,-0.2154,-0.1614,-0.1794,-0.1883,-0.1614,-0.1569,-0.139,-0.0852,-0.0628,-0.0359,-0.009,0.0,0.0,-0.0045,-0.0045,-0.0045,-0.009,-0.0314,-0.0448,-0.0448,-0.0224,-0.009,-0.009,-0.0135,-0.0135,-0.009,-0.009,-0.009,-0.0045,-0.0045,-0.0045,0.0,0.0,0.0,0.0,0.0,0.0,0.0,0.0,0.0,0.0,0.0,0.0,0.0,0.0,0.0,0.0,-0.86,-0.8028,-0.7591,-0.7507,-0.7279,-0.7095,-0.7095,-0.7095,-0.7095,-0.7095,-0.7095,-0.7095,-0.7095,-0.7095,-0.7095,-0.7095,-0.7095,-0.7095,-0.7095,-0.7095,-0.7095,-0.7095,-0.7095,-0.7095,-0.7095,-0.7095,-0.683,-0.6299,-0.5769,-0.4921,-0.3758,-0.3269,-0.3092,-0.3227,-0.3851,-0.461,-0.546,-0.6035,-0.6479,-0.6836,-0.701,-0.7095,-0.7095,-0.7095,-0.7095,-0.7095,-0.7095,-0.7095,-0.7095,-0.7095,-0.7095,-0.7095,-0.7095,-0.701,-0.6881,-0.6612,-0.6346,-0.6077,-0.5772,-0.5369,-0.4968,-0.479,-0.4297,-0.3849,-0.376,-0.3269,-0.2734,-0.2464,-0.1792,-0.1211,-0.0852,-0.0987,-0.1121,-0.0987,-0.0987,-0.0852,-0.0583,-0.0448,-0.0314,-0.0045,0.0,0.0,0.0,0.0,0.0,0.0,-0.009,-0.018,-0.018,-0.0045,0.0,0.0,0.0,0.0,0.0,0.0,0.0,0.0,0.0,0.0,0.0,0.0,0.0,0.0,0.0,0.0,0.0,0.0,0.0,0.0,0.0,0.0,0.0,0.0,0.0,0.0,-0.816,-0.7676,-0.737,-0.737,-0.7231,-0.7095,-0.7095,-0.7095,-0.7095,-0.7095,-0.7095,-0.7095,-0.7095,-0.7095,-0.7095,-0.7095,-0.7095,-0.7095,-0.7095,-0.7095,-0.7095,-0.7095,-0.7095,-0.7051,-0.701,-0.701,-0.6697,-0.6121,-0.55,-0.4607,-0.3491,-0.2867,-0.2778,-0.3136,-0.403,-0.4877,-0.5638,-0.6257,-0.6656,-0.6881,-0.7054,-0.7095,-0.7095,-0.7095,-0.7095,-0.7095,-0.7095,-0.7095,-0.7095,-0.7095,-0.7095,-0.7095,-0.701,-0.6877,-0.6615,-0.621,-0.5764,-0.5319,-0.4879,-0.4342,-0.3851,-0.3628,-0.3047,-0.2555,-0.2465,-0.2017,-0.148,-0.1166,-0.0852,-0.0538,-0.0314,-0.0404,-0.0494,-0.0494,-0.0494,-0.0449,-0.0314,-0.0269,-0.0224,-0.0045,0.0,0.0,0.0,0.0,0.0,0.0,0.0,0.0,0.0,0.0,0.0,0.0,0.0,0.0,0.0,0.0,0.0,0.0,0.0,0.0,0.0,0.0,0.0,0.0,0.0,0.0,0.0,0.0,0.0,0.0,0.0,0.0,0.0,0.0,0.0,0.0,-0.7635,-0.7279,-0.7095,-0.7095,-0.7095,-0.7095,-0.7095,-0.7095,-0.7095,-0.7095,-0.7095,-0.7095,-0.7095,-0.7095,-0.7095,-0.7095,-0.7095,-0.7095,-0.7095,-0.7095,-0.7095,-0.7095,-0.7095,-0.701,-0.6795,-0.6795,-0.6349,-0.5416,-0.4919,-0.3935,-0.2508,-0.2017,-0.2196,-0.2956,-0.416,-0.523,-0.6127,-0.6615,-0.6925,-0.7095,-0.7095,-0.7095,-0.7095,-0.7095,-0.7095,-0.7095,-0.7095,-0.7095,-0.7095,-0.7095,-0.7095,-0.7051,-0.6881,-0.6612,-0.6254,-0.5594,-0.5099,-0.4516,-0.3494,-0.3092,-0.2732,-0.2018,-0.1839,-0.1749,-0.148,-0.1256,-0.0987,-0.0493,-0.0403,-0.0314,-0.0045,0.0,0.0,0.0,0.0,0.0,0.0,0.0,0.0,0.0,0.0,0.0,0.0,0.0,0.0,0.0,0.0,0.0,0.0,0.0,0.0,0.0,0.0,0.0,0.0,0.0,0.0,0.0,0.0,0.0,0.0,0.0,0.0,0.0,0.0,0.0,0.0,0.0,0.0,0.0,0.0,0.0,0.0,0.0,0.0,0.0045,-0.7363,-0.7143,-0.7095,-0.7095,-0.7095,-0.7095,-0.7095,-0.7095,-0.7095,-0.7095,-0.7095,-0.7095,-0.7095,-0.7095,-0.7095,-0.7095,-0.7095,-0.7095,-0.7095,-0.7095,-0.7095,-0.7095,-0.6966,-0.6789,-0.652,-0.621,-0.5766,-0.5144,-0.4338,-0.3267,-0.2017,-0.2199,-0.269,-0.3446,-0.4652,-0.5589,-0.6343,-0.6789,-0.7054,-0.7095,-0.7095,-0.7095,-0.7095,-0.7095,-0.7095,-0.7095,-0.7095,-0.7095,-0.7095,-0.7095,-0.701,-0.6836,-0.6438,-0.6124,-0.5808,-0.5142,-0.4249,-0.3314,-0.269,-0.2108,-0.1613,-0.139,-0.1076,-0.0807,-0.0718,-0.0539,-0.0314,-0.018,-0.0135,-0.009,0.0,0.0,0.0,0.0,0.0,0.0,0.0,0.0,0.0,0.0,0.0,0.0,0.0,0.0,0.0,0.0,0.0,0.0,0.0,0.0,0.0,0.0,0.0,0.0,0.0,0.0,0.0,0.0,0.0,0.0,0.0,0.0,0.0,0.0,0.0,0.0,0.0,0.0,0.0,0.0,0.0,0.0,0.0,0.0224,0.0269,0.0314,-0.7228,-0.7095,-0.7095,-0.7095,-0.7095,-0.7095,-0.7095,-0.7095,-0.7095,-0.7095,-0.7095,-0.7095,-0.7095,-0.7095,-0.7095,-0.7095,-0.7095,-0.7095,-0.7095,-0.7095,-0.7095,-0.7095,-0.6925,-0.6659,-0.6302,-0.5719,-0.5142,-0.4474,-0.3312,-0.2374,-0.166,-0.2242,-0.2911,-0.3667,-0.4919,-0.5855,-0.6432,-0.6918,-0.7095,-0.7095,-0.7095,-0.7095,-0.7095,-0.7095,-0.7095,-0.7095,-0.7095,-0.7095,-0.7095,-0.701,-0.6833,-0.6571,-0.5994,-0.5455,-0.4919,-0.4295,-0.3358,-0.2376,-0.1794,-0.1256,-0.0807,-0.0718,-0.0449,-0.0269,-0.0269,-0.0135,0.0,0.0,0.0,0.0,0.0,0.0,0.0,0.0,0.0,0.0,0.0,0.0,0.0,0.0,0.0,0.0,0.0,0.0,0.0,0.0,0.0,0.0,0.0,0.0,0.0,0.0,0.0,0.0,0.0,0.0,0.0,0.0,0.0,0.0,0.0,0.0,0.0,0.0,0.0,0.0,0.0,0.0,0.0,0.0,0.0,0.0045,0.018,0.0404,0.0676,0.0952,-0.7228,-0.7095,-0.7095,-0.7095,-0.7095,-0.7095,-0.7095,-0.7095,-0.7095,-0.7095,-0.7095,-0.7095,-0.7095,-0.7095,-0.7095,-0.7095,-0.7095,-0.7095,-0.7095,-0.7095,-0.7095,-0.7098,-0.6881,-0.6526,-0.6038,-0.5277,-0.4429,-0.3444,-0.2061,-0.1391,-0.1391,-0.2151,-0.2865,-0.3667,-0.505,-0.5941,-0.6432,-0.6918,-0.7095,-0.7095,-0.7095,-0.7095,-0.7095,-0.7095,-0.7095,-0.7095,-0.7098,-0.7098,-0.7054,-0.6836,-0.6567,-0.621,-0.5549,-0.461,-0.3715,-0.327,-0.2466,-0.1615,-0.0897,-0.0538,-0.0314,-0.0045,0.0,0.0,0.0,0.0,0.0,0.0,0.0,0.0,0.0,0.0,0.0,0.0,0.0,0.0,0.0,0.0,0.0,0.0,0.0,0.0,0.0,0.0,0.0,0.0,0.0,0.0,0.0,0.0,0.0,0.0,0.0,0.0,0.0,0.0,0.0,0.0,0.0,0.0,0.0,0.0,0.0,0.0,0.0,0.0,0.0,0.0,0.0,0.0045,0.0045,0.0225,0.0494,0.0719,0.1184,0.1808,-0.7183,-0.7095,-0.7095,-0.7095,-0.7095,-0.7095,-0.7095,-0.7095,-0.7095,-0.7095,-0.7095,-0.7095,-0.7095,-0.7095,-0.7095,-0.7095,-0.7095,-0.7095,-0.7095,-0.7095,-0.7054,-0.6881,-0.6482,-0.5947,-0.5277,-0.4389,-0.327,-0.1927,-0.1435,-0.1166,-0.1166,-0.1929,-0.2732,-0.3667,-0.4921,-0.5813,-0.6432,-0.6918,-0.7095,-0.7095,-0.7095,-0.7095,-0.7095,-0.7095,-0.7095,-0.7098,-0.6925,-0.6881,-0.6792,-0.6393,-0.5994,-0.5502,-0.479,-0.376,-0.282,-0.2688,-0.2016,-0.1166,-0.0628,-0.0269,-0.009,0.0,0.0,0.0,0.0,0.0,0.0,0.0,0.0,0.0,0.0,0.0,0.0,0.0,0.0,0.0,0.0,0.0,0.0,0.0,0.0,0.0,0.0,0.0,0.0,0.0,0.0,0.0,0.0,0.0,0.0,0.0,0.0,0.0,0.0,0.0,0.0,0.0,0.0,0.0,0.0,0.0,0.0,0.0,0.0,0.0,0.0,0.0,0.0135,0.0314,0.0314,0.0589,0.1056,0.147,0.2,0.2649,-0.7143,-0.7095,-0.7095,-0.7095,-0.7095,-0.7095,-0.7095,-0.7095,-0.7095,-0.7095,-0.7095,-0.7095,-0.7095,-0.7095,-0.7095,-0.7095,-0.7095,-0.7051,-0.6966,-0.6969,-0.6836,-0.6482,-0.6038,-0.5413,-0.4699,-0.3762,-0.2555,-0.1076,-0.0763,-0.0718,-0.0942,-0.166,-0.2599,-0.3667,-0.4877,-0.5769,-0.6432,-0.6918,-0.7095,-0.7095,-0.7095,-0.7095,-0.7095,-0.7095,-0.7054,-0.6922,-0.67,-0.6479,-0.6213,-0.5633,-0.5144,-0.4565,-0.376,-0.2867,-0.2107,-0.1792,-0.1255,-0.0718,-0.0314,-0.009,0.0,0.0,0.0,0.0,0.0,0.0,0.0,0.0,0.0,0.0,0.0,0.0,0.0,0.0,0.0,0.0,0.0,0.0,0.0,0.0,0.0,0.0,0.0,0.0,0.0,0.0,0.0,0.0,0.0,0.0,0.0,0.0,0.0,0.0,0.0,0.0,0.0,0.0,0.0,0.0,0.0,0.0,0.0,0.0,0.0135,0.018,0.018,0.0404,0.0587,0.0773,0.1001,0.1428,0.1969,0.2437,0.3179,0.4003,-0.7143,-0.7095,-0.7095,-0.7095,-0.7095,-0.7095,-0.7095,-0.7095,-0.7095,-0.7095,-0.7095,-0.7095,-0.7095,-0.7095,-0.7095,-0.7051,-0.7054,-0.6966,-0.6795,-0.6748,-0.6526,-0.5994,-0.5505,-0.4879,-0.4119,-0.309,-0.1927,-0.0673,-0.0225,-0.0225,-0.0718,-0.1436,-0.2419,-0.3667,-0.4832,-0.5725,-0.6432,-0.6918,-0.7095,-0.7095,-0.7095,-0.7095,-0.7095,-0.7095,-0.6966,-0.6748,-0.6432,-0.5985,-0.5497,-0.4739,-0.4115,-0.3535,-0.2642,-0.2016,-0.1525,-0.0852,-0.0493,-0.0269,-0.0045,0.0,0.0,0.0,0.0,0.0,0.0,0.0,0.0,0.0,0.0,0.0,0.0,0.0,0.0,0.0,0.0,0.0,0.0,0.0,0.0,0.0,0.0,0.0,0.0,0.0,0.0,0.0,0.0,0.0,0.0,0.0,0.0,0.0,0.0,0.0,0.0,0.0,0.0,0.0,0.0,0.0,0.0,0.0045,0.0045,0.009,0.0359,0.0539,0.0631,0.1036,0.1323,0.1533,0.1952,0.2492,0.3155,0.3583,0.4448,0.5459,-0.7095,-0.7095,-0.7095,-0.7095,-0.7095,-0.7095,-0.7095,-0.7095,-0.7095,-0.7095,-0.7095,-0.7095,-0.7095,-0.7095,-0.7054,-0.6881,-0.6836,-0.6836,-0.6795,-0.6567,-0.6169,-0.5549,-0.4835,-0.403,-0.3135,-0.1748,-0.0852,-0.0448,-0.0135,-0.0225,-0.0718,-0.1211,-0.224,-0.3623,-0.4607,-0.5544,-0.6432,-0.6918,-0.7095,-0.7095,-0.7095,-0.7095,-0.7095,-0.7095,-0.6966,-0.6704,-0.6033,-0.5497,-0.4919,-0.3807,-0.3135,-0.2597,-0.1792,-0.1256,-0.0807,-0.0538,-0.0269,-0.0045,0.0,0.0,0.0,0.0,0.0,0.0,0.0,0.0,0.0,0.0,0.0,0.0,0.0,0.0,0.0,0.0,0.0,0.0,0.0,0.0,0.0,0.0,0.0,0.0,0.0,0.0,0.0,0.0,0.0,0.0,0.0,0.0,0.0,0.0,0.0,0.0,0.0,0.0,0.0,0.0,0.0,0.0,0.0,0.0224,0.0359,0.0359,0.0807,0.1133,0.1428,0.1658,0.2236,0.2887,0.2983,0.3593,0.4534,0.4827,0.5475,0.631,-0.7095,-0.7095,-0.7095,-0.7095,-0.7095,-0.7095,-0.7095,-0.7095,-0.7095,-0.7095,-0.7095,-0.7095,-0.7095,-0.701,-0.6836,-0.6612,-0.6346,-0.608,-0.5858,-0.5858,-0.55,-0.461,-0.3941,-0.3045,-0.1972,-0.1031,-0.0493,-0.0403,-0.0135,-0.0225,-0.0718,-0.1166,-0.2107,-0.3448,-0.4385,-0.5364,-0.6257,-0.6745,-0.701,-0.7095,-0.7095,-0.7054,-0.6922,-0.6922,-0.6571,-0.5949,-0.5364,-0.4605,-0.3715,-0.2778,-0.2152,-0.1658,-0.1031,-0.0718,-0.0493,-0.0269,-0.009,0.0,0.0,0.0,0.0,0.0,0.0,0.0,0.0,0.0,0.0,0.0,0.0,0.0,0.0,0.0,0.0,0.0,0.0,0.0,0.0,0.0,0.0,0.0,0.0,0.0,0.0,0.0,0.0,0.0,0.0,0.0,0.0,0.0,0.0,0.0,0.0,0.0,0.0,0.0,0.0,0.0,0.0,0.0,0.0,0.0269,0.0496,0.0638,0.1412,0.1937,0.2303,0.3099,0.3656,0.4105,0.449,0.5079,0.5711,0.5963,0.6492,0.7092,-0.7095,-0.7095,-0.7105,-0.7142,-0.7149,-0.7162,-0.7196,-0.7203,-0.7203,-0.7203,-0.7203,-0.72,-0.711,-0.6934,-0.6652,-0.621,-0.576,-0.5213,-0.461,-0.4654,-0.4431,-0.376,-0.2911,-0.2016,-0.0942,-0.0538,-0.0314,-0.0314,-0.009,-0.0225,-0.0718,-0.1121,-0.1973,-0.3181,-0.4117,-0.5008,-0.5858,-0.6346,-0.6612,-0.6786,-0.6786,-0.67,-0.6526,-0.6482,-0.5949,-0.5191,-0.465,-0.3714,-0.2643,-0.1884,-0.1345,-0.0852,-0.0448,-0.0314,-0.0269,-0.0045,0.0,0.0,0.0,0.0,0.0,0.0,0.0,0.0,0.0,0.0,0.0,0.0,0.0,0.0,0.0,0.0,0.0,0.0,0.0,0.0,0.0,0.0,0.0,0.0,0.0,0.0,0.0,0.0,0.0,0.0,0.0,0.0,0.0,0.0,0.0,0.0,0.0,0.0,0.0,0.0,0.0,0.0,0.0045,0.0091,0.0091,0.0545,0.0918,0.1211,0.228,0.3011,0.3451,0.4548,0.5083,0.5321,0.5912,0.6358,0.6689,0.6892,0.7294,0.7696,-0.7095,-0.7095,-0.7139,-0.7329,-0.7398,-0.7404,-0.7546,-0.7567,-0.7567,-0.7567,-0.7567,-0.747,-0.7229,-0.6951,-0.6479,-0.5619,-0.5151,-0.4431,-0.3409,-0.2956,-0.2867,-0.3226,-0.1973,-0.0986,-0.0448,-0.018,-0.0045,-0.0045,0.0,-0.0225,-0.0718,-0.0987,-0.1748,-0.2957,-0.3669,-0.4385,-0.5099,-0.5586,-0.5808,-0.5808,-0.5808,-0.5808,-0.5766,-0.5591,-0.5188,-0.465,-0.3935,-0.3087,-0.215,-0.139,-0.0852,-0.0404,-0.0135,-0.0045,-0.0045,0.0,0.0,0.0,0.0,0.0,0.0,0.0,0.0,0.0,0.0,0.0,0.0,0.0,0.0,0.0,0.0,0.0,0.0,0.0,0.0,0.0,0.0,0.0,0.0,0.0,0.0,0.0,0.0,0.0,0.0,0.0,0.0,0.0,0.0,0.0,0.0,0.0,0.0,0.0,0.0,0.0,0.0,0.0,0.0275,0.0369,0.0416,0.1412,0.2042,0.2375,0.361,0.4466,0.5083,0.5616,0.6124,0.6681,0.6728,0.7036,0.7497,0.7547,0.7743,0.7992,-0.7285,-0.736,-0.7444,-0.7502,-0.7512,-0.7533,-0.759,-0.76,-0.76,-0.76,-0.76,-0.7503,-0.7214,-0.6649,-0.597,-0.5218,-0.4229,-0.3361,-0.2607,-0.1987,-0.1658,-0.1658,-0.1031,-0.0494,-0.018,-0.0045,0.0,0.0,0.0,-0.018,-0.0538,-0.0762,-0.1345,-0.2241,-0.2777,-0.3491,-0.434,-0.4696,-0.501,-0.5275,-0.5275,-0.5099,-0.4832,-0.4746,-0.4162,-0.3266,-0.2819,-0.2059,-0.121,-0.0807,-0.0449,-0.0135,-0.0045,0.0,0.0,0.0,0.0,0.0,0.0,0.0,0.0,0.0,0.0,0.0,0.0,0.0,0.0,0.0,0.0,0.0,0.0,0.0,0.0,0.0,0.0,0.0,0.0,0.0,0.0,0.0,0.0,0.0,0.0,0.0,0.0,0.0,0.0,0.0,0.0,0.0,0.0,0.0,0.0182,0.0182,0.0,0.0182,0.0229,0.0275,0.07,0.099,0.1179,0.209,0.2733,0.3198,0.455,0.5336,0.578,0.6621,0.7099,0.7294,0.749,0.7693,0.7842,0.7842,0.7892,0.7988,-0.7444,-0.7529,-0.7614,-0.7658,-0.7665,-0.7682,-0.7729,-0.774,-0.774,-0.774,-0.7644,-0.7449,-0.711,-0.6288,-0.5408,-0.4514,-0.3368,-0.2436,-0.176,-0.1135,-0.0718,-0.0628,-0.0493,-0.0269,0.0,0.0,0.0,0.0,0.0,-0.0135,-0.0403,-0.0538,-0.0942,-0.1615,-0.1972,-0.2553,-0.3269,-0.3537,-0.3848,-0.4115,-0.4115,-0.3937,-0.3626,-0.3537,-0.2956,-0.2106,-0.1881,-0.1299,-0.0583,-0.0448,-0.0224,0.0,0.0,0.0,0.0,0.0,0.0,0.0,0.0,0.0,0.0,0.0,0.0,0.0,0.0,0.0,0.0,0.0,0.0,0.0,0.0,0.0,0.0,0.0,0.0,0.0,0.0,0.0,0.0,0.0,0.0,0.0,0.0,0.0,0.0,0.0,0.0,0.0,0.0,0.009,0.0136,0.0136,0.0462,0.0603,0.0504,0.0603,0.07,0.0794,0.143,0.1828,0.2116,0.3094,0.3806,0.4297,0.5576,0.6262,0.6542,0.7394,0.7746,0.7743,0.7942,0.7988,0.7988,0.7988,0.7988,0.7988,-0.76,-0.76,-0.7648,-0.7787,-0.7814,-0.7865,-0.7968,-0.7988,-0.7988,-0.7988,-0.7743,-0.7397,-0.6845,-0.5834,-0.4744,-0.3581,-0.2597,-0.164,-0.0742,-0.0273,-0.0135,-0.0403,-0.0403,-0.0269,0.0,0.0,0.0,0.0,0.0,-0.0135,-0.0403,-0.0403,-0.0628,-0.1121,-0.13,-0.1525,-0.1794,-0.206,-0.2193,-0.2193,-0.2193,-0.2193,-0.215,-0.1883,-0.1615,-0.1345,-0.1166,-0.0807,-0.0403,-0.0403,-0.0224,0.0,0.0,0.0,0.0,0.0,0.0,0.0,0.0,0.0,0.0,0.0,0.0,0.0,0.0,0.0,0.0,0.0,0.0,0.0,0.0,0.0,0.0,0.0,0.0,0.0,0.0,0.0,0.0,0.0,0.0,0.0,0.0,0.0,0.0,0.0,0.0,0.0,0.0,0.0275,0.0416,0.0416,0.0944,0.1335,0.1622,0.1335,0.1335,0.1622,0.2431,0.2941,0.3282,0.4589,0.5331,0.5684,0.6736,0.7341,0.7646,0.7892,0.7988,0.7988,0.7988,0.7988,0.7988,0.7988,0.7988,0.7988,-0.7746,-0.7834,-0.7874,-0.7914,-0.7921,-0.7938,-0.7982,-0.7988,-0.7988,-0.7988,-0.7743,-0.7344,-0.6589,-0.5584,-0.4422,-0.3102,-0.2027,-0.111,-0.0278,-0.0092,-0.0046,-0.0135,-0.0135,-0.009,0.0,0.0,0.0,0.0,0.0,-0.0045,-0.0135,-0.0135,-0.0314,-0.0628,-0.0673,-0.0942,-0.13,-0.139,-0.1524,-0.1658,-0.1658,-0.1569,-0.1434,-0.1345,-0.1076,-0.0673,-0.0628,-0.0404,-0.0135,-0.0135,-0.0045,0.0,0.0,0.0,0.0,0.0,0.0,0.0,0.0,0.0,0.0,0.0,0.0,0.0,0.0,0.0,0.0,0.0,0.0,0.0,0.0,0.0,0.0,0.0,0.0,0.0,0.0,0.0,0.0,0.0,0.0,0.0,0.0,0.0,0.0,0.0,0.0182,0.0275,0.0275,0.0701,0.104,0.1228,0.1926,0.2431,0.272,0.2479,0.2479,0.2721,0.3714,0.4344,0.464,0.5617,0.6187,0.6489,0.7194,0.7543,0.7646,0.7892,0.7988,0.7988,0.7988,0.7988,0.7988,0.7988,0.7988,0.7988,-0.7899,-0.7928,-0.7988,-0.7988,-0.7988,-0.7988,-0.7988,-0.7988,-0.7942,-0.7842,-0.7494,-0.6942,-0.6034,-0.488,-0.3677,-0.2421,-0.134,-0.0535,-0.0047,0.0,0.0,0.0,0.0,0.0,0.0,0.0,0.0,0.0,0.0,0.0,0.0,0.0,-0.009,-0.0224,-0.0224,-0.0404,-0.0673,-0.0673,-0.0718,-0.0853,-0.0853,-0.0763,-0.0673,-0.0673,-0.0494,-0.0224,-0.0224,-0.0135,0.0,0.0,0.0,0.0,0.0,0.0,0.0,0.0,0.0,0.0,0.0,0.0,0.0,0.0,0.0,0.0,0.0,0.0,0.0,0.0,0.0,0.0,0.0,0.0,0.0,0.0,0.0,0.0,0.0,0.0,0.0,0.0,0.0,0.0,0.0,0.0,0.0046,0.0138,0.0419,0.0655,0.0842,0.1479,0.1976,0.2217,0.3091,0.3714,0.4007,0.4159,0.4159,0.4007,0.4955,0.5584,0.5834,0.6537,0.6942,0.7144,0.7593,0.7743,0.7793,0.7942,0.7988,0.7988,0.7988,0.7988,0.7988,0.7988,0.7988,0.7988,-0.7988,-0.7988,-0.7988,-0.7988,-0.7988,-0.7988,-0.7988,-0.7992,-0.7892,-0.7593,-0.7095,-0.6339,-0.5229,-0.3976,-0.2722,-0.1664,-0.0596,0.0,0.0,0.0,0.0,0.0,0.0,0.0,0.0,0.0,0.0,0.0,0.0,0.0,0.0,0.0,0.0,0.0,0.0,0.0,0.0,0.0,0.0,0.0,0.0,0.0,0.0,0.0,0.0,0.0,0.0,0.0,0.0,0.0,0.0,0.0,0.0,0.0,0.0,0.0,0.0,0.0,0.0,0.0,0.0,0.0,0.0,0.0,0.0,0.0,0.0,0.0,0.0,0.0,0.0,0.0,0.0,0.0,0.0,0.0,0.0,0.0,0.0,0.0,0.0,0.0,0.0,0.0,0.014,0.0428,0.0764,0.1147,0.1674,0.2482,0.3095,0.3385,0.4392,0.5083,0.5329,0.6134,0.6134,0.5329,0.6134,0.6639,0.6895,0.7394,0.7646,0.7646,0.7892,0.7988,0.7988,0.7988,0.7988,0.7988,0.7988,0.7988,0.7988,0.7988,0.7988,0.7988,-0.7988,-0.7988,-0.7988,-0.7988,-0.7988,-0.7988,-0.7988,-0.7842,-0.7593,-0.7341,-0.6639,-0.5789,-0.468,-0.3577,-0.2472,-0.1363,-0.0503,0.0,0.0,0.0,0.0,0.0,0.0,0.0,0.0,0.0,0.0,0.0,0.0,0.0,0.0,0.0,0.0,0.0,0.0,0.0,0.0,0.0,0.0,0.0,0.0,0.0,0.0,0.0,0.0,0.0,0.0,0.0,0.0,0.0,0.0,0.0,0.0,0.0,0.0,0.0,0.0,0.0,0.0,0.0,0.0,0.0,0.0,0.0,0.0,0.0,0.0,0.0,0.0,0.0,0.0,0.0,0.0,0.0,0.0,0.0,0.0,0.0,0.0,0.0,0.0,0.0,0.0,0.0189,0.0522,0.1001,0.1449,0.1998,0.2535,0.3519,0.4253,0.4748,0.562,0.6187,0.6439,0.7045,0.7042,0.6439,0.7042,0.7394,0.7447,0.7743,0.7892,0.7942,0.7992,0.7988,0.7988,0.7988,0.7988,0.7988,0.7988,0.7988,0.7988,0.7988,0.7988,0.7988,-0.7988,-0.7988,-0.7988,-0.7988,-0.7988,-0.7988,-0.7988,-0.7793,-0.7394,-0.6886,-0.6137,-0.5133,-0.3778,-0.2773,-0.1817,-0.0707,-0.0253,0.0,0.0,0.0,0.0,0.0,0.0,0.0,0.0,0.0,0.0,0.0,0.0,0.0,0.0,0.0,0.0,0.0,0.0,0.0,0.0,0.0,0.0,0.0,0.0,0.0,0.0,0.0,0.0,0.0,0.0,0.0,0.0,0.0,0.0,0.0,0.0,0.0,0.0,0.0,0.0,0.0,0.0,0.0,0.0,0.0,0.0,0.0,0.0,0.0,0.0,0.0,0.0,0.0,0.0,0.0,0.0,0.0,0.0,0.0,0.0,0.0,0.0,0.0,0.0,0.0095,0.0338,0.0725,0.1261,0.191,0.247,0.3128,0.392,0.4706,0.5384,0.5934,0.6639,0.7042,0.7194,0.7593,0.7643,0.7391,0.7643,0.7793,0.7793,0.7942,0.7988,0.7988,0.7988,0.7988,0.7988,0.7988,0.7988,0.7988,0.7988,0.7988,0.7988,0.7988,0.7988,0.7988,-0.7988,-0.7988,-0.7988,-0.7988,-0.7988,-0.7988,-0.7942,-0.7643,-0.7141,-0.6287,-0.5432,-0.4329,-0.2825,-0.1917,-0.1009,-0.0101,0.0,0.0,0.0,0.0,0.0,0.0,0.0,0.0,0.0,0.0,0.0,0.0,0.0,0.0,0.0,0.0,0.0,0.0,0.0,0.0,0.0,0.0,0.0,0.0,0.0,0.0,0.0,0.0,0.0,0.0,0.0,0.0,0.0,0.0,0.0,0.0,0.0,0.0,0.0,0.0,0.0,0.0,0.0,0.0,0.0,0.0,0.0,0.0,0.0,0.0,0.0,0.0,0.0,0.0,0.0,0.0,0.0,0.0,0.0,0.0,0.0,0.0,0.0,0.0048,0.0144,0.0436,0.0936,0.1478,0.2182,0.3022,0.3577,0.4329,0.5329,0.5937,0.6442,0.6945,0.7394,0.7646,0.7646,0.7892,0.7988,0.7988,0.7988,0.7988,0.7988,0.7988,0.7988,0.7988,0.7988,0.7988,0.7988,0.7988,0.7988,0.7988,0.7988,0.7988,0.7988,0.7988,0.7988,0.7988,-0.7988,-0.7988,-0.7988,-0.7988,-0.7988,-0.7942,-0.7696,-0.7244,-0.6539,-0.5482,-0.4479,-0.3376,-0.2219,-0.1161,-0.0404,-0.0051,0.0,0.0,0.0,0.0,0.0,0.0,0.0,0.0,0.0,0.0,0.0,0.0,0.0,0.0,0.0,0.0,0.0,0.0,0.0,0.0,0.0,0.0,0.0,0.0,0.0,0.0,0.0,0.0,0.0,0.0,0.0,0.0,0.0,0.0,0.0,0.0,0.0,0.0,0.0,0.0,0.0,0.0,0.0,0.0,0.0,0.0,0.0,0.0,0.0,0.0,0.0,0.0,0.0,0.0,0.0,0.0,0.0,0.0,0.0,0.0,0.0,0.0,0.0096,0.0342,0.0744,0.1254,0.1809,0.2312,0.3066,0.4128,0.4678,0.5329,0.6184,0.6736,0.7191,0.7494,0.7793,0.7939,0.7939,0.7988,0.7988,0.7988,0.7988,0.7988,0.7988,0.7988,0.7988,0.7988,0.7988,0.7988,0.7988,0.7988,0.7988,0.7988,0.7988,0.7988,0.7988,0.7988,0.7988,0.7988,-0.7988,-0.7988,-0.7988,-0.7988,-0.7892,-0.7693,-0.7441,-0.6792,-0.5989,-0.488,-0.3828,-0.2724,-0.1666,-0.0707,-0.0152,0.0,0.0,0.0,0.0,0.0,0.0,0.0,0.0,0.0,0.0,0.0,0.0,0.0,0.0,0.0,0.0,0.0,0.0,0.0,0.0,0.0,0.0,0.0,0.0,0.0,0.0,0.0,0.0,0.0,0.0,0.0,0.0,0.0,0.0,0.0,0.0,0.0,0.0,0.0,0.0,0.0,0.0,0.0,0.0,0.0,0.0,0.0,0.0,0.0,0.0,0.0,0.0,0.0,0.0,0.0,0.0,0.0,0.0,0.0,0.0148,0.0246,0.0246,0.0493,0.084,0.1245,0.1757,0.2321,0.2822,0.3627,0.4481,0.5236,0.5787,0.6387,0.7042,0.7291,0.7543,0.7793,0.7942,0.7988,0.7988,0.7988,0.7988,0.7988,0.7988,0.7988,0.7988,0.7988,0.7988,0.7988,0.7988,0.7988,0.7988,0.7988,0.7988,0.7988,0.7988,0.7988,0.7988,0.7988,0.7988,0.7988]},{"header":{"parameterUnit":"m.s-1","parameterCategory":1,"la1":30.6,"la2":28.766,"lo1":-90.7593,"lo2":-88.6598,"dy":0.0162,"dx":0.0183,"nx":116,"ny":114,"refTime":"2023-09-13T12:00:00:Z","depth":0,"parameterNumber":3,"parameterNumberName":"V-component_of_WINDS"},"data":[0.0,0.0,0.0,0.0,0.0,0.0,0.0,0.0,0.0,0.0,0.0,0.0,0.0,0.0,0.0,0.0,0.0,0.0,0.0,0.0,0.0,0.0,0.0,0.0,0.0,0.0,0.0,0.0,0.0,0.0,0.0,0.0,0.0,0.0,0.0,0.0,0.0,0.0,0.0,0.0,0.0,0.0,0.0,0.0,0.0,0.0,0.0,0.0,0.0,0.0,0.0,0.0,0.0,0.0,0.0,0.0,0.0,0.0,0.0,0.0,0.0,0.0,0.0,0.0,0.0,0.0,0.0,0.0,0.0,0.0,0.0,0.0,0.0,0.0,0.0,0.0,0.0,0.0,0.0,0.0,0.0,0.0,0.0,0.0,0.0,0.0,0.0,0.0,0.0,0.0,0.0,0.0,0.0,0.0,0.0,0.0,0.0,0.0,0.0,0.0,0.0,0.0,0.0,0.0,0.0,0.0,0.0,0.0,0.0,0.0,0.0,0.0,0.0,0.0,0.0,0.0,0.0,0.0,0.0,0.0,0.0,0.0,0.0,0.0,0.0,0.0,0.0,0.0,0.0,0.0,0.0,0.0,0.0,0.0,0.0,0.0,0.0,0.0,0.0,0.0,0.0,0.0,0.0,0.0,0.0,0.0,0.0,0.0,0.0,0.0,0.0,0.0,0.0,0.0,0.0,0.0,0.0,0.0,0.0,0.0,0.0,0.0,0.0,0.0,0.0,0.0,0.0,0.0,0.0,0.0,0.0,0.0,0.0,0.0,0.0,0.0,0.0,0.0,0.0,0.0,0.0,0.0,0.0,0.0,0.0,0.0,0.0,0.0,0.0,0.0,0.0,0.0,0.0,0.0,0.0,0.0,0.0,0.0,0.0,0.0,0.0,0.0,0.0,0.0,0.0,0.0,0.0,0.0,0.0,0.0,0.0,0.0,0.0,0.0,0.0,0.0,0.0,0.0,0.0,0.0,0.0,0.0,0.0,0.0,0.0,0.0,0.0,0.0,0.0,0.0,0.0,0.0,0.0,0.0,0.0,0.0,0.0,0.0,0.0,0.0,0.0,0.0,0.0,0.0,0.0,0.0,0.0,0.0,0.0,0.0,0.0,0.0,0.0,0.0,0.0,0.0,0.0,0.0,0.0,0.0,0.0,0.0,0.0,0.0,0.0,0.0,0.0,0.0,0.0,0.0,0.0,0.0,0.0,0.0,0.0,0.0,0.0,0.0,0.0,0.0,0.0,0.0,0.0,0.0,0.0,0.0,0.0,0.0,0.0,0.0,0.0,0.0,0.0,0.0,0.0,0.0,0.0,0.0,0.0,0.0,0.0,0.0,0.0,0.0,0.0,0.0,0.0,0.0,0.0,0.0,0.0,0.0,0.0,0.0,0.0,0.0,0.0,0.0,0.0,0.0,0.0,0.0,0.0,0.0,0.0,0.0,0.0,0.0,0.0,0.0,0.0,0.0,0.0,0.0,0.0,0.0,0.0,0.0,0.0,0.0,0.0,0.0,0.0,0.0,0.0,0.0,0.0,0.0,0.0,0.0,0.0,0.0,0.0,0.0,0.0,0.0,0.0,0.0,0.0,0.0,0.0,0.0,0.0,0.0,0.0,0.0,0.0,0.0,0.0,0.0,0.0,0.0,0.0,0.0,0.0,0.0,0.0,0.0,0.0,0.0,0.0,0.0,0.0,0.0,0.0,0.0,0.0,0.0,0.0,0.0,0.0,0.0,0.0,0.0,0.0,0.0,0.0,0.0,0.0,0.0,0.0,0.0,0.0,0.0,0.0,0.0,0.0,0.0,0.0,0.0,0.0,0.0,0.0,0.0,0.0,0.0,0.0,0.0,0.0,0.0,0.0,0.0,0.0,0.0,0.0,0.0,0.0,0.0,0.0,0.0,0.0,0.0,0.0,0.0,0.0,0.0,0.0,0.0,0.0,0.0,0.0,0.0,0.0,0.0,0.0,0.0,0.0,0.0,0.0,0.0,0.0,0.0,0.0,0.0,0.0,0.0,0.0,0.0,0.0,0.0,0.0,0.0,0.0,0.0,0.0,0.0,0.0,0.0,0.0,0.0,0.0,0.0,0.0,0.0,0.0,0.0,0.0,0.0,0.0,0.0,0.0,0.0,0.0,0.0,0.0,0.0,0.0,0.0,0.0,0.0,0.0,0.0,0.0,0.0,0.0,0.0,0.0,0.0,0.0,0.0,0.0,0.0,0.0,0.0,0.0,0.0,0.0,0.0,0.0,0.0,0.0,0.0,0.0,0.0,0.0,0.0,0.0,0.0,0.0,0.0,0.0,0.0,0.0,0.0,0.0,0.0,0.0,0.0,0.0,0.0,0.0,0.0,0.0,0.0,0.0,0.0,0.0,0.0,0.0,0.0,0.0,0.0,0.0,0.0,0.0,0.0,0.0,0.0,0.0,0.0,0.0,0.0,0.0,0.0,0.0,0.0,0.0,0.0,0.0,0.0,0.0,0.0,0.0,0.0,0.0,0.0,0.0,0.0,0.0,0.0,0.0,0.0,0.0,0.0,0.0,0.0,0.0,0.0,0.0,0.0,0.0,0.0,0.0,0.0,0.0,0.0,0.0,0.0,0.0,0.0,0.0,0.0,0.0,0.0,0.0,0.0,0.0,0.0,0.0,0.0,0.0,0.0,0.0,0.0,0.0,0.0,0.0,0.0,0.0,0.0,0.0,0.0,0.0,0.0,0.0,0.0,0.0,0.0,0.0,0.0,0.0,0.0,0.0,0.0,0.0,0.0,0.0,0.0,0.0,0.0,0.0,0.0,0.0,0.0,0.0,0.0,0.0,0.0,0.0,0.0,0.0,0.0,0.0,0.0,0.0,0.0,0.0,0.0,0.0,0.0,0.0,0.0,0.0,0.0,0.0,0.0,0.0,0.0,0.0,0.0,0.0,0.0,0.0,0.0,0.0,0.0,0.0,0.0,0.0,0.0,0.0,0.0,0.0,0.0,0.0,0.0,0.0,0.0,0.0,0.0,0.0,0.0,0.0,0.0,0.0,0.0,0.0,0.0,0.0,0.0,0.0,0.0,0.0,0.0,0.0,0.0,0.0,0.0,0.0,0.0,0.0,0.0,0.0,0.0,0.0,0.0,0.0,0.0,0.0,0.0,0.0,0.0,0.0,0.0,0.0,0.0,0.0,0.0,0.0,0.0,0.0,0.0,0.0,0.0,0.0,0.0,0.0,0.0,0.0,0.0,0.0,0.0,0.0,0.0,0.0,0.0,0.0,0.0,0.0,0.0,0.0,0.0,0.0,0.0,0.0,0.0,0.0,0.0,0.0,0.0,0.0,0.0,0.0,0.0,0.0,0.0,0.0,0.0,0.0,0.0,0.0,0.0,0.0,0.0,0.0,0.0,0.0,0.0,0.0,0.0,0.0,0.0,0.0,0.0,0.0,0.0,0.0,0.0,0.0,0.0,0.0,0.0,0.0,0.0,0.0,0.0,0.0,0.0,0.0,0.0,0.0,0.0,0.0,0.0,0.0,0.0,0.0,0.0,0.0,0.0,0.0,0.0,0.0,0.0,0.0,0.0,0.0,0.0,0.0,0.0,0.0,0.0,0.0,0.0,0.0,0.0,0.0,0.0,0.0,0.0,0.0,0.0,0.0,0.0,0.0,0.0,0.0,0.0,0.0,0.0,0.0,0.0,0.0,0.0,0.0,0.0,0.0,0.0,0.0,0.0,0.0,0.0,0.0,0.0,0.0,0.0,0.0,0.0,0.0,0.0,0.0,0.0,0.0,0.0,0.0,0.0,0.0,0.0,0.0,0.0,0.0,0.0,0.0,0.0,0.0,0.0,0.0,0.0,0.0,0.0,0.0,0.0,0.0,0.0,0.0,0.0,0.0,0.0,0.0,0.0,0.0,0.0,0.0,0.0,0.0,0.0,0.0,0.0,0.0,0.0,0.0,0.0,0.0,0.0,0.0,0.0,0.0,0.0,0.0,0.0,0.0,0.0,0.0,0.0,0.0,0.0,0.0,0.0,0.0,0.0,0.0,0.0,0.0,0.0,0.0,0.0,0.0,0.0,0.0,0.0,0.0,0.0,0.0,0.0,0.0,0.0,0.0,0.0,0.0,0.0,0.0,0.0,0.0,0.0,0.0,0.0,0.0,0.0,0.0,0.0,0.0,0.0,0.0,0.0,0.0,0.0,0.0,0.0,0.0,0.0,0.0,0.0,0.0,0.0,0.0,0.0,0.0,0.0,0.0,0.0,0.0,0.0,0.0,0.0,0.0,0.0,0.0,0.0,0.0,0.0,0.0,0.0,0.0,0.0,0.0,0.0,0.0,0.0,0.0,0.0,0.0,0.0,0.0,0.0,0.0,0.0,0.0,0.0,0.0,0.0,0.0,0.0,0.0,0.0,0.0,0.0,0.0,0.0,0.0,0.0,0.0,0.0,0.0,0.0,0.0,0.0,0.0,0.0,0.0,0.0,0.0,0.0,0.0,0.0,0.0,0.0,0.0,0.0,0.0,0.0,0.0,0.0,0.0,0.0,0.0,0.0,0.0,0.0,0.0,0.0,0.0,0.0,0.0,0.0,0.0,0.0,0.0,0.0,0.0,0.0,0.0,0.0,0.0,0.0,0.0,0.0,0.0,0.0,0.0,0.0,0.0,0.0,0.0,0.0,0.0,0.0,0.0,0.0,0.0,0.0,0.0,0.0,0.0,0.0,0.0,0.0,0.0,0.0,0.0,0.0,0.0,0.0,0.0,0.0,0.0,0.0,0.0,0.0,0.0,0.0,0.0,0.0,0.0,0.0,0.0,0.0,0.0,0.0,0.0,0.0,0.0,0.0,0.0,0.0,0.0,0.0,0.0,0.0,0.0,0.0,0.0,0.0,0.0,0.0,0.0,0.0,0.0,0.0,0.0,0.0,0.0,0.0,0.0,0.0,0.0,0.0,0.0,0.0,0.0,0.0,0.0,0.0,0.0,0.0,0.0,0.0,0.0,0.0,0.0,0.0,0.0,0.0,0.0,0.0,0.0,0.0,0.0,0.0,0.0,0.0,0.0,0.0,0.0,0.0,0.0,0.0,0.0,0.0,0.0,0.0,0.0,0.0,0.0,0.0,0.0,0.0,0.0,0.0,0.0,0.0,0.0,0.0,0.0,0.0,0.0,0.0,0.0,0.0,0.0,0.0,0.0,0.0,0.0,0.0,0.0,0.0,0.0,0.0,0.0,0.0,0.0,0.0,0.0,0.0,0.0,0.0,0.0,0.0,0.0,0.0,0.0,0.0,0.0,0.0,0.0,0.0,0.0,0.0,0.0,0.0,0.0,0.0,0.0,0.0,0.0,0.0,0.0,0.0,0.0,0.0,0.0,0.0,0.0,0.0,0.0,0.0,0.0,0.0,0.0,0.0,0.0,0.0,0.0,0.0,0.0,0.0,0.0,0.0,0.0,0.0,0.0,0.0,0.0,0.0,0.0,0.0,0.0,0.0,0.0,0.0,0.0,0.0,0.0,0.0,0.0,0.0,0.0,0.0,0.0,0.0,0.0,0.0,0.0,0.0,0.0,0.0,0.0,0.0,0.0,0.0,0.0,0.0,0.0,0.0,0.0,0.0,0.0,0.0,0.0,0.0,0.0,0.0,0.0,0.0,0.0,0.0,0.0,0.0,0.0,0.0,0.0,0.0,0.0,0.0,0.0,0.0,0.0,0.0,0.0,0.0,0.0,0.0,0.0,0.0,0.0,0.0,0.0,0.0,0.0,0.0,0.0,0.0,0.0,0.0,0.0,0.0,0.0,0.0,0.0,0.0,0.0,0.0,0.0,0.0,0.0,0.0,0.0,0.0,0.0,0.0,0.0,0.0,0.0,0.0,0.0,0.0,0.0,0.0,0.0,0.0,0.0,0.0,0.0,0.0,0.0,0.0,0.0,0.0,0.0,0.0,0.0,0.0,0.0,0.0,0.0,0.0,0.0,0.0,0.0,0.0,0.0,0.0,0.0,0.0,0.0,0.0,0.0,0.0,0.0,0.0,0.0,0.0,0.0,0.0,0.0,0.0,0.0,0.0,0.0,0.0,0.0,0.0,0.0,0.0,0.0,0.0,0.0,0.0,0.0,0.0,2.7182,2.7542,0.0,0.0,0.0,0.0,0.0,0.0,0.0,0.0,0.0,0.0,0.0,0.0,0.0,0.0,0.0,0.0,0.0,0.0,0.0,0.0,0.0,0.0,0.0,0.0,0.0,0.0,0.0,0.0,0.0,0.0,0.0,0.0,0.0,0.0,0.0,0.0,0.0,0.0,0.0,0.0,0.0,0.0,0.0,0.0,0.0,0.0,0.0,0.0,0.0,0.0,0.0,0.0,0.0,0.0,0.0,0.0,0.0,0.0,0.0,0.0,0.0,0.0,0.0,0.0,0.0,0.0,0.0,0.0,0.0,0.0,0.0,0.0,0.0,0.0,0.0,0.0,0.0,0.0,0.0,0.0,0.0,0.0,0.0,0.0,0.0,0.0,0.0,0.0,0.0,0.0,0.0,0.0,0.0,0.0,0.0,0.0,0.0,0.0,0.0,0.0,0.0,0.0,0.0,0.0,0.0,0.0,0.0,0.0,0.0,0.0,0.0,0.0,0.0,0.0,2.7247,2.7214,0.0,0.0,0.0,0.0,0.0,0.0,0.0,0.0,0.0,0.0,0.0,0.0,0.0,0.0,0.0,0.0,0.0,0.0,0.0,0.0,0.0,0.0,0.0,0.0,0.0,0.0,0.0,0.0,0.0,0.0,0.0,0.0,0.0,0.0,0.0,0.0,0.0,0.0,0.0,0.0,0.0,0.0,0.0,0.0,0.0,0.0,0.0,0.0,0.0,0.0,0.0,0.0,0.0,0.0,0.0,0.0,0.0,0.0,0.0,0.0,0.0,0.0,0.0,0.0,0.0,0.0,0.0,0.0,0.0,0.0,0.0,0.0,0.0,0.0,0.0,0.0,0.0,0.0,0.0,0.0,0.0,0.0,0.0,0.0,0.0,0.0,0.0,0.0,0.0,0.0,0.0,0.0,0.0,0.0,0.0,0.0,0.0,0.0,0.0,0.0,0.0,0.0,0.0,0.0,0.0,0.0,0.0,0.0,2.8063,2.8184,2.842,2.8548,2.8659,2.8688,2.7587,2.7249,2.7497,2.7738,0.0,0.0,0.0,0.0,0.0,0.0,0.0,0.0,0.0,0.0,0.0,0.0,0.0,0.0,0.0,0.0,0.0,0.0,0.0,0.0,0.0,0.0,0.0,0.0,0.0,0.0,0.0,0.0,0.0,0.0,0.0,0.0,0.0,0.0,0.0,0.0,0.0,0.0,2.7185,2.6982,2.6879,2.6918,2.7469,0.0,0.0,0.0,0.0,0.0,0.0,0.0,0.0,0.0,0.0,0.0,0.0,0.0,0.0,0.0,0.0,0.0,0.0,0.0,0.0,0.0,0.0,0.0,0.0,0.0,0.0,0.0,0.0,0.0,0.0,0.0,0.0,0.0,0.0,0.0,0.0,0.0,0.0,0.0,0.0,0.0,0.0,0.0,2.3429,2.3429,0.0,0.0,0.0,0.0,0.0,0.0,0.0,0.0,0.0,0.0,0.0,0.0,0.0,2.7195,2.7354,2.7511,2.7618,2.766,2.7839,2.7983,2.807,2.8201,2.8373,2.8548,2.8479,0.0,2.8938,2.9145,0.0,0.0,0.0,0.0,0.0,0.0,0.0,0.0,0.0,0.0,0.0,0.0,0.0,0.0,0.0,0.0,0.0,0.0,0.0,0.0,0.0,0.0,0.0,0.0,0.0,0.0,0.0,0.0,0.0,0.0,0.0,0.0,0.0,0.0,0.0,0.0,2.5728,2.5851,2.5933,2.596,2.6,2.6067,2.6373,2.686,2.7454,2.75,0.0,0.0,0.0,0.0,0.0,0.0,0.0,0.0,0.0,0.0,0.0,0.0,0.0,0.0,0.0,0.0,0.0,0.0,0.0,0.0,0.0,0.0,0.0,0.0,0.0,0.0,0.0,0.0,0.0,0.0,0.0,0.0,0.0,0.0,0.0,0.0,0.0,0.0,0.0,2.367,2.3756,2.4206,2.4429,2.4604,0.0,0.0,0.0,0.0,0.0,0.0,0.0,0.0,0.0,2.7873,2.8183,2.8443,2.865,2.8742,2.885,2.894,2.9025,2.9156,2.9309,2.9444,2.9622,2.9841,2.9939,3.0135,3.0333,2.9624,2.9489,2.9742,0.0,0.0,0.0,0.0,3.1123,3.1507,0.0,0.0,0.0,0.0,0.0,0.0,0.0,0.0,0.0,0.0,0.0,0.0,0.0,0.0,0.0,1.8538,0.0,0.0,0.0,0.0,0.0,0.0,0.0,0.0,0.0,0.0,0.0,2.4408,2.465,2.4806,2.4835,2.5021,2.5147,2.5175,2.5175,2.5728,2.6654,2.6654,2.6849,0.0,0.0,0.0,0.0,0.0,0.0,0.0,0.0,0.0,0.0,0.0,0.0,0.0,0.0,0.0,0.0,0.0,0.0,0.0,0.0,0.0,0.0,0.0,0.0,0.0,0.0,0.0,0.0,0.0,0.0,0.0,0.0,0.0,0.0,0.0,0.0,0.0,0.0,2.4023,2.4173,2.4825,2.493,2.5056,0.0,0.0,0.0,0.0,0.0,0.0,2.7176,2.7596,2.8124,2.874,2.899,2.9198,2.9441,2.9441,2.9554,2.9716,2.976,2.9897,3.0156,3.03,3.0547,3.0851,3.0952,3.1098,3.123,3.0162,2.9917,3.0179,3.0282,3.0552,3.0875,3.1072,3.1427,3.1845,0.0,0.0,0.0,0.0,0.0,0.0,0.0,0.0,0.0,0.0,0.0,0.0,0.0,0.0,1.7091,1.7445,1.8459,1.9247,0.0,0.0,0.0,0.0,0.0,0.0,0.0,0.0,0.0,2.4118,2.4131,2.4205,2.435,2.435,2.4436,2.4538,2.4538,2.5062,2.5948,2.5948,2.6123,2.639,0.0,0.0,0.0,0.0,0.0,0.0,0.0,0.0,0.0,0.0,0.0,0.0,0.0,0.0,0.0,0.0,0.0,0.0,0.0,0.0,0.0,0.0,0.0,0.0,0.0,0.0,0.0,0.0,0.0,0.0,0.0,0.0,0.0,0.0,0.0,0.0,0.0,0.0,0.0,2.4599,2.5045,0.0,0.0,0.0,0.0,2.7078,2.7246,2.7464,2.773,2.8027,2.8253,2.842,2.8494,2.8606,2.8756,2.8756,2.8818,2.8951,2.9074,2.9357,2.9726,2.993,3.0274,3.0712,3.0851,3.1055,3.1295,3.121,3.1384,3.1697,3.1771,3.2039,3.2417,3.253,3.2847,3.3241,0.0,0.0,0.0,0.0,0.0,0.0,0.0,0.0,0.0,0.0,0.0,0.0,0.0,1.6077,1.6545,1.7458,1.8004,1.8677,1.9555,0.0,0.0,0.0,0.0,0.0,0.0,0.0,2.3454,2.3454,2.3586,2.3675,2.3704,2.3822,2.3868,2.3927,2.3927,2.4173,2.462,2.4893,2.5175,2.5495,2.5646,2.6082,0.0,0.0,0.0,0.0,0.0,0.0,0.0,0.0,0.0,0.0,0.0,0.0,0.0,0.0,0.0,0.0,0.0,0.0,0.0,0.0,0.0,0.0,0.0,0.0,0.0,0.0,0.0,0.0,0.0,0.0,0.0,0.0,0.0,0.0,0.0,0.0,0.0,2.5764,2.5907,0.0,2.6535,2.6634,2.687,2.7299,2.7463,2.7615,2.779,2.8063,2.821,2.8259,2.8381,2.8477,2.851,2.851,2.8558,2.87,2.8803,2.9059,2.9441,2.9738,3.013,3.0572,3.0794,3.1032,3.1232,3.1232,3.1368,3.1595,3.1632,3.1838,3.2144,3.2318,3.2653,3.3068,0.0,0.0,0.0,0.0,0.0,0.0,0.0,0.0,0.0,0.0,0.0,1.5673,1.5385,1.5748,1.6357,1.7282,1.7698,1.8304,1.9154,0.0,0.0,0.0,0.0,0.0,0.0,2.2927,2.3017,2.3017,2.321,2.33,2.33,2.339,2.3437,2.3437,2.3437,2.3509,2.3641,2.3927,2.4292,2.4708,2.4907,2.5314,2.5892,0.0,0.0,0.0,0.0,0.0,0.0,0.0,0.0,0.0,0.0,0.0,0.0,0.0,0.0,0.0,0.0,0.0,0.0,0.0,0.0,0.0,0.0,0.0,0.0,0.0,0.0,0.0,0.0,0.0,0.0,0.0,0.0,0.0,0.0,2.5764,2.5986,2.6587,2.6539,2.6592,2.7015,2.6951,2.7029,2.7376,2.7488,2.7679,2.8046,2.8238,2.843,2.8657,2.8748,2.8814,2.8814,2.8814,2.8899,2.9073,2.9215,2.9506,2.9934,3.0373,3.0653,3.0891,3.1157,3.1248,3.119,3.119,3.1269,3.1402,3.1423,3.1579,3.1821,3.202,3.2335,3.2721,0.0,0.0,0.0,0.0,0.0,0.0,0.0,0.0,0.0,0.0,1.5731,1.5392,1.5139,1.5812,1.6464,1.685,1.7572,1.8144,1.8448,1.8988,0.0,0.0,0.0,0.0,2.2359,2.2726,2.2878,2.2878,2.3017,2.3108,2.3108,2.3108,2.3108,2.3108,2.3108,2.3108,2.3108,2.3108,2.3484,2.4089,2.435,2.4666,2.5033,0.0,0.0,0.0,0.0,0.0,0.0,0.0,0.0,0.0,0.0,0.0,0.0,0.0,0.0,0.0,0.0,0.0,0.0,0.0,0.0,0.0,0.0,0.0,0.0,0.0,0.0,0.0,0.0,0.0,0.0,0.0,0.0,0.0,2.6551,2.651,2.663,2.6977,2.6829,2.6841,2.7196,2.7122,2.7163,2.7461,2.7461,2.782,2.8592,2.8622,2.8921,2.9592,2.9606,2.9606,2.9606,2.9606,2.9741,3.0008,3.0267,3.0664,3.1223,3.1734,3.1877,3.1631,3.1904,3.1732,3.1258,3.1258,3.1258,3.1278,3.1291,3.1428,3.1617,3.1803,3.202,3.2266,0.0,0.0,0.0,0.0,0.0,0.0,0.0,0.0,0.0,0.0,1.5583,1.5209,1.5351,1.5708,1.6186,1.6853,1.737,1.7769,1.811,0.0,0.0,0.0,0.0,0.0,2.187,2.2316,2.2604,2.2739,2.2878,2.2987,2.3108,2.3108,2.3108,2.3108,2.3108,2.3108,2.3108,2.3108,2.3215,2.3395,2.3721,2.4102,2.4536,0.0,0.0,0.0,0.0,0.0,0.0,0.0,0.0,0.0,0.0,0.0,0.0,0.0,0.0,0.0,0.0,0.0,0.0,0.0,0.0,0.0,0.0,0.0,0.0,0.0,0.0,0.0,0.0,0.0,0.0,0.0,2.6884,2.6925,2.6738,2.6881,2.7037,2.713,2.7104,2.7332,2.8002,2.8035,2.8281,2.8943,2.8988,2.9089,2.9295,2.9337,2.9427,2.9606,2.9606,2.9606,2.9606,2.9606,2.9687,2.9863,3.0125,3.0485,3.0917,3.1574,3.199,3.2271,3.265,3.2807,3.2797,3.2797,3.2797,3.2696,3.1653,3.1293,3.1408,3.1559,3.1857,3.2249,0.0,0.0,0.0,0.0,0.0,0.0,0.0,0.0,0.0,0.0,1.5315,1.4977,1.5324,1.5703,1.6128,1.6603,1.7072,1.7461,1.7657,0.0,0.0,0.0,0.0,2.0848,2.1242,2.1714,2.2099,2.2347,2.2574,2.2818,2.3017,2.3017,2.3047,2.3108,2.3108,2.3108,2.3108,2.3108,2.3108,2.3108,2.3318,2.3645,2.4044,2.4392,2.4765,2.5118,2.5258,2.5508,2.5783,2.5947,0.0,0.0,0.0,0.0,0.0,0.0,0.0,0.0,0.0,0.0,0.0,0.0,0.0,0.0,0.0,0.0,0.0,0.0,0.0,0.0,0.0,0.0,0.0,0.0,2.7357,2.7592,2.7856,2.7797,2.7828,2.8174,2.8218,2.8393,2.886,2.8889,2.9107,2.9549,2.9606,2.9726,2.9953,2.9968,3.0103,3.0387,3.0402,3.0402,3.0402,3.0402,3.0486,3.0639,3.0909,3.1297,3.1737,3.2387,3.2812,3.3069,3.3395,3.3513,3.3406,3.3406,3.3406,3.3288,0.0,0.0,0.0,0.0,3.1635,3.1966,0.0,0.0,0.0,0.0,0.0,0.0,0.0,0.0,0.0,0.0,0.0,1.4754,1.5198,1.5679,1.6061,1.6237,1.6786,1.7166,0.0,0.0,0.0,1.921,1.977,2.0204,2.0506,2.1008,2.1451,2.1784,2.2118,2.2482,2.2818,2.2848,2.2939,2.3078,2.3078,2.3108,2.3108,2.3108,2.3108,2.3108,2.3108,2.3288,2.3628,2.3897,2.4131,2.4263,2.4379,2.4637,2.4892,2.492,0.0,0.0,0.0,0.0,0.0,0.0,0.0,0.0,0.0,0.0,0.0,0.0,0.0,0.0,0.0,0.0,0.0,0.0,0.0,0.0,0.0,0.0,0.0,0.0,2.8108,2.8613,2.9416,2.9,2.8889,2.952,2.9606,2.9636,2.9696,2.9711,2.9714,2.9804,2.9804,3.0043,3.0597,3.0612,0.0,0.0,0.0,3.1511,3.1511,3.1511,3.1626,3.1784,3.2094,3.248,3.3007,3.3626,3.3909,3.3909,3.4201,3.4063,3.366,3.366,3.3609,3.3457,3.2716,3.2429,3.2344,3.1766,3.1664,3.1855,0.0,0.0,0.0,0.0,0.0,0.0,0.0,0.0,0.0,1.5984,1.5192,1.4823,1.539,1.5411,1.5524,1.5877,1.6394,1.6985,0.0,0.0,1.8496,1.8865,1.9396,1.9802,2.0031,2.0399,2.0752,2.1083,2.1431,2.1851,2.234,2.2616,2.28,2.2939,2.3047,2.3108,2.3108,2.3108,2.3108,2.3108,2.3108,2.3228,2.3463,2.3509,2.3717,2.3966,2.4024,2.4128,2.4305,2.4408,2.4523,2.4666,2.5048,0.0,0.0,0.0,0.0,0.0,0.0,0.0,0.0,0.0,0.0,0.0,0.0,0.0,0.0,0.0,0.0,0.0,0.0,0.0,0.0,2.8629,2.8948,2.9431,3.0182,3.018,2.9971,2.9651,2.9606,2.9774,3.0283,3.0328,3.0552,3.1077,3.1122,3.1182,3.1301,3.1316,3.1376,3.1511,3.1511,3.1511,3.1511,3.167,3.1756,3.1784,3.2163,0.0,3.2857,3.3575,3.4136,3.4541,3.4912,3.5127,3.516,3.516,3.4805,3.4201,3.3474,3.3186,3.3169,3.3038,3.3087,3.325,0.0,0.0,0.0,0.0,0.0,0.0,0.0,0.0,0.0,0.0,1.4935,1.4505,1.4988,1.4892,1.4919,1.5169,1.5903,0.0,0.0,1.7784,1.8158,1.8539,1.8875,1.9142,1.9341,1.9616,1.9944,2.0334,2.072,2.123,2.1913,2.2278,2.2616,2.2909,2.3047,2.3108,2.3108,2.3108,2.3108,2.3108,2.3108,2.3168,2.3241,2.3241,2.336,2.3509,2.3509,2.3628,2.3763,2.3822,2.3969,2.4157,2.439,2.4635,2.4935,0.0,0.0,0.0,0.0,0.0,0.0,0.0,0.0,0.0,0.0,0.0,0.0,0.0,0.0,2.8455,0.0,0.0,2.8867,2.9315,2.9542,2.9947,3.0784,3.0902,3.0811,3.0569,3.0552,3.0687,3.0957,3.0987,3.1137,3.1481,3.1511,3.1511,3.1511,3.1511,3.1511,3.1511,3.1511,3.1511,3.1511,3.1698,3.1841,3.1927,3.237,3.2776,3.3166,3.3882,3.4448,3.4923,3.5245,3.5475,3.56,3.56,3.538,3.5013,3.4636,3.4066,3.3406,3.3406,3.3427,3.3528,0.0,0.0,0.0,0.0,0.0,0.0,0.0,0.0,0.0,0.0,1.4614,1.4127,1.4395,1.435,1.4397,0.0,0.0,0.0,0.0,1.751,1.7886,1.8269,1.8414,1.8583,1.8741,1.8908,1.9198,1.9616,2.0009,2.057,2.1333,2.1776,2.2235,2.2714,2.2896,2.2987,2.3017,2.3017,2.3017,2.3017,2.3047,2.3047,2.3047,2.3078,2.3108,2.3108,2.3108,2.3198,2.333,2.333,2.3522,2.376,2.3802,2.4028,2.435,2.4578,2.4806,0.0,0.0,0.0,0.0,0.0,0.0,0.0,0.0,0.0,2.7423,2.7709,2.8422,2.8998,2.8972,2.8986,2.9246,2.9915,3.0061,3.0353,3.1174,3.1307,3.1351,3.1467,3.1511,3.1511,3.1511,3.1511,3.1511,3.1511,3.1511,3.1511,3.1511,3.1511,3.1511,3.1511,3.1511,3.1511,3.1511,3.1727,3.1912,3.2094,3.2629,3.314,3.3658,3.425,3.4763,3.5152,3.5406,3.5566,3.56,3.56,3.56,3.56,3.56,3.4873,3.3846,3.3846,3.3846,3.3846,0.0,0.0,0.0,0.0,0.0,0.0,0.0,0.0,0.0,0.0,0.0,0.0,0.0,0.0,0.0,0.0,0.0,0.0,1.6908,1.7407,1.7886,1.8269,1.8414,1.8516,1.8516,1.8549,1.8674,1.8908,1.9243,1.9694,2.0291,2.0901,2.1514,2.2044,2.2347,2.2574,2.2739,2.2739,2.2739,2.2769,2.2878,2.2909,2.2939,2.3047,2.3108,2.3108,2.3108,2.3108,2.3138,2.3138,2.3168,2.3228,2.339,2.3569,2.3734,2.3936,0.0,2.4379,2.4263,2.4263,2.4234,2.4218,2.4379,2.48,0.0,0.0,2.7244,2.8491,2.9041,2.9389,2.9857,3.0034,3.0229,3.0481,3.063,3.0822,3.1248,3.1307,3.1351,3.1467,3.1511,3.1511,3.1511,3.1511,3.1511,3.1511,3.1511,3.1511,3.1511,3.1511,3.1511,3.1511,3.1511,3.1511,3.1511,3.1826,3.2094,3.237,3.2958,3.3513,3.405,3.4472,3.4899,3.5291,3.5503,3.56,3.56,3.56,3.56,3.56,3.56,3.5498,3.5346,3.5346,3.5346,3.5368,0.0,0.0,0.0,0.0,0.0,0.0,0.0,0.0,0.0,0.0,0.0,0.0,0.0,0.0,0.0,0.0,0.0,0.0,1.6647,1.7166,1.7613,1.811,1.8178,1.8212,1.8212,1.8212,1.8313,1.8506,1.8831,1.9287,1.9824,2.0495,2.104,2.1439,2.192,2.2149,2.2242,2.2371,2.2402,2.2402,2.2463,2.2543,2.2604,2.2653,2.2805,2.2987,2.3078,2.3108,0.0,0.0,2.3108,2.3108,2.3198,2.333,2.3492,2.3582,2.3747,0.0,2.3822,2.3763,2.3752,0.0,2.439,2.4833,2.565,2.6597,2.7506,2.8199,2.8759,2.9279,2.9594,2.9699,2.9808,0.0,3.0266,3.0536,3.094,3.1117,3.1278,3.1467,3.1511,3.1511,3.1511,3.1511,3.1511,3.1511,3.1511,3.1511,3.1511,3.1511,3.1511,3.1511,3.1511,3.1511,3.1511,3.1826,3.215,3.2425,3.3171,3.3771,3.4226,3.4787,3.5205,3.5481,3.5554,3.56,3.56,3.56,3.56,3.56,3.56,3.56,3.56,3.56,3.56,3.56,0.0,0.0,0.0,0.0,0.0,0.0,0.0,0.0,0.0,0.0,0.0,0.0,0.0,0.0,0.0,0.0,0.0,0.0,0.0,1.695,1.7451,1.7974,1.8008,1.8008,1.8008,1.8008,1.8076,1.8212,1.8506,1.8875,1.9308,1.9922,2.0366,2.0773,2.1219,2.1439,2.1534,2.1694,2.18,2.1831,2.1925,2.208,2.2285,2.2347,2.2604,2.2909,2.3017,2.3078,0.0,0.0,2.3108,2.3108,2.3108,2.3198,2.3313,2.3313,2.339,2.3467,2.3467,0.0,0.0,2.4046,2.4466,2.4988,2.574,2.6704,2.7512,2.7818,2.8357,2.8849,2.8994,2.9107,2.9279,2.9699,2.9974,3.0325,3.0791,3.1043,3.1249,3.1467,3.1511,3.1511,3.1511,3.1511,3.1511,3.1511,3.1511,3.1511,3.1511,3.1511,3.1511,3.1511,3.1511,3.1511,3.1511,3.1826,3.2135,3.2465,3.3288,3.3949,3.4423,3.5088,3.5458,3.56,3.56,3.56,3.56,3.56,3.56,3.56,3.56,3.56,3.56,3.56,3.56,3.56,0.0,0.0,0.0,0.0,0.0,0.0,0.0,0.0,0.0,0.0,0.0,0.0,0.0,0.0,0.0,0.0,0.0,0.0,0.0,1.6881,1.7451,1.7974,1.8008,1.8008,1.8008,1.8008,1.8008,1.8008,1.8202,1.8371,1.8549,1.8942,1.9386,1.9846,2.0063,2.0334,2.0635,2.0635,2.0764,2.0967,2.1305,2.1608,2.1951,2.2285,2.2604,2.2909,2.2909,0.0,0.0,0.0,2.3108,2.3108,2.3108,2.3108,0.0,2.3108,2.3108,2.3108,2.3108,2.3552,2.3979,2.3991,2.4488,2.5191,2.5992,2.6479,2.6928,2.7644,2.7927,2.8105,2.8287,2.861,2.8994,2.9509,2.9991,3.0477,3.1014,3.122,3.1351,3.1467,3.1511,3.1511,0.0,3.1511,3.1511,3.1511,3.1511,3.1511,3.1511,3.1511,3.1511,3.1511,3.1511,3.1511,3.1511,3.1826,3.2191,3.2586,3.334,3.405,3.4715,3.5327,3.56,3.56,3.56,3.56,3.56,3.56,3.56,3.56,3.56,3.56,3.56,3.56,3.56,3.56,0.0,0.0,0.0,0.0,0.0,0.0,0.0,0.0,0.0,0.0,0.0,0.0,0.0,0.0,0.0,0.0,0.0,0.0,0.0,1.6568,1.7088,1.7784,1.7784,1.7862,1.8008,1.8008,1.8008,1.8008,1.8212,1.8303,1.8371,1.8741,1.9008,1.9164,1.9441,1.9628,1.9737,2.002,2.0215,2.0399,2.072,2.1135,2.1608,2.1831,2.2278,2.2769,0.0,0.0,0.0,2.3108,2.3108,2.3108,2.3108,2.3108,2.3108,2.3108,2.3108,2.3195,2.3602,2.3853,2.4167,2.4883,2.534,2.5762,2.6388,2.6716,2.6982,2.7242,2.7302,2.7436,2.7723,2.7973,2.832,2.8976,2.9481,2.9991,3.0507,3.091,3.122,3.1351,3.1438,0.0,0.0,0.0,0.0,3.1511,3.1511,3.1511,3.1511,3.1511,3.1511,3.1511,3.1511,3.1568,3.1698,3.1981,3.2342,3.2749,3.3841,3.4618,3.5111,3.5441,3.56,3.56,3.56,3.56,3.56,3.56,3.56,3.56,3.56,3.56,3.56,3.56,3.56,3.56,0.0,0.0,0.0,0.0,0.0,0.0,0.0,0.0,0.0,0.0,0.0,0.0,0.0,0.0,0.0,0.0,0.0,0.0,0.0,0.0,1.6846,1.7672,1.7706,1.7784,1.8008,1.8008,1.8008,1.8008,1.8144,1.8202,1.8212,1.8405,1.8539,1.864,1.8854,1.9021,1.9154,1.9462,1.9758,2.0042,2.0442,2.0955,2.1526,2.1781,2.2247,0.0,0.0,0.0,0.0,2.3108,2.3108,2.3108,2.3108,2.3108,2.3108,2.3108,2.3246,2.3496,2.3891,2.428,2.4732,2.5423,2.5862,2.6215,2.6535,2.6726,2.6807,2.6807,2.6807,2.6909,2.7268,2.759,2.8039,2.8707,2.9355,2.9929,3.0357,3.0851,3.1205,3.1292,3.1409,3.1511,0.0,0.0,0.0,3.1511,3.1511,3.1511,3.1511,3.1568,3.1597,3.1597,3.1697,3.1811,3.194,3.2247,3.2722,3.3361,3.4292,3.497,3.5377,3.5526,3.56,3.56,3.56,3.56,3.56,3.56,3.56,3.56,3.56,3.56,3.56,3.56,3.56,3.56,0.0,0.0,0.0,0.0,0.0,0.0,0.0,0.0,0.0,0.0,0.0,0.0,0.0,0.0,0.0,0.0,0.0,0.0,0.0,0.0,0.0,1.7638,1.7672,1.7784,1.8008,1.8008,1.8008,1.8008,1.8008,1.8008,1.8008,1.8008,1.811,1.8303,1.8303,1.8472,1.8808,1.9008,1.944,1.9966,2.0442,2.1051,2.1757,2.2092,0.0,0.0,0.0,0.0,0.0,2.3108,2.3108,2.3108,2.3108,2.3108,2.3108,2.3108,2.354,2.4004,2.4029,2.4808,2.5598,2.5636,2.6084,2.6499,2.6499,2.6499,2.6499,2.6499,2.6499,2.6602,2.6956,2.7436,2.8006,2.8675,2.9529,3.019,3.0522,3.0984,3.1292,0.0,0.0,0.0,0.0,0.0,0.0,3.1511,3.1511,3.1511,3.1511,3.1698,3.1799,3.1813,3.2066,3.2219,3.2247,3.2668,3.3361,3.4325,3.4732,3.5111,3.5492,3.5571,3.56,3.56,3.56,3.56,3.56,3.56,3.56,3.56,3.56,3.56,3.56,3.56,3.56,3.56,0.0,0.0,0.0,0.0,0.0,0.0,0.0,0.0,0.0,0.0,0.0,0.0,0.0,0.0,0.0,0.0,0.0,0.0,0.0,0.0,0.0,0.0,0.0,0.0,0.0,0.0,0.0,0.0,0.0,1.8008,1.8008,1.8008,1.811,1.8303,1.8303,1.8472,1.8808,1.9121,1.9551,2.0107,0.0,2.1313,2.1889,0.0,0.0,0.0,0.0,0.0,0.0,0.0,2.3108,2.3108,2.3108,2.3108,2.3108,2.3108,2.354,2.4092,2.4506,2.5096,2.5699,2.6172,2.6386,2.6499,2.6499,2.6499,2.6499,2.6499,2.6499,2.6602,2.6956,2.7302,2.7822,2.8541,2.9243,0.0,3.0158,3.0776,0.0,3.1161,0.0,3.1511,3.1511,3.1511,0.0,0.0,3.1511,3.1511,3.1511,3.1698,3.1841,3.194,3.2219,3.2492,3.2788,3.3543,3.4159,3.4594,3.4994,3.5291,3.5492,3.5571,3.56,3.56,3.56,3.56,3.56,3.56,3.56,3.56,3.56,3.56,3.56,3.56,3.56,3.56,0.0,0.0,0.0,0.0,0.0,0.0,0.0,0.0,0.0,0.0,0.0,0.0,0.0,0.0,0.0,0.0,0.0,0.0,0.0,0.0,0.0,0.0,0.0,0.0,0.0,0.0,0.0,0.0,0.0,0.0,0.0,1.8008,1.811,1.8303,1.8371,1.8607,1.9054,1.9474,0.0,0.0,0.0,0.0,0.0,0.0,0.0,0.0,0.0,0.0,0.0,0.0,0.0,2.3108,2.3108,2.3108,2.3108,2.3108,2.3684,2.4431,2.4713,2.5385,2.6084,2.6411,2.6499,2.6499,2.6499,2.6499,2.6521,2.6589,2.6589,2.6726,2.7268,2.7623,2.8105,0.0,0.0,0.0,3.0355,3.0866,3.119,0.0,3.1351,0.0,3.1511,3.1511,3.1511,3.1511,3.1511,3.1511,3.1511,3.1756,3.1968,3.2178,3.2578,3.306,3.3656,3.4243,3.4691,3.497,3.5245,3.5429,3.5543,3.5577,3.56,3.56,3.56,3.56,3.56,3.56,3.56,3.56,3.56,3.56,3.56,3.56,3.56,3.56,0.0,0.0,0.0,0.0,0.0,0.0,0.0,0.0,0.0,0.0,0.0,0.0,0.0,0.0,0.0,0.0,0.0,0.0,0.0,0.0,0.0,0.0,0.0,0.0,0.0,0.0,0.0,0.0,0.0,0.0,0.0,0.0,0.0,0.0,0.0,0.0,0.0,0.0,0.0,0.0,0.0,0.0,0.0,0.0,0.0,0.0,0.0,0.0,0.0,0.0,2.3108,2.3108,2.3108,2.3108,2.3108,2.3108,2.391,2.4788,2.4788,2.5624,2.6499,2.6499,2.6499,2.6521,2.6521,2.6568,2.6624,2.676,2.6829,2.7053,2.7743,2.8124,2.8643,2.9509,0.0,3.0417,3.0762,3.1087,3.1307,3.1307,3.1409,3.1511,3.1511,3.1511,3.1511,3.1511,3.1511,3.1539,3.1511,3.1826,3.2178,3.2535,3.3118,3.3797,3.4546,3.4851,3.5105,3.5331,3.5446,3.5543,3.56,3.56,3.56,3.56,3.56,3.56,3.56,3.56,3.56,3.56,3.56,3.56,3.56,3.56,3.56,3.56,0.0,0.0,0.0,0.0,0.0,0.0,0.0,0.0,0.0,0.0,0.0,0.0,0.0,0.0,0.0,0.0,0.0,0.0,0.0,0.0,0.0,0.0,0.0,0.0,0.0,0.0,0.0,0.0,0.0,0.0,0.0,0.0,0.0,0.0,0.0,0.0,0.0,0.0,0.0,0.0,0.0,0.0,0.0,0.0,0.0,0.0,0.0,0.0,0.0,0.0,2.3108,2.3108,2.3108,2.3108,2.3108,2.3108,2.391,2.4788,2.4788,2.5624,2.6499,2.6499,2.6589,2.6692,2.6692,2.693,0.0,2.7201,2.7423,2.7743,2.8124,2.8481,2.8949,2.9654,3.0068,3.0417,3.0762,3.1087,3.1307,0.0,3.1409,3.1511,3.1511,3.1511,0.0,0.0,3.167,3.167,3.1511,3.1826,3.2401,3.3277,3.3848,3.4349,3.4828,3.5198,3.5423,3.5469,3.5566,3.5577,3.56,3.56,3.56,3.56,3.56,3.56,3.56,3.56,3.56,3.56,3.56,3.56,3.56,3.56,3.56,3.56,0.0,0.0,0.0,0.0,0.0,0.0,0.0,0.0,0.0,0.0,1.4686,1.4222,0.0,0.0,0.0,0.0,0.0,0.0,0.0,0.0,0.0,0.0,0.0,0.0,0.0,0.0,1.8414,1.8414,0.0,0.0,0.0,1.8988,1.922,0.0,0.0,0.0,0.0,0.0,0.0,0.0,0.0,0.0,0.0,0.0,0.0,0.0,0.0,0.0,0.0,0.0,2.3288,2.3318,2.3168,2.3108,2.3108,2.3108,2.391,2.4788,2.4788,2.5624,2.6499,2.6499,2.6589,2.6714,2.685,0.0,0.0,2.7756,2.8006,2.8352,2.8949,2.931,0.0,3.0328,3.0643,3.0896,3.1117,3.1292,3.1409,3.1409,3.1467,3.1511,3.1511,3.1511,3.1511,3.1511,3.1698,3.1756,3.167,3.2206,3.2888,3.3668,3.43,3.4763,3.5088,3.5389,3.5549,3.5549,3.5577,3.56,3.56,3.56,3.56,3.56,3.56,3.56,3.56,3.56,3.56,3.56,3.56,3.56,3.56,3.56,3.56,3.56,0.0,0.0,0.0,0.0,0.0,0.0,0.0,1.541,1.541,1.5449,1.5342,1.4961,1.4279,1.4092,0.0,0.0,0.0,0.0,0.0,0.0,0.0,0.0,0.0,0.0,0.0,0.0,0.0,1.8975,1.9198,0.0,0.0,0.0,0.0,0.0,2.0184,0.0,0.0,0.0,0.0,0.0,0.0,0.0,0.0,0.0,0.0,0.0,0.0,0.0,0.0,0.0,2.3658,2.3704,2.3424,2.3275,2.3198,2.3198,2.4022,2.4917,2.4949,2.579,2.6692,2.6692,2.685,2.704,2.7229,2.761,0.0,2.8481,2.8739,2.9107,2.9839,3.0129,3.0433,0.0,3.119,3.1351,3.1467,3.1511,3.1511,0.0,3.1539,0.0,3.1568,3.1626,0.0,3.164,3.1896,3.2038,3.1968,3.2687,3.334,3.3924,3.457,3.5018,3.5291,3.5503,3.56,3.56,3.56,3.56,3.56,3.56,3.56,3.56,3.56,3.56,3.56,3.56,3.56,3.56,3.56,3.56,3.56,3.56,3.56,3.56,0.0,0.0,0.0,0.0,0.0,0.0,0.0,1.541,1.5478,1.5643,1.5507,1.542,1.5527,1.4989,0.0,0.0,0.0,0.0,0.0,0.0,0.0,0.0,0.0,0.0,0.0,0.0,0.0,1.955,1.9846,0.0,0.0,0.0,0.0,0.0,0.0,2.06,2.129,0.0,0.0,0.0,0.0,0.0,0.0,0.0,0.0,0.0,0.0,0.0,0.0,0.0,0.0,2.4234,2.4205,2.3897,2.3569,2.3569,0.0,0.0,2.5478,2.6369,2.7268,2.7403,2.7656,2.7941,2.8124,0.0,2.9202,2.9435,2.9839,3.0221,3.0477,3.0642,3.0836,3.1219,0.0,3.1351,3.1467,3.1511,3.1511,3.1511,0.0,0.0,3.1756,3.1981,3.2135,3.2135,3.2586,3.2788,3.2547,3.3011,3.3529,3.4075,3.4618,3.5018,3.5291,3.5503,3.56,3.56,3.56,3.56,3.56,3.56,3.56,3.56,3.56,3.56,3.56,3.56,3.56,3.56,3.56,3.56,3.56,3.56,3.56,3.56,0.0,0.0,0.0,0.0,0.0,0.0,0.0,1.5507,1.5633,1.5797,1.5884,1.6028,1.621,1.6085,1.5867,0.0,0.0,0.0,0.0,0.0,0.0,0.0,0.0,0.0,0.0,0.0,1.9554,1.9554,1.9881,0.0,0.0,0.0,0.0,0.0,0.0,2.0723,2.1015,0.0,0.0,0.0,0.0,0.0,0.0,0.0,0.0,0.0,0.0,0.0,2.465,0.0,0.0,0.0,2.4951,2.4823,0.0,0.0,2.4974,2.5923,2.5998,2.6841,2.7723,2.7776,2.8039,2.8352,2.8578,0.0,2.9685,2.9962,3.0312,3.0687,3.0955,3.1073,3.1176,3.138,0.0,0.0,3.1511,3.1511,3.1511,3.1511,3.167,0.0,0.0,0.0,3.2453,3.2765,3.3113,3.3419,3.361,3.3806,3.4126,3.457,3.4947,3.5222,3.5423,3.5549,3.56,3.56,3.56,3.56,3.56,3.56,3.56,3.56,3.56,3.56,3.56,3.56,3.56,3.56,3.56,3.56,3.56,3.56,3.56,3.56,0.0,0.0,0.0,0.0,0.0,0.0,1.541,1.5575,1.5788,1.5999,1.6257,1.6552,1.6825,1.7004,1.6853,1.6332,0.0,0.0,0.0,0.0,0.0,0.0,0.0,0.0,0.0,0.0,0.0,1.9807,2.0088,2.0191,0.0,0.0,2.0249,2.0245,0.0,0.0,0.0,0.0,0.0,0.0,0.0,0.0,0.0,0.0,0.0,0.0,0.0,0.0,0.0,0.0,0.0,0.0,0.0,0.0,0.0,0.0,2.5614,2.6587,2.6695,2.7575,2.8514,2.861,2.8835,2.9075,0.0,0.0,3.0237,3.0523,3.0821,3.1087,3.1322,3.1351,3.138,0.0,0.0,3.1511,3.1568,3.1597,3.1626,3.1697,0.0,3.2094,3.2274,3.2656,3.3113,3.361,3.3806,3.4126,3.457,3.4618,3.4756,3.4947,3.5222,3.5383,3.5492,3.5571,3.56,3.56,3.56,3.56,3.56,3.56,3.56,3.56,3.56,3.56,3.56,3.56,3.56,3.56,3.56,3.56,3.56,3.5644,3.5667,3.5667,0.0,0.0,0.0,0.0,0.0,0.0,0.0,1.5575,1.5846,1.6239,1.6581,1.6976,1.744,1.7623,1.7749,1.787,0.0,0.0,0.0,0.0,0.0,0.0,0.0,0.0,0.0,0.0,0.0,2.0488,2.0701,2.0532,2.001,2.0274,2.0124,1.9629,0.0,0.0,0.0,0.0,0.0,0.0,0.0,0.0,0.0,0.0,0.0,0.0,0.0,0.0,0.0,0.0,0.0,0.0,0.0,0.0,0.0,0.0,2.6254,2.7252,2.759,2.8591,2.9654,3.0007,3.019,3.0312,0.0,3.0807,3.1029,3.1248,3.1409,3.1511,3.1511,3.1511,3.1511,3.1511,3.1511,0.0,3.1756,3.1799,3.1898,0.0,0.0,3.2695,3.296,3.3646,3.425,3.4643,3.4804,3.4994,3.5268,3.5423,3.5377,3.5105,3.5377,3.5492,3.5492,3.5571,3.56,3.56,3.56,3.56,3.56,3.56,3.56,3.56,3.56,3.56,3.56,3.56,3.56,3.56,3.56,3.56,3.5622,3.5751,3.5795,3.5839,0.0,0.0,0.0,0.0,0.0,0.0,0.0,1.5807,1.6171,1.6712,1.7234,1.7744,1.8209,1.8441,1.8614,1.864,0.0,0.0,0.0,0.0,0.0,0.0,0.0,0.0,0.0,0.0,0.0,0.0,0.0,2.0434,2.0283,2.045,2.0463,2.0283,2.0372,2.0576,0.0,0.0,0.0,0.0,0.0,0.0,0.0,0.0,0.0,0.0,0.0,0.0,0.0,0.0,0.0,0.0,0.0,0.0,0.0,0.0,0.0,0.0,2.8354,2.9318,3.0312,3.0417,3.0538,3.0672,3.0732,3.0984,3.1219,3.1278,3.1409,3.1511,3.1511,3.1597,3.1698,3.1698,3.1769,0.0,0.0,0.0,0.0,3.2437,3.2915,3.3393,0.0,3.4184,3.4546,3.4947,3.5018,3.5152,3.5423,3.5469,3.5475,3.5441,3.5509,3.5571,3.5571,3.5577,3.56,3.56,3.56,3.56,3.56,3.56,3.56,3.56,3.56,3.56,3.56,3.56,3.56,3.56,3.56,3.5644,3.5751,3.5905,3.6019,3.617,0.0,0.0,0.0,0.0,0.0,0.0,0.0,1.6095,1.6513,1.7095,1.7678,1.8224,1.8694,1.8987,1.9158,1.9158,0.0,0.0,0.0,0.0,0.0,0.0,0.0,0.0,0.0,0.0,0.0,0.0,0.0,0.0,0.0,0.0,2.0759,2.0759,2.0858,0.0,0.0,0.0,0.0,0.0,0.0,0.0,2.5196,0.0,0.0,0.0,0.0,0.0,0.0,0.0,0.0,0.0,0.0,0.0,0.0,0.0,2.858,2.9384,0.0,3.0141,3.1131,3.1175,3.119,0.0,0.0,3.1336,3.1511,3.1511,3.164,3.1754,3.1754,3.1896,3.2025,3.2025,3.215,3.2259,0.0,0.0,0.0,3.3203,3.3704,0.0,3.4659,3.4804,3.4994,3.5274,3.5297,3.5367,3.552,3.5543,3.5549,3.56,3.56,3.56,3.56,3.56,3.56,3.56,3.56,3.56,3.56,3.5644,3.5684,3.5667,3.5734,3.5711,0.0,3.5684,3.5644,3.56,3.56,3.5667,3.5817,3.6041,3.6237,3.6451,0.0,0.0,0.0,0.0,0.0,0.0,0.0,0.0,0.0,0.0,1.8045,1.8521,1.8987,1.9277,1.942,0.0,0.0,0.0,0.0,0.0,0.0,0.0,0.0,0.0,0.0,0.0,0.0,2.0845,2.0883,2.0968,2.1091,0.0,0.0,2.1115,2.1385,0.0,0.0,0.0,0.0,0.0,0.0,0.0,0.0,0.0,0.0,0.0,0.0,0.0,0.0,0.0,0.0,0.0,0.0,0.0,0.0,0.0,0.0,0.0,0.0,3.1085,3.2094,3.2191,3.2038,3.1841,3.1841,3.1841,0.0,3.1841,3.2053,3.2247,3.2247,3.237,3.2453,3.2453,3.2574,3.2722,0.0,3.3124,0.0,0.0,3.4691,3.5018,3.5291,3.5423,3.552,3.56,3.56,3.56,3.56,3.56,3.56,3.56,3.56,3.56,3.56,3.56,3.56,3.56,3.56,3.5622,3.5622,3.5773,3.5817,3.5839,3.5954,3.5954,3.5839,3.5839,3.5756,3.5644,3.5644,3.5734,3.5905,3.6216,3.6471,3.6736,0.0,0.0,0.0,0.0,0.0,0.0,0.0,0.0,0.0,0.0,0.0,1.8987,1.9396,1.9604,0.0,0.0,0.0,0.0,0.0,0.0,0.0,0.0,0.0,0.0,0.0,0.0,0.0,2.1264,2.1674,2.1888,2.1921,2.2072,0.0,0.0,0.0,2.2535,2.2793,0.0,0.0,0.0,0.0,0.0,0.0,0.0,0.0,0.0,2.8535,2.8535,0.0,0.0,0.0,0.0,0.0,0.0,0.0,0.0,3.0259,3.1662,3.1566,0.0,3.2586,3.252,3.2465,3.2398,0.0,0.0,0.0,0.0,0.0,3.2547,3.2641,3.2857,3.3007,3.3007,3.3245,3.3497,3.3626,3.3958,3.4382,3.4835,3.4994,3.5175,3.5423,3.5469,3.552,3.56,3.56,3.56,3.56,3.56,3.56,3.56,3.56,3.56,3.56,3.56,3.56,3.56,3.5689,3.5751,3.5773,3.5993,3.6118,3.6101,3.6191,3.6216,3.6174,3.6174,3.6152,3.6131,3.6131,3.6259,3.643,3.6678,3.7032,3.7411,0.0,0.0,0.0,0.0,0.0,0.0,0.0,0.0,0.0,0.0,0.0,0.0,0.0,0.0,0.0,0.0,0.0,0.0,0.0,0.0,0.0,0.0,0.0,0.0,0.0,0.0,0.0,0.0,0.0,2.2563,0.0,0.0,0.0,0.0,0.0,2.3428,2.3709,2.3815,0.0,0.0,2.5843,0.0,0.0,0.0,0.0,0.0,2.9196,2.9143,0.0,2.9173,2.9196,2.9219,0.0,0.0,0.0,0.0,3.0638,3.1802,3.2213,3.2861,3.3361,3.3324,3.3071,3.2873,3.2792,0.0,0.0,0.0,0.0,3.3324,3.3387,3.3636,3.379,3.379,3.4009,3.4226,3.4423,3.4691,3.497,3.5245,3.5297,3.5389,3.5526,3.5543,3.5549,3.56,3.56,3.56,3.56,3.56,3.56,3.56,3.5667,3.5667,3.56,3.56,3.5622,3.5689,3.5839,3.5932,3.6041,3.6339,3.6489,3.653,3.6655,3.6658,3.6577,3.6577,3.6533,3.6447,3.6447,3.6553,3.6759,3.6958,3.732,3.7721,0.0,0.0,0.0,0.0,0.0,0.0,0.0,0.0,0.0,0.0,0.0,0.0,0.0,0.0,0.0,0.0,0.0,0.0,0.0,0.0,0.0,0.0,0.0,0.0,0.0,0.0,0.0,0.0,0.0,0.0,0.0,0.0,2.358,0.0,2.3943,2.423,2.4508,2.4558,2.4826,0.0,2.6654,0.0,0.0,0.0,0.0,0.0,0.0,0.0,0.0,2.9853,2.9919,2.9941,3.0172,0.0,0.0,0.0,0.0,0.0,3.2564,3.3442,3.4153,3.4193,3.3806,3.3413,3.3387,0.0,0.0,0.0,0.0,3.4201,3.4226,3.4423,3.4594,3.4594,3.4691,3.4875,3.5128,3.5268,3.5377,3.5514,3.5571,3.56,3.56,3.56,3.56,3.56,3.56,3.56,3.56,3.56,3.56,3.5622,3.5773,3.5795,3.5689,3.5667,3.5734,3.5861,3.6014,3.6191,3.6406,3.6736,3.6917,3.6997,3.7189,3.7189,3.7036,3.7036,3.6956,3.6779,3.6779,3.6898,3.7094,3.7265,3.7578,3.7931,0.0,0.0,0.0,0.0,0.0,0.0,0.0,0.0,0.0,0.0,0.0,0.0,0.0,0.0,0.0,0.0,0.0,0.0,0.0,0.0,0.0,0.0,0.0,0.0,0.0,0.0,0.0,0.0,0.0,0.0,2.4114,2.4276,2.4451,2.4668,2.4724,2.4997,2.54,2.54,2.5907,2.6755,2.7647,0.0,0.0,0.0,0.0,0.0,0.0,0.0,0.0,3.0384,3.0384,3.0405,3.0426,0.0,0.0,0.0,0.0,0.0,3.3004,3.3728,3.4324,3.455,3.4546,3.4431,3.4349,3.4284,0.0,0.0,0.0,0.0,0.0,3.4899,3.4994,3.4994,3.5128,3.5268,3.5423,3.5446,3.5498,3.5594,3.56,3.56,3.56,3.56,3.56,3.56,3.56,3.56,3.56,3.56,3.5644,3.5773,3.5905,3.5997,3.6101,3.6014,3.6014,3.6122,3.6335,3.6527,3.6736,3.7131,3.7357,3.7432,3.7632,3.7685,3.7667,3.7667,3.765,3.7614,3.7614,3.7685,3.7844,3.7931,3.8118,3.8334,0.0,0.0,0.0,0.0,0.0,0.0,0.0,0.0,0.0,0.0,0.0,0.0,0.0,0.0,0.0,0.0,0.0,0.0,0.0,0.0,0.0,0.0,0.0,0.0,0.0,0.0,0.0,0.0,0.0,2.4538,2.4619,2.495,2.5224,2.5438,2.5478,2.5607,2.5842,2.6327,2.6782,2.7328,0.0,0.0,0.0,0.0,0.0,0.0,0.0,0.0,0.0,0.0,3.0773,3.0794,3.0855,0.0,0.0,0.0,0.0,0.0,3.3136,3.3862,3.4526,3.5073,3.5048,3.4899,3.4851,3.4811,0.0,0.0,0.0,0.0,0.0,0.0,3.5373,3.5373,3.5435,3.5481,3.5566,3.5549,3.5571,3.56,3.56,3.56,3.56,3.56,3.56,3.56,3.56,3.56,3.56,3.5667,3.5773,3.5888,3.6127,3.636,3.6509,3.6571,3.653,3.6423,3.6693,3.6972,3.7242,3.7577,3.7792,3.7949,3.8068,3.8103,3.807,3.807,3.8035,3.7966,3.7966,3.8052,3.8171,3.8285,3.8364,3.8478,0.0,0.0,0.0,0.0,0.0,0.0,0.0,0.0,0.0,0.0,0.0,0.0,0.0,0.0,0.0,0.0,0.0,0.0,0.0,0.0,0.0,0.0,0.0,0.0,0.0,0.0,2.4508,2.4706,2.4954,2.5114,2.5173,2.5551,2.5828,0.0,2.6063,2.6199,2.6452,2.7123,2.7629,2.8139,0.0,0.0,0.0,0.0,0.0,0.0,0.0,0.0,0.0,0.0,0.0,0.0,0.0,0.0,0.0,3.1213,3.1738,3.2462,3.3203,3.3931,3.4675,3.5414,0.0,3.5228,3.5228,3.5228,0.0,0.0,0.0,0.0,0.0,3.5571,3.56,3.56,3.56,3.56,3.56,3.56,3.56,3.56,3.56,3.56,3.56,3.56,3.56,3.56,3.5622,3.5644,3.5644,3.5817,3.5971,3.6105,3.6444,3.6713,3.6935,3.7185,3.711,3.6796,3.7091,3.7393,3.7703,3.7966,3.8188,3.8354,3.8433,3.8451,3.8389,3.8389,3.8338,3.8236,3.8236,3.8303,3.8405,3.8512,3.8559,3.8559,0.0,0.0,0.0,0.0,0.0,0.0,0.0,0.0,0.0,0.0,0.0,0.0,0.0,0.0,0.0,0.0,0.0,0.0,0.0,0.0,0.0,0.0,0.0,0.0,0.0,2.4675,2.4954,2.5339,2.5473,2.568,2.5919,2.6082,2.6206,2.6278,2.6278,2.6767,2.758,2.7649,2.8544,2.9918,3.008,0.0,0.0,0.0,0.0,0.0,0.0,0.0,0.0,0.0,0.0,0.0,0.0,0.0,3.1295,3.1295,3.176,3.2462,3.3203,3.3931,3.4675,3.5414,3.5577,3.5577,3.5577,3.5577,0.0,3.5577,0.0,0.0,0.0,3.56,3.56,3.56,3.56,3.56,3.56,3.56,3.56,3.56,3.56,3.56,3.56,3.56,3.56,3.56,3.5728,3.5795,3.5795,3.6036,3.6251,3.6461,3.6736,3.7034,3.7339,3.7667,3.7667,3.7339,3.7559,3.7774,3.7984,3.8252,3.8415,3.8494,3.8609,3.8692,3.8676,3.8676,3.8676,3.8676,3.8676,3.8658,3.8676,3.8673,3.8692,3.8692,0.0,0.0,0.0,0.0,0.0,0.0,0.0,0.0,0.0,0.0,0.0,0.0,0.0,0.0,0.0,0.0,0.0,0.0,0.0,0.0,0.0,0.0,0.0,2.5495,2.5476,2.54,2.5476,2.5715,2.5919,2.6154,2.6365,2.6434,0.0,0.0,2.7026,2.7483,2.7945,2.8859,2.968,3.039,3.0887,3.1322,0.0,0.0,0.0,0.0,0.0,0.0,0.0,0.0,3.154,3.1504,0.0,3.1502,3.1406,3.1315,3.21,3.3034,3.3322,3.4286,3.5245,3.5532,3.56,0.0,0.0,3.56,3.56,3.56,3.56,0.0,0.0,0.0,3.56,3.56,3.56,3.56,3.56,3.56,3.56,3.56,3.56,3.56,3.56,3.56,3.56,3.56,3.5711,3.5839,3.591,3.6255,3.655,3.6756,3.7169,3.7523,3.7774,3.8019,3.8122,3.8034,3.807,3.8138,3.8252,3.8399,3.8528,3.8624,3.8673,3.8707,3.8707,3.8707,3.8707,3.8707,3.8707,3.8707,3.8707,3.8707,3.8707,3.8707,0.0,0.0,0.0,0.0,0.0,0.0,0.0,0.0,0.0,0.0,0.0,0.0,0.0,0.0,0.0,0.0,0.0,0.0,0.0,0.0,0.0,0.0,0.0,2.6063,2.6136,2.6048,2.603,2.6063,2.6313,2.6487,2.6623,0.0,0.0,0.0,0.0,0.0,0.0,2.9911,3.0585,3.1006,3.1578,3.1894,0.0,0.0,0.0,0.0,0.0,0.0,0.0,0.0,3.1802,3.1765,0.0,0.0,0.0,3.1833,3.267,3.3603,3.3757,3.4762,3.5711,3.5667,0.0,0.0,3.5734,3.5667,3.56,3.56,3.56,3.56,3.56,0.0,0.0,3.56,3.56,3.56,3.56,3.56,3.56,3.56,3.56,3.56,3.56,3.5644,3.5667,3.5667,3.5905,3.6062,3.6174,3.6615,3.6937,3.715,3.7595,3.7914,3.8119,3.8287,3.8419,3.8496,3.8453,3.8435,3.843,3.8528,3.8609,3.8707,3.8707,3.8707,3.8707,3.8707,3.8707,3.8707,3.8707,3.8707,3.8707,3.8707,3.8707,3.8707,0.0,0.0,0.0,0.0,0.0,0.0,0.0,0.0,0.0,0.0,0.0,0.0,0.0,0.0,0.0,0.0,0.0,0.0,0.0,0.0,0.0,0.0,0.0,2.6348,2.6401,2.6607,2.6607,2.6401,2.6607,2.6708,2.6708,2.6708,0.0,0.0,0.0,0.0,0.0,0.0,3.1182,3.193,3.2197,3.2301,3.2335,0.0,0.0,0.0,0.0,0.0,0.0,0.0,3.2214,3.2126,0.0,0.0,0.0,3.292,3.3475,3.4014,3.4559,3.5347,3.5975,3.5839,0.0,0.0,3.6036,3.58,3.56,3.56,3.56,3.56,3.56,3.56,0.0,3.56,3.56,3.56,3.56,3.56,3.56,3.56,3.56,3.56,3.56,3.5711,3.5795,3.5795,3.6251,3.6527,3.6594,3.7111,3.7504,3.7703,3.7966,3.8185,3.8399,3.8478,3.8575,3.8707,3.8707,3.8624,3.851,3.8643,3.8707,3.8707,3.8707,3.8707,3.8707,3.8707,3.8707,3.8707,3.8707,3.8707,3.8707,3.8707,3.8707,3.8707,0.0,0.0,0.0,0.0,0.0,0.0,0.0,0.0,0.0,0.0,0.0,0.0,0.0,0.0,0.0,0.0,0.0,0.0,0.0,0.0,0.0,0.0,0.0,0.0,0.0,0.0,2.7103,2.6891,2.7005,2.7053,0.0,0.0,0.0,2.8337,0.0,0.0,0.0,0.0,3.209,3.2535,3.2619,3.2765,3.2941,0.0,0.0,0.0,0.0,0.0,0.0,0.0,0.0,0.0,3.257,0.0,0.0,3.3177,3.3725,3.4273,3.4993,3.569,3.6216,3.6276,0.0,0.0,0.0,3.6187,0.0,0.0,3.5667,3.56,3.56,3.56,3.56,3.56,3.56,3.56,3.56,3.56,3.56,3.56,3.5667,3.5751,3.5751,3.5949,3.6101,3.6148,3.6509,3.6794,3.6935,3.7431,3.7756,3.7915,3.8218,3.8396,3.8478,3.8575,3.8658,3.8707,3.8707,3.8673,3.8643,3.8673,3.8707,3.8707,3.8707,3.8707,3.8707,3.8707,3.8707,3.8707,3.8707,3.8707,3.8707,3.8707,3.8707,3.8707,0.0,0.0,0.0,0.0,0.0,0.0,0.0,0.0,0.0,0.0,0.0,0.0,0.0,0.0,0.0,0.0,0.0,0.0,0.0,0.0,0.0,0.0,0.0,0.0,0.0,2.7509,2.7612,0.0,0.0,0.0,0.0,0.0,0.0,2.9549,0.0,3.1268,0.0,0.0,3.2734,3.297,3.305,3.3157,3.3309,0.0,0.0,0.0,0.0,0.0,0.0,0.0,0.0,0.0,3.2959,0.0,0.0,3.3932,3.4411,3.4789,3.5739,3.6327,3.6676,3.6673,3.6776,3.6876,3.6814,0.0,0.0,0.0,3.5689,3.56,3.56,3.56,3.56,3.56,3.5644,3.5667,3.5667,3.5756,3.5822,3.5822,3.5932,3.6019,3.6062,3.6297,3.6468,3.6516,3.6917,3.7225,3.7375,3.7809,3.8085,3.8203,3.8449,3.8575,3.8575,3.8658,3.8707,3.8707,3.8707,3.8707,3.8707,3.8707,3.8707,3.8707,3.8707,3.8707,3.8707,3.8707,3.8707,3.8707,3.8707,3.8707,3.8707,3.8707,3.8707,3.8707,0.0,0.0,0.0,0.0,0.0,0.0,0.0,0.0,0.0,0.0,0.0,0.0,0.0,0.0,0.0,0.0,0.0,0.0,0.0,0.0,0.0,0.0,0.0,0.0,0.0,0.0,0.0,0.0,0.0,0.0,0.0,0.0,2.9758,3.1274,0.0,3.193,3.286,3.299,3.3114,3.3265,3.343,3.352,3.3534,3.3657,0.0,0.0,0.0,0.0,0.0,0.0,0.0,0.0,3.3393,3.3367,3.3602,3.4973,3.5341,3.558,3.6706,3.7113,3.7208,3.7036,3.7265,3.7469,3.7282,3.6638,3.6041,3.5861,0.0,3.56,3.56,3.56,3.5622,3.5622,3.5734,3.5839,3.5839,3.6058,3.6247,3.6247,3.6318,3.6406,3.6527,3.6716,3.6878,3.6958,3.745,3.7774,3.7844,3.8201,3.843,3.851,3.8624,3.8707,3.8707,3.8707,3.8707,3.8707,3.8707,3.8707,3.8707,3.8707,3.8707,3.8707,3.8707,3.8707,3.8707,3.8707,3.8707,3.8707,3.8707,3.8707,3.8707,3.8707,3.8707,3.8723,0.0,0.0,0.0,0.0,0.0,0.0,0.0,0.0,0.0,0.0,0.0,0.0,0.0,0.0,0.0,0.0,0.0,0.0,0.0,0.0,0.0,0.0,0.0,0.0,0.0,0.0,0.0,0.0,0.0,0.0,0.0,0.0,0.0,3.1777,0.0,3.2952,3.3286,3.336,3.3459,3.3601,3.3643,3.3684,3.3739,3.3766,3.3739,0.0,0.0,0.0,0.0,0.0,0.0,0.0,3.3549,3.3924,3.4555,3.5509,3.6103,3.6638,3.7522,3.7721,0.0,3.7756,3.7792,3.7775,3.7558,3.711,3.6597,3.6208,3.5822,3.56,3.56,3.5706,3.5773,3.5773,3.5949,3.6122,3.6191,3.6339,3.6461,3.6509,3.6676,3.6781,3.6818,3.7132,3.7413,3.7523,3.7827,3.8069,3.8189,3.8366,3.8494,3.851,3.8624,3.8707,3.8707,3.8707,3.8707,3.8707,3.8707,3.8707,3.8707,3.8707,3.8707,3.8707,3.8707,3.8707,3.8707,3.8707,3.8707,3.8707,3.8707,3.8707,3.8707,3.8707,3.8735,3.8777,0.0,0.0,0.0,0.0,0.0,0.0,0.0,0.0,0.0,0.0,0.0,0.0,0.0,0.0,0.0,0.0,0.0,0.0,0.0,0.0,0.0,0.0,0.0,0.0,0.0,0.0,0.0,0.0,0.0,0.0,0.0,0.0,0.0,3.2683,0.0,3.3433,3.3549,3.3577,3.3643,3.3753,3.3753,3.378,3.3807,3.3807,3.378,3.3753,3.3753,0.0,0.0,0.0,0.0,0.0,0.0,0.0,3.4998,3.5775,3.6482,3.7203,3.7937,3.8119,0.0,3.8201,0.0,3.7967,3.7862,3.7431,3.6976,3.6693,3.6259,3.5937,3.5937,3.598,3.6062,3.6105,3.6339,3.6509,3.6594,3.6799,3.6995,3.7017,3.7208,3.7358,3.7414,3.765,3.7826,3.7984,3.8186,3.8318,3.8385,3.8512,3.8609,3.8609,3.8658,3.8707,3.8707,3.8707,3.8707,3.8707,3.8707,3.8723,3.875,3.875,3.875,3.875,3.8825,3.8837,3.8855,3.8881,3.8896,3.8896,3.8896,3.8896,3.8896,3.8896,3.8906,3.895,0.0,0.0,0.0,0.0,0.0,0.0,0.0,0.0,0.0,0.0,0.0,0.0,0.0,0.0,0.0,0.0,0.0,0.0,0.0,0.0,0.0,0.0,0.0,0.0,0.0,0.0,0.0,0.0,0.0,0.0,0.0,0.0,0.0,3.3549,0.0,3.3601,3.3712,3.3712,3.3753,3.3807,3.3807,3.3807,3.3807,3.3807,3.3807,3.3807,3.3807,3.3807,3.3807,3.3807,0.0,0.0,0.0,0.0,3.5375,3.612,3.6915,3.7671,3.8223,3.8403,3.8465,3.851,3.8348,0.0,3.8152,3.7739,3.7339,3.7262,3.6776,3.6364,3.6364,3.6367,3.6447,3.6547,3.6774,3.6937,3.7017,3.7358,3.7596,3.7596,3.7774,3.7932,3.8035,3.8118,3.8219,3.8322,3.8465,3.8525,3.8525,3.8643,3.8707,3.8707,3.8707,3.8707,3.8707,3.8707,3.8707,3.8707,3.8704,3.8765,3.8837,3.8848,3.8862,3.8848,3.8979,3.9036,3.9064,3.9115,3.9124,3.9124,3.9124,3.9124,3.9124,3.9124,3.9156,3.9183,0.0,0.0,0.0,0.0,0.0,0.0,0.0,0.0,0.0,0.0,0.0,0.0,0.0,0.0,0.0,0.0,0.0,0.0,2.7326,0.0,0.0,2.8445,2.9246,0.0,0.0,0.0,0.0,0.0,0.0,0.0,0.0,0.0,0.0,3.3766,0.0,0.0,3.3793,3.3793,3.3775,3.3807,3.3807,3.3807,3.3807,3.3807,3.3807,3.3807,3.3807,3.3807,3.3807,3.3807,3.3807,0.0,0.0,0.0,3.6285,3.7074,3.7885,3.853,3.8624,0.0,3.8658,0.0,3.8559,3.8428,0.0,0.0,3.7966,3.7879,3.7169,3.6553,3.6553,3.6698,3.6821,3.6841,3.717,3.745,3.7577,3.7792,3.7948,3.7999,3.8154,3.8239,3.8256,3.8366,3.8444,3.8478,3.8593,3.8673,3.8673,3.8692,3.8707,3.8707,3.8707,3.8707,3.8707,3.8707,3.8707,3.8707,3.8765,3.8851,3.8983,3.9087,3.9115,3.9059,3.9142,3.921,3.9259,3.9272,3.9272,3.9272,3.9272,3.9272,3.9272,3.9272,3.935,3.9452,0.0,0.0,0.0,0.0,0.0,0.0,0.0,0.0,0.0,0.0,0.0,0.0,0.0,0.0,0.0,2.7006,2.7168,2.745,2.7821,2.8612,2.9129,2.9328,3.0206,3.0728,0.0,0.0,0.0,0.0,0.0,0.0,0.0,3.3873,3.3847,0.0,0.0,0.0,0.0,0.0,3.3807,3.3807,3.3807,3.3807,3.3807,3.3807,3.3807,3.3807,3.3807,3.41,3.4472,3.4472,3.4798,3.5257,3.5624,0.0,0.0,0.0,3.8065,3.8707,3.8707,3.8707,3.8707,0.0,3.8609,3.8476,3.8462,3.8318,3.8204,3.8154,3.7774,3.7395,3.7283,3.7339,3.7414,3.7505,3.7703,3.7879,3.8019,3.817,3.8283,3.8316,3.8433,3.8517,3.8517,3.8596,3.8609,3.8609,3.8658,3.8707,3.8707,3.8707,3.8707,3.8707,3.8707,3.8707,3.8707,3.8735,3.8792,3.8866,3.8935,3.9059,3.9224,3.935,3.9363,3.929,3.9452,3.9575,3.9647,3.9679,3.9683,3.9683,3.9683,3.9683,3.9683,3.9683,3.9717,3.9791,0.0,0.0,0.0,0.0,0.0,0.0,0.0,0.0,0.0,0.0,0.0,0.0,0.0,0.0,0.0,0.0,2.7463,2.7848,2.8541,2.9521,3.0158,3.033,3.1186,3.1671,3.1734,0.0,0.0,0.0,0.0,0.0,3.3947,3.3947,3.3908,0.0,3.3829,0.0,0.0,0.0,0.0,0.0,0.0,3.3842,0.0,3.3829,3.3834,3.3852,3.4045,3.4491,3.5041,3.5261,3.5771,3.634,3.6541,3.7015,0.0,0.0,0.0,3.8707,0.0,0.0,3.8707,3.8707,3.8624,3.8559,0.0,0.0,3.8405,3.8405,3.832,3.8203,3.8069,3.7966,3.7966,3.807,3.8153,3.8236,3.8338,3.8465,3.8559,3.8559,3.8643,3.8707,3.8707,3.8707,3.8707,3.8707,3.8707,3.8707,3.8707,3.8707,3.8707,3.8707,3.8723,3.8738,3.8738,3.8837,3.895,3.9106,3.917,3.9311,3.9526,3.9647,3.967,3.9616,3.9804,3.9914,3.9969,4.0031,4.0042,4.0042,4.0042,4.0042,4.0042,4.0042,4.0052,4.0072,0.0,0.0,0.0,0.0,0.0,0.0,0.0,0.0,0.0,0.0,0.0,0.0,0.0,2.7373,2.7448,2.7657,2.7745,2.8305,2.9543,3.0566,3.1164,3.1234,3.2131,0.0,3.263,0.0,0.0,0.0,0.0,0.0,3.4086,3.4086,3.4049,3.3985,3.3921,3.3895,3.3895,0.0,0.0,0.0,0.0,0.0,0.0,0.0,3.3895,0.0,0.0,3.4954,3.5133,3.5954,3.6266,3.6431,3.7199,3.7474,3.7658,0.0,0.0,0.0,0.0,3.8707,0.0,3.8707,3.8692,3.8692,0.0,0.0,3.8692,3.8692,3.8658,3.8676,3.8661,3.8453,3.829,3.8272,3.8401,3.8494,3.8494,3.8609,3.8692,3.8692,3.8692,3.8707,3.8707,3.8707,3.8707,3.8707,3.8707,3.8707,3.8707,3.8707,3.8707,3.8707,3.8747,3.8792,3.8792,3.8993,3.9178,3.9376,3.9452,3.9623,3.9881,3.9954,4.0049,4.0167,4.0099,4.0118,4.0187,4.0196,4.0196,4.0196,4.0196,4.0196,4.0196,4.0196,4.0233,4.0279,0.0,0.0,0.0,0.0,0.0,0.0,0.0,0.0,0.0,0.0,0.0,0.0,0.0,2.8247,2.8708,2.8781,2.944,3.0098,3.068,3.1594,3.2168,3.2324,3.3142,3.3648,3.3734,0.0,0.0,0.0,0.0,3.4461,3.4351,3.4305,3.4257,3.4185,3.4074,3.4036,3.4036,3.4099,0.0,0.0,0.0,0.0,0.0,0.0,0.0,0.0,0.0,0.0,3.6842,3.7156,3.7618,3.8083,0.0,0.0,0.0,0.0,0.0,0.0,0.0,0.0,0.0,3.8707,3.8707,3.8707,3.8707,3.8707,3.8707,3.8707,3.8707,3.8707,3.8707,3.863,3.8567,3.8567,3.8596,3.8624,3.8624,3.8658,3.8707,3.8707,3.8707,3.8707,3.8707,3.8707,3.8707,3.8707,3.8707,3.8707,3.8707,3.8707,3.8719,3.8747,3.8837,3.8964,3.9178,3.9298,3.9489,3.9717,3.9792,3.9916,4.01,4.0158,4.0271,4.0396,4.0372,4.0381,4.0388,4.0383,4.04,4.04,4.04,4.04,4.04,4.04,4.0408,4.0425,0.0,0.0,0.0,0.0,0.0,0.0,0.0,0.0,0.0,0.0,0.0,0.0,0.0,0.0,2.9928,2.9998,3.0935,3.1616,3.1795,3.2612,3.3173,3.3363,3.393,3.4281,3.4404,0.0,0.0,0.0,0.0,0.0,0.0,3.4564,3.4509,3.4435,3.439,3.4321,0.0,0.0,0.0,3.4773,0.0,0.0,3.5235,0.0,0.0,0.0,0.0,0.0,0.0,3.8191,3.8641,0.0,0.0,0.0,0.0,0.0,0.0,0.0,3.8825,0.0,0.0,0.0,3.8735,3.8719,3.8707,3.8707,3.8707,3.8707,3.8707,3.8707,3.8707,3.8707,3.8707,3.8707,3.8707,3.8707,3.8707,3.8707,3.8707,3.8707,3.8707,3.8707,3.8707,3.8707,3.8707,3.8707,3.8707,3.8723,3.8735,3.8735,3.881,3.8935,3.9017,3.9224,3.9526,3.9623,3.9785,4.0,4.007,4.0158,4.0297,4.0342,4.0413,4.0507,4.0507,4.0507,4.0487,4.05,4.0496,4.0496,4.0496,4.0496,4.0496,4.0496,4.0496,4.0496,0.0,0.0,0.0,0.0,0.0,0.0,0.0,0.0,0.0,0.0,0.0,0.0,0.0,0.0,0.0,3.1248,3.2104,3.2704,3.2841,3.3642,3.4173,3.4305,3.445,3.4539,3.4604,0.0,0.0,0.0,0.0,0.0,0.0,0.0,3.4773,3.4733,3.4851,3.4811,3.4653,0.0,3.5197,3.5913,0.0,3.6344,3.7096,0.0,0.0,0.0,3.7784,3.8039,0.0,3.9037,0.0,0.0,0.0,0.0,0.0,0.0,0.0,0.0,0.0,0.0,0.0,0.0,0.0,0.0,3.8723,0.0,3.8707,3.8707,3.8707,3.8707,3.8707,3.8707,3.8707,3.8707,3.8707,3.8707,3.8707,3.8707,3.8707,3.8707,3.8707,3.8707,3.8707,3.8707,3.8707,3.8707,3.8707,3.8735,3.8807,3.8822,3.8935,3.9197,3.9356,3.9539,3.9815,3.9954,4.007,4.0214,4.027,4.0379,4.0502,4.0502,4.0495,4.0496,4.0496,4.0496,4.0496,4.0496,4.0496,4.0496,4.0496,4.0496,4.0496,4.0496,4.0496,4.0496,0.0,0.0,0.0,0.0,0.0,0.0,0.0,0.0,0.0,0.0,0.0,0.0,0.0,0.0,3.2354,3.3086,3.3416,3.3691,3.3875,3.4197,3.4476,3.4651,3.4742,3.4841,3.4963,0.0,0.0,0.0,0.0,0.0,0.0,0.0,0.0,0.0,3.5089,3.5431,3.5966,3.5837,0.0,3.6174,3.6723,3.7102,0.0,0.0,0.0,0.0,0.0,3.9277,3.9403,0.0,3.9682,3.9693,0.0,0.0,0.0,0.0,0.0,0.0,3.9245,0.0,0.0,0.0,0.0,0.0,3.8792,3.8762,3.8765,3.8723,3.8707,3.8707,3.8707,3.8707,3.8707,3.8707,3.8707,3.8707,3.8707,3.8707,3.8707,3.8707,3.8707,3.8707,3.8707,3.875,3.8762,3.8762,3.8866,3.8925,3.8935,3.9129,3.9311,3.9477,3.9705,3.9922,4.0087,4.0177,4.028,4.0413,4.0441,4.0455,4.0492,4.0492,4.05,4.0496,4.0496,4.0496,4.0496,4.0496,4.0496,4.0496,4.0496,4.0496,4.0496,4.0496,4.0496,4.0496,0.0,0.0,0.0,0.0,0.0,0.0,0.0,0.0,0.0,0.0,0.0,0.0,0.0,0.0,0.0,3.3935,3.4074,3.4221,3.4461,3.458,3.471,3.4917,3.4954,3.5054,3.5174,0.0,0.0,0.0,0.0,0.0,0.0,0.0,0.0,0.0,0.0,0.0,0.0,0.0,0.0,0.0,3.7899,0.0,0.0,3.9057,3.9226,0.0,0.0,0.0,3.9979,3.9967,3.9965,0.0,0.0,0.0,0.0,0.0,0.0,0.0,0.0,0.0,0.0,0.0,0.0,0.0,3.9007,3.895,3.8906,3.8862,3.8866,3.8851,3.884,3.8825,3.8825,3.8795,3.878,3.8765,3.8707,3.8707,3.8707,3.8707,3.8707,3.8723,3.8735,3.8792,3.8862,3.8921,3.9021,3.9115,3.921,3.9464,3.9647,3.977,3.9977,4.0158,4.0281,4.0353,4.0422,4.0495,4.0495,4.0511,4.0496,4.0496,4.0496,4.0496,4.0496,4.0496,4.0496,4.0496,4.0496,4.0496,4.0496,4.0496,4.0496,4.0496,4.0496,4.0496,0.0,0.0,0.0,0.0,0.0,0.0,0.0,0.0,0.0,0.0,0.0,0.0,0.0,0.0,0.0,0.0,3.4245,3.4431,3.4708,3.478,0.0,3.5119,3.5124,3.519,3.5327,0.0,0.0,0.0,0.0,0.0,0.0,0.0,0.0,0.0,0.0,0.0,0.0,0.0,0.0,3.9242,3.9179,3.9583,0.0,0.0,4.012,4.012,4.012,4.0148,4.0148,4.0215,4.0147,0.0,0.0,0.0,0.0,0.0,4.0032,0.0,0.0,0.0,0.0,0.0,3.9502,0.0,3.9277,3.9197,3.9142,3.9129,3.9129,3.9101,3.905,3.9021,3.8993,3.8935,3.8921,3.8896,3.875,3.8719,3.8753,3.8735,3.8735,3.8765,3.8837,3.8892,3.9007,3.9129,3.9205,3.9363,3.9556,3.9807,3.9967,4.0027,4.0168,4.0288,4.0413,4.0474,4.0495,4.0496,4.0496,4.0496,4.0496,4.0496,4.0496,4.0496,4.0496,4.0496,4.0496,4.0496,4.0496,4.0496,4.0496,4.0496,4.0496,4.0496,4.0496,4.0496,0.0,0.0,0.0,0.0,0.0,0.0,0.0,0.0,0.0,0.0,0.0,0.0,0.0,0.0,0.0,0.0,0.0,3.4636,3.485,3.4963,3.5115,3.5254,3.53,3.5383,3.5465,0.0,0.0,0.0,0.0,0.0,0.0,0.0,0.0,0.0,0.0,0.0,0.0,0.0,0.0,4.0218,4.0155,4.0227,4.0362,4.0353,4.0344,4.0344,4.0344,4.0379,4.0413,4.0432,4.0389,4.0317,0.0,0.0,0.0,4.0252,0.0,0.0,0.0,0.0,0.0,0.0,3.9859,0.0,3.9502,3.9439,3.9401,3.9285,3.9259,3.9259,3.9245,3.9197,3.9156,3.9142,3.9129,3.9087,3.8968,3.8939,3.895,3.9021,3.9017,3.9017,3.9031,3.9137,3.9245,3.9337,3.9599,3.984,3.9981,4.0081,4.0167,4.0252,4.037,4.0458,4.0474,4.0495,4.0508,4.0496,4.0496,4.0496,4.0496,4.0496,4.0496,4.0496,4.0496,4.0496,4.0496,4.0496,4.0496,4.0496,4.0496,4.0496,4.0496,4.0496,4.0496,4.0496,0.0,0.0,0.0,0.0,0.0,0.0,0.0,0.0,0.0,0.0,0.0,0.0,0.0,0.0,0.0,0.0,0.0,0.0,0.0,0.0,3.5851,3.599,3.6415,3.6675,3.675,3.6757,0.0,0.0,0.0,0.0,0.0,0.0,0.0,0.0,0.0,0.0,0.0,0.0,4.0131,4.0489,4.046,0.0,4.0444,4.0444,4.0444,4.0444,4.0444,4.0463,4.0502,4.0502,4.0468,0.0,4.0441,4.0449,4.0449,0.0,4.0392,4.0383,0.0,0.0,0.0,4.0168,4.0099,0.0,0.0,3.9769,3.9736,3.9648,3.9648,3.9644,3.9623,3.9575,3.9526,3.9464,3.9452,3.9452,3.9452,3.929,3.917,3.921,3.9192,3.9219,3.9298,3.9389,3.9526,3.9735,3.9977,4.0139,4.0186,4.0307,4.0379,4.0396,4.0463,4.0495,4.0495,4.05,4.0496,4.0496,4.0496,4.0496,4.0496,4.0496,4.0496,4.0496,4.0496,4.0496,4.0496,4.0496,4.0496,4.0496,4.0496,4.0496,4.0496,4.0496,4.0496,4.0496,3.3605,0.0,0.0,0.0,0.0,0.0,0.0,0.0,0.0,0.0,0.0,0.0,0.0,0.0,0.0,0.0,0.0,0.0,0.0,0.0,3.683,3.6956,3.7578,3.7939,3.8007,3.8007,3.8007,0.0,0.0,0.0,0.0,0.0,0.0,0.0,0.0,0.0,0.0,0.0,0.0,4.0496,4.0496,4.0496,4.0496,4.0496,4.0496,4.0496,4.0496,4.0492,4.0499,4.0499,4.0455,4.0422,4.0482,4.0499,0.0,0.0,0.0,0.0,0.0,0.0,0.0,0.0,4.0307,4.0252,0.0,0.0,0.0,4.0042,4.0032,4.0012,3.9958,3.9956,3.9905,3.9788,3.9785,3.9799,3.9916,3.9675,3.9471,3.9446,3.9427,3.9483,3.9592,3.9663,3.9829,4.0138,4.0262,4.0342,4.0351,4.0438,4.0499,4.0499,4.0492,4.0496,4.0496,4.0496,4.0496,4.0496,4.0496,4.0496,4.0496,4.0496,4.0496,4.0496,4.0504,4.0523,4.0523,4.0519,4.0546,4.0546,4.0504,4.0516,4.0523,4.0523,4.0539,4.0546,3.3698,3.3684,0.0,0.0,0.0,0.0,0.0,0.0,0.0,0.0,0.0,0.0,0.0,0.0,0.0,0.0,0.0,0.0,3.7523,0.0,0.0,0.0,3.7942,3.7981,3.8007,3.8007,3.8007,0.0,0.0,0.0,0.0,0.0,0.0,0.0,3.9996,0.0,0.0,0.0,4.0496,0.0,4.0496,4.0496,4.0496,4.0496,4.0496,4.0496,4.0496,4.0489,4.0508,4.0508,4.0481,4.0481,0.0,4.0508,4.0508,4.0496,0.0,0.0,0.0,0.0,0.0,4.0482,4.0466,4.0441,4.0316,0.0,4.0252,4.0196,0.0,4.0167,4.0177,0.0,0.0,4.0061,4.0051,4.0061,4.0071,4.01,4.0051,3.9922,3.9912,3.9922,3.9932,4.0061,4.0196,4.0342,4.0441,4.0491,4.0473,4.0481,4.0508,4.0508,4.0496,4.0496,4.0496,4.0496,4.0496,4.0496,4.0496,4.0496,4.0496,4.0496,4.0496,4.0496,4.0565,4.058,4.0588,4.0653,4.068,4.0673,4.0554,4.0531,4.058,4.058,4.0624,4.068,3.3858,3.3793,0.0,0.0,0.0,0.0,0.0,0.0,0.0,0.0,0.0,0.0,0.0,0.0,3.6697,0.0,3.7245,3.749,3.7867,0.0,0.0,0.0,3.92,3.9457,3.9457,3.9457,3.9457,0.0,3.9457,0.0,0.0,0.0,0.0,0.0,4.0342,0.0,4.0496,0.0,4.0496,4.0496,4.0496,4.0496,4.0496,4.0496,4.0496,4.0496,4.0496,4.0496,4.0496,4.0496,4.0496,4.0496,4.0496,0.0,0.0,4.0496,0.0,0.0,0.0,0.0,4.0489,4.0492,4.0503,4.0495,4.0417,4.0408,4.0408,4.0383,0.0,0.0,0.0,0.0,0.0,0.0,4.0261,4.0298,4.0325,4.0362,4.0307,4.0148,4.0129,4.012,4.0177,4.0307,4.0396,4.0458,4.0479,4.0492,4.0496,4.0496,4.0496,4.0496,4.0496,4.0496,4.0496,4.0496,4.0496,4.0496,4.0496,4.0496,4.0496,4.0539,4.0565,4.0565,4.0624,4.0653,4.066,4.0726,4.0758,4.0752,4.07,4.0675,4.0648,4.0707,4.0733,4.0758,3.4596,0.0,0.0,0.0,0.0,0.0,0.0,0.0,0.0,0.0,0.0,0.0,3.7566,3.7693,3.7874,3.8156,3.8258,3.8374,3.8604,3.925,3.9631,0.0,4.0189,4.0496,4.0496,4.0496,4.0496,0.0,0.0,0.0,0.0,0.0,0.0,0.0,0.0,4.0496,4.0496,0.0,4.0496,4.0496,4.0496,4.0496,4.0496,4.0496,4.0496,4.0496,4.0496,4.0496,4.0496,4.0496,4.0496,4.0496,4.0496,4.0496,4.0496,0.0,0.0,0.0,4.0496,4.0496,4.0496,4.0496,4.0496,4.0496,4.0496,4.0496,4.0496,4.0496,4.0496,0.0,0.0,0.0,0.0,0.0,0.0,4.0438,4.0499,4.0507,4.0447,4.0306,4.0288,4.0306,4.0341,4.0447,4.0507,4.0507,4.0492,4.0496,4.0496,4.0496,4.0496,4.0496,4.0496,4.0496,4.0496,4.0496,4.0504,4.0531,4.0531,4.0539,4.0561,4.061,4.0624,4.0619,4.0694,4.0726,4.0719,4.0821,4.0858,4.0844,4.0844,4.0835,4.0795,4.0826,4.0837,4.0844,3.6211,3.5657,0.0,0.0,0.0,0.0,0.0,0.0,3.7432,3.766,3.7695,3.7728,3.7789,3.7843,3.8235,3.9088,3.9223,3.9592,4.0381,4.0439,4.0458,4.0458,4.0496,4.0496,4.0496,4.0496,4.0496,0.0,0.0,0.0,0.0,0.0,0.0,0.0,4.0496,4.0496,4.0496,4.0496,4.0496,4.0496,4.0496,4.0496,4.0496,4.0496,4.0496,4.0496,4.0496,4.0496,4.0496,4.0496,4.0496,4.0496,4.0496,4.0496,4.0496,4.0496,4.0496,4.0496,4.0496,4.0496,4.0496,4.0496,4.0496,4.0496,4.0496,4.0496,4.0496,4.0496,4.0496,4.0496,4.0496,0.0,0.0,0.0,0.0,0.0,0.0,4.0496,4.0489,4.0489,4.0489,4.0489,4.0489,4.0489,4.0496,4.0496,4.0496,4.0496,4.0496,4.0496,4.0496,4.0496,4.0496,4.0496,4.0496,4.0496,4.0531,4.0607,4.0607,4.0624,4.0694,4.0694,4.0694,4.0694,4.0779,4.0798,4.081,4.0949,4.0993,4.0987,4.0981,4.0991,4.0981,4.0913,4.0941,4.0984,0.0,0.0,0.0,0.0,0.0,3.7276,3.8162,3.8433,3.8745,3.9344,3.95,3.9569,3.9578,3.9615,3.9742,4.0031,4.0085,4.0208,4.0477,4.0496,4.0496,4.0496,4.0496,4.0496,4.0496,4.0496,0.0,0.0,0.0,0.0,0.0,0.0,0.0,0.0,0.0,4.0496,0.0,0.0,0.0,4.0496,4.0496,4.0496,4.0496,4.0496,4.0496,4.0496,4.0496,4.0496,4.0496,4.0496,4.0496,4.0496,4.0496,4.0496,4.0496,4.0496,4.0496,4.0496,4.0496,4.0496,4.0496,4.0496,4.0496,4.0496,4.0496,4.0496,4.0496,4.0496,4.0496,4.0496,4.0496,0.0,0.0,0.0,0.0,0.0,0.0,4.0496,4.0523,4.0565,4.0531,4.0496,4.0496,4.0496,4.0496,4.0496,4.0496,4.0496,4.0496,4.0496,4.0496,4.0496,4.0496,4.0496,4.0496,4.0539,4.0569,4.0593,4.0641,4.0707,4.0764,4.0809,4.0823,4.0839,4.0911,4.0921,4.0933,4.1033,4.1075,4.1064,4.107,4.1064,4.1064,4.1044,4.1039,4.1076,3.8062,0.0,0.0,3.766,3.7908,3.8437,3.9223,3.9485,3.9774,4.0309,4.0455,4.0507,4.0507,4.05,4.0496,4.0496,4.0496,4.0496,4.0496,4.0496,4.0496,4.0496,4.0496,4.0496,4.0496,4.0496,0.0,0.0,0.0,4.0496,0.0,0.0,0.0,0.0,0.0,4.0496,4.0496,4.0496,4.0496,4.0496,4.0496,4.0496,4.0496,4.0496,4.0496,4.0496,4.0496,4.0496,4.0496,4.0496,4.0496,4.0496,4.0496,4.0496,4.0496,4.0496,4.0496,4.0496,4.0496,4.0496,4.0496,4.0496,4.0496,4.0496,4.0496,4.0496,4.0496,4.0496,4.0496,4.0496,4.0496,0.0,0.0,0.0,0.0,0.0,0.0,4.0561,4.0583,4.0624,4.0588,4.0539,4.0534,4.0542,4.0542,4.0542,4.0542,4.0542,4.0542,4.0546,4.0531,4.0531,4.0504,4.0504,4.0531,4.0569,4.0626,4.0668,4.0712,4.0776,4.0873,4.0915,4.0945,4.0941,4.1007,4.1048,4.1037,4.1087,4.1101,4.1104,4.1138,4.1144,4.1126,4.1111,4.1108,4.1094,3.891,3.9092,3.9264,3.9337,3.9781,4.0147,4.0289,4.0432,4.0507,4.0508,4.0496,4.0496,4.0496,4.0496,4.0496,4.0496,4.0496,4.0496,4.0496,4.0496,4.0496,4.0496,4.0496,4.0496,4.0496,4.0496,0.0,0.0,0.0,0.0,0.0,0.0,0.0,0.0,4.0496,0.0,4.0496,4.0496,4.0496,4.0496,4.0496,4.0496,4.0496,4.0496,4.0496,4.0496,4.0496,4.0496,4.0496,4.0496,4.0496,4.0496,4.0496,4.0496,4.0496,4.0496,4.0496,4.0496,4.0496,4.0496,4.0496,4.0496,4.0496,4.0496,4.0496,4.0496,4.0496,4.0496,4.0496,4.0496,4.0496,0.0,0.0,0.0,0.0,0.0,0.0,0.0,4.0707,4.0713,4.0653,4.0598,4.0614,4.0621,4.0621,4.0614,4.0595,4.0595,4.0595,4.0598,4.0595,4.0595,4.0546,4.0546,4.0595,4.06,4.0675,4.0806,4.0809,4.0887,4.0993,4.099,4.0995,4.1018,4.107,4.1101,4.1091,4.1104,4.1109,4.1112,4.1172,4.1191,4.1191,4.1125,4.1106,4.1112,3.905,3.9414,3.9766,3.9931,4.0071,4.0215,4.0353,4.0455,4.05,4.0496,4.0496,4.0496,4.0496,4.0496,4.0496,4.0496,4.0496,4.0496,4.0496,4.0496,4.0496,4.0496,4.0496,4.0496,4.0496,4.0496,4.0496,4.0496,0.0,0.0,4.0496,0.0,0.0,0.0,0.0,4.0496,4.0496,4.0496,4.0496,4.0496,4.0496,4.0496,4.0496,4.0496,4.0496,4.0496,4.0496,4.0496,4.0496,4.0496,4.0496,4.0496,4.0496,4.0496,4.0496,4.0496,4.0496,4.0496,4.0496,4.0496,4.0496,4.0496,4.0496,4.0496,4.0496,4.0496,4.0496,4.0496,4.0496,4.0496,4.0496,4.0496,0.0,0.0,0.0,0.0,0.0,0.0,4.08,4.0848,4.0823,4.0784,4.0681,4.0732,4.0732,4.0675,4.0668,4.0668,4.0668,4.0662,4.0675,4.0675,4.0668,4.0668,4.0675,4.0712,4.0796,4.0878,4.0921,4.0981,4.1061,4.1072,4.1067,4.1072,4.1098,4.1102,4.1104,4.1109,4.1091,4.1112,4.1172,4.1191,4.1191,4.1171,4.1171,4.1172,3.9115,3.9599,4.0019,4.0187,4.027,4.037,4.0432,4.0487,4.0496,4.0496,4.0496,4.0496,4.0496,4.0496,4.0496,4.0496,4.0496,4.0496,4.0496,4.0496,4.0496,4.0496,4.0496,4.0496,4.0496,4.0496,4.0496,4.0496,0.0,0.0,4.0496,0.0,0.0,0.0,0.0,4.0546,4.0549,4.0546,4.0539,4.0539,4.0504,4.0496,0.0,4.0496,4.0496,4.0496,4.0496,4.0496,4.0496,4.0496,4.0496,4.0496,4.0496,4.0496,4.0496,4.0496,4.0496,4.0496,4.0496,4.0496,4.0496,4.0496,4.0496,4.0496,4.0496,4.0523,4.0539,4.0539,4.0569,4.0583,4.0549,4.0576,0.0,0.0,0.0,0.0,0.0,0.0,4.0893,4.0941,4.0972,4.0945,4.0834,4.084,4.0833,4.0779,4.0798,4.0798,4.0798,4.0787,4.0796,4.0796,4.0754,4.0754,4.0796,4.0824,4.0882,4.0945,4.1,4.1059,4.1104,4.11,4.1126,4.1147,4.113,4.1131,4.1131,4.1132,4.1132,4.1152,4.1191,4.1191,4.1191,4.1191,4.1191,4.1191,3.9245,3.9747,4.0147,4.0215,4.0388,4.0491,4.0491,4.0511,4.0496,4.0496,4.0496,4.0496,4.0496,4.0496,4.0496,4.0496,4.0496,4.0496,4.0496,4.0496,4.0496,4.0496,4.0496,4.0496,4.0496,4.0496,4.0496,0.0,0.0,0.0,0.0,0.0,0.0,0.0,0.0,0.0,0.0,4.0591,4.0595,4.058,4.0531,4.0496,4.0496,4.0496,4.0496,4.0496,4.0496,4.0496,4.0496,4.0496,4.0496,4.0496,4.0496,4.0496,4.0496,4.0496,4.0496,4.0496,4.0496,4.0496,4.0496,4.0496,4.0496,4.0496,4.0496,4.0546,4.0607,4.0595,4.0653,4.0681,4.0635,4.0674,4.0713,0.0,0.0,0.0,4.082,4.0929,4.1007,4.1006,4.1059,0.0,4.1013,4.0954,4.0925,4.0902,4.0906,4.0906,4.0906,4.0909,4.0915,4.0915,4.0854,4.0854,4.0915,4.0921,4.097,4.1008,4.107,4.1093,4.1108,4.1111,4.1132,4.1191,4.1191,4.1191,4.1191,4.1191,4.1191,4.1191,4.1191,4.1191,4.1191,4.1191,4.1191,4.1191,3.9758,4.0039,4.0243,4.0424,4.0479,4.05,4.05,4.0489,4.0496,4.0496,4.0496,4.0496,4.0496,4.0496,4.0496,4.0496,4.0496,4.0496,4.0496,4.0496,4.0496,4.0496,4.0496,4.0496,4.0496,4.0496,4.0531,4.058,0.0,0.0,0.0,0.0,0.0,0.0,0.0,0.0,4.0687,4.0614,4.0598,4.058,4.0531,4.0496,4.0496,4.0496,4.0496,4.0496,4.0496,4.0496,4.0496,4.0496,4.0496,4.0496,4.0496,4.0496,4.0496,4.0496,4.0496,4.0496,4.0496,4.0496,4.0496,4.0496,4.0496,4.0496,4.0496,4.0546,4.0595,4.0593,4.0662,4.0713,4.077,4.0776,4.0775,4.0787,4.0844,4.0897,4.096,4.1022,4.1076,4.1087,4.1093,4.1097,4.1081,4.1068,4.1048,4.0981,4.0974,4.0983,4.0983,4.097,4.0975,4.0975,4.097,4.097,4.0975,4.105,4.1066,4.1083,4.1098,4.1107,4.1091,4.1152,4.1191,4.1191,4.1191,4.1191,4.1191,4.1191,4.1191,4.1191,4.1191,4.1191,4.1191,4.1191,4.1191,4.1191,3.987,4.0109,4.0298,4.0432,4.0487,4.0496,4.0496,4.0496,4.0496,4.0496,4.0496,4.0496,4.0496,4.0496,4.0496,4.0496,4.0496,4.0496,4.0496,4.0496,4.0496,4.0496,4.0496,4.0496,4.0496,4.0496,4.0531,4.0607,4.061,0.0,0.0,0.0,0.0,0.0,0.0,4.0787,0.0,4.0688,4.0633,4.0598,4.0539,4.0496,4.0496,4.0496,4.0496,4.0496,4.0496,4.0496,4.0496,4.0496,4.0496,4.0496,4.0496,4.0496,4.0496,4.0496,4.0496,4.0496,4.0496,4.0531,4.0546,4.0546,4.0576,4.0605,4.0605,4.0661,4.07,4.0693,4.0779,4.0864,4.0906,4.0888,4.0864,4.09,4.0925,4.0983,4.1039,4.1087,4.1109,4.1105,4.1128,4.1149,4.111,4.1101,4.1087,4.1048,4.1053,4.1055,4.1055,4.1058,4.1042,4.1042,4.1056,4.1056,4.1042,4.1087,4.1094,4.1103,4.1108,4.1111,4.1152,4.1191,4.1191,4.1191,4.1191,4.1191,4.1191,4.1191,4.1191,4.1191,4.1191,4.1191,4.1191,4.1191,4.1191,4.1191,3.9924,4.0148,4.0334,4.0415,4.046,4.0496,4.0496,4.0496,4.0496,4.0496,4.0496,4.0496,4.0496,4.0496,4.0496,4.0496,4.0496,4.0496,4.0496,4.0496,4.0496,4.0496,4.0496,4.0496,4.0496,4.0496,4.0539,4.061,4.0614,4.0668,0.0,0.0,0.0,0.0,4.0888,4.0858,4.079,4.072,4.0654,4.0593,4.0527,4.0496,4.0496,4.0496,4.0496,4.0496,4.0496,4.0496,4.0496,4.0496,4.0496,4.0496,4.0496,4.0496,4.0496,4.0523,4.0523,4.0512,4.0546,4.0569,4.0617,4.0631,4.068,4.072,4.0713,4.0767,4.0814,4.082,4.0925,4.101,4.1028,4.099,4.0954,4.1013,4.1025,4.1047,4.1099,4.1095,4.1105,4.1112,4.1172,4.1172,4.1132,4.1112,4.1111,4.1124,4.1103,4.1102,4.1102,4.1103,4.1124,4.1124,4.112,4.112,4.1124,4.1124,4.1127,4.1112,4.1112,4.1152,4.1191,4.1191,4.1191,4.1191,4.1191,4.1191,4.1191,4.1191,4.1191,4.1191,4.1191,4.1191,4.1191,4.1191,4.1191,4.1191,4.0128,4.029,4.0413,4.0485,4.0503,4.0496,4.0496,4.0496,4.0496,4.0496,4.0496,4.0496,4.0496,4.0496,4.0496,4.0496,4.0496,4.0496,4.0496,4.0496,4.0496,4.0496,4.0496,4.0496,4.0496,4.0496,4.0569,4.0687,4.0688,4.0757,4.0878,0.0,0.0,4.0976,4.0917,4.0869,4.0794,4.0726,4.066,4.0588,4.0531,4.0496,4.0496,4.0496,4.0496,4.0496,4.0496,4.0496,4.0496,4.0496,4.0496,4.0496,4.0496,4.0496,4.0504,4.0573,4.058,4.0595,4.0666,4.0687,4.07,4.0764,4.0782,4.0794,4.079,4.0844,4.0888,4.0896,4.0997,4.1096,4.1081,4.1094,4.107,4.1081,4.1083,4.109,4.1104,4.1108,4.1112,4.1172,4.1191,4.1191,4.1191,4.1191,4.1191,4.1191,4.1132,4.1091,4.1091,4.1152,4.1191,4.1191,4.1191,4.1191,4.1191,4.1191,4.1191,4.1191,4.1191,4.1191,4.1191,4.1191,4.1191,4.1191,4.1191,4.1191,4.1191,4.1191,4.1191,4.1191,4.1191,4.1191,4.1191,4.1191,4.1191,4.1191,4.0244,4.0362,4.0466,4.0502,4.0503,4.0496,4.0496,4.0496,4.0496,4.0496,4.0496,4.0496,4.0496,4.0496,4.0496,4.0496,4.0496,4.0496,4.0496,4.0496,4.0496,4.0496,4.0496,4.0496,4.0496,4.0496,4.0542,4.0628,4.0726,4.0818,4.0902,4.0963,4.0997,4.1006,4.0932,4.0854,4.0788,4.0688,4.0619,4.058,4.0531,4.0496,4.0496,4.0496,4.0496,4.0496,4.0496,4.0496,4.0496,4.0496,4.0496,4.0496,4.0496,4.0531,4.0573,4.0598,4.064,4.0662,4.0745,4.0781,4.0832,4.0853,4.0888,4.0913,4.0921,4.0963,4.1022,4.102,4.1055,4.1095,4.1104,4.1101,4.1098,4.1101,4.1101,4.1104,4.1109,4.1091,4.1112,4.1191,4.1191,4.1191,4.1191,4.1191,4.1191,4.1191,4.1172,4.1152,4.1152,4.1191,4.1191,4.1191,4.1191,4.1191,4.1191,4.1191,4.1191,4.1191,4.1191,4.1191,4.1191,4.1191,4.1191,4.1191,4.1191,4.1191,4.1191,4.1191,4.1191,4.1191,4.1191,4.1191,4.1191,4.1191,4.1191,4.1191,4.0335,4.043,4.0507,4.0507,4.0492,4.0496,4.0496,4.0496,4.0496,4.0496,4.0496,4.0496,4.0496,4.0496,4.0496,4.0496,4.0496,4.0496,4.0496,4.0496,4.0496,4.0496,4.0496,4.0504,4.0531,4.0531,4.0564,4.0655,4.0744,4.0835,4.0926,4.0994,4.1019,4.0993,4.0915,4.0823,4.0764,4.0654,4.0591,4.0573,4.0523,4.0496,4.0496,4.0496,4.0496,4.0496,4.0496,4.0496,4.0496,4.0496,4.0496,4.0496,4.0531,4.0554,4.0617,4.0641,4.0687,4.0748,4.0842,4.0883,4.0932,4.0953,4.1,4.1034,4.1039,4.1064,4.1106,4.1097,4.1104,4.111,4.1132,4.1131,4.113,4.113,4.113,4.113,4.1132,4.1132,4.1152,4.1191,4.1191,4.1191,4.1191,4.1191,4.1191,4.1191,4.1191,4.1191,4.1191,4.1191,4.1191,4.1191,4.1191,4.1191,4.1191,4.1191,4.1191,4.1191,4.1191,4.1191,4.1191,4.1191,4.1191,4.1191,4.1191,4.1191,4.1191,4.1191,4.1191,4.1191,4.1191,4.1191,4.1191,4.1191,4.1191,4.1191,4.0458,4.0503,4.0496,4.0496,4.0496,4.0496,4.0496,4.0496,4.0496,4.0496,4.0496,4.0496,4.0496,4.0496,4.0496,4.0496,4.0496,4.0496,4.0496,4.0496,4.0496,4.0496,4.0496,4.0531,4.0607,4.0607,4.066,4.0794,4.0798,4.0866,4.0998,4.1064,4.1054,4.0987,4.0863,4.0759,4.0694,4.0617,4.0565,4.0496,4.0496,4.0496,4.0496,4.0496,4.0496,4.0496,4.0496,4.0496,4.0496,4.0496,4.0496,4.0504,4.0573,4.0598,4.0635,4.077,4.0796,4.0825,4.0964,4.0997,4.1003,4.1083,4.1092,4.1095,4.1106,4.1094,4.1101,4.1091,4.1092,4.1112,4.1191,4.1191,4.1191,4.1191,4.1191,4.1191,4.1191,4.1191,4.1191,4.1191,4.1191,4.1191,4.1191,4.1191,4.1191,4.1191,4.1191,4.1191,4.1191,4.1191,4.1191,4.1191,4.1191,4.1191,4.1191,4.1191,4.1191,4.1191,4.1191,4.1191,4.1191,4.1191,4.1191,4.1191,4.1191,4.1191,4.1191,4.1191,4.1191,4.1191,4.1191,4.1191,4.1191,4.1191,4.1191,4.1191,4.0468,4.0508,4.0496,4.0496,4.0496,4.0496,4.0496,4.0496,4.0496,4.0496,4.0496,4.0496,4.0496,4.0496,4.0496,4.0496,4.0496,4.0496,4.0496,4.0496,4.0496,4.0496,4.0539,4.0569,4.0593,4.0641,4.0707,4.079,4.0844,4.0944,4.1064,4.1093,4.1045,4.0929,4.0829,4.0732,4.0621,4.0569,4.0523,4.0496,4.0496,4.0496,4.0496,4.0496,4.0496,4.0496,4.0496,4.0496,4.0496,4.0496,4.0531,4.058,4.0646,4.0674,4.0681,4.0771,4.0854,4.096,4.1045,4.1079,4.1062,4.109,4.1099,4.1105,4.1107,4.1149,4.1171,4.1171,4.1172,4.1172,4.1191,4.1191,4.1191,4.1191,4.1191,4.1191,4.1191,4.1191,4.1191,4.1191,4.1191,4.1191,4.1191,4.1191,4.1191,4.1191,4.1191,4.1191,4.1191,4.1191,4.1191,4.1191,4.1191,4.1191,4.1191,4.1191,4.1191,4.1191,4.1191,4.1191,4.1191,4.1191,4.1191,4.1191,4.1191,4.1191,4.1191,4.1191,4.1191,4.1191,4.1191,4.1191,4.1191,4.1152,4.1132,4.1132,4.0473,4.0496,4.0496,4.0496,4.0496,4.0496,4.0496,4.0496,4.0496,4.0496,4.0496,4.0496,4.0496,4.0496,4.0496,4.0496,4.0496,4.0496,4.0496,4.0496,4.0496,4.0496,4.0565,4.061,4.0647,4.0694,4.0771,4.0849,4.094,4.1025,4.1099,4.1072,4.099,4.089,4.0798,4.0694,4.0607,4.0527,4.0496,4.0496,4.0496,4.0496,4.0496,4.0496,4.0496,4.0496,4.0496,4.0496,4.0496,4.0531,4.0561,4.0624,4.0713,4.075,4.0798,4.0869,4.0956,4.1044,4.1094,4.1094,4.1105,4.1126,4.115,4.1132,4.1132,4.1172,4.1191,4.1191,4.1191,4.1191,4.1191,4.1191,4.1191,4.1191,4.1191,4.1191,4.1191,4.1191,4.1191,4.1191,4.1191,4.1191,4.1191,4.1191,4.1191,4.1191,4.1191,4.1191,4.1191,4.1191,4.1191,4.1191,4.1191,4.1191,4.1191,4.1191,4.1191,4.1191,4.1191,4.1191,4.1191,4.1191,4.1191,4.1191,4.1191,4.1191,4.1191,4.1191,4.1191,4.1191,4.1191,4.1172,4.1152,4.1111,4.1303,4.1571,4.0473,4.0496,4.0496,4.0496,4.0496,4.0496,4.0496,4.0496,4.0496,4.0496,4.0496,4.0496,4.0496,4.0496,4.0496,4.0496,4.0496,4.0496,4.0496,4.0496,4.0496,4.0516,4.0573,4.0631,4.0707,4.0773,4.0854,4.091,4.1042,4.1109,4.1109,4.1037,4.0974,4.089,4.0762,4.0662,4.0607,4.0527,4.0496,4.0496,4.0496,4.0496,4.0496,4.0496,4.0496,4.0496,4.0516,4.0516,4.0523,4.058,4.0605,4.0641,4.0776,4.0854,4.0925,4.0983,4.1059,4.1101,4.1103,4.109,4.1112,4.1172,4.1191,4.1191,4.1191,4.1191,4.1191,4.1191,4.1191,4.1191,4.1191,4.1191,4.1191,4.1191,4.1191,4.1191,4.1191,4.1191,4.1191,4.1191,4.1191,4.1191,4.1191,4.1191,4.1191,4.1191,4.1191,4.1191,4.1191,4.1191,4.1191,4.1191,4.1191,4.1191,4.1191,4.1191,4.1191,4.1191,4.1191,4.1191,4.1191,4.1191,4.1191,4.1191,4.1191,4.1191,4.1191,4.1191,4.1191,4.1191,4.1191,4.1191,4.1188,4.1185,4.1741,4.2461,4.0481,4.0496,4.0496,4.0496,4.0496,4.0496,4.0496,4.0496,4.0496,4.0496,4.0496,4.0496,4.0496,4.0496,4.0496,4.0496,4.0496,4.0496,4.0496,4.0496,4.0523,4.0573,4.0639,4.0701,4.0773,4.0898,4.0983,4.1048,4.1088,4.1097,4.1097,4.1087,4.1003,4.089,4.0818,4.072,4.0607,4.0527,4.0496,4.0496,4.0496,4.0496,4.0496,4.0496,4.0496,4.0516,4.0565,4.0573,4.0588,4.0653,4.0713,4.0763,4.0853,4.0921,4.0977,4.1006,4.1044,4.1097,4.1108,4.1132,4.1172,4.1191,4.1191,4.1191,4.1191,4.1191,4.1191,4.1191,4.1191,4.1191,4.1191,4.1191,4.1191,4.1191,4.1191,4.1191,4.1191,4.1191,4.1191,4.1191,4.1191,4.1191,4.1191,4.1191,4.1191,4.1191,4.1191,4.1191,4.1191,4.1191,4.1191,4.1191,4.1191,4.1191,4.1191,4.1191,4.1191,4.1191,4.1191,4.1191,4.1191,4.1191,4.1191,4.1191,4.1191,4.1191,4.1191,4.1191,4.1172,4.1112,4.1112,4.1519,4.2096,4.2084,4.2609,4.3317,4.0508,4.0496,4.0496,4.0496,4.0496,4.0496,4.0496,4.0496,4.0496,4.0496,4.0496,4.0496,4.0496,4.0496,4.0496,4.0496,4.0496,4.0504,4.0539,4.0558,4.058,4.0639,4.0707,4.0775,4.0844,4.0941,4.1034,4.1099,4.1126,4.1126,4.1102,4.1099,4.1031,4.089,4.0823,4.0726,4.0607,4.0527,4.0496,4.0496,4.0496,4.0496,4.0496,4.0496,4.0523,4.0546,4.0583,4.0619,4.0661,4.0725,4.079,4.0859,4.0921,4.0994,4.1059,4.1055,4.1074,4.1107,4.1132,4.1172,4.1191,4.1191,4.1191,4.1191,4.1191,4.1191,4.1191,4.1191,4.1191,4.1191,4.1191,4.1191,4.1191,4.1191,4.1191,4.1191,4.1191,4.1191,4.1191,4.1191,4.1191,4.1191,4.1191,4.1191,4.1191,4.1191,4.1191,4.1191,4.1191,4.1191,4.1191,4.1191,4.1191,4.1191,4.1191,4.1191,4.1191,4.1191,4.1191,4.1191,4.1191,4.1191,4.1191,4.1191,4.1172,4.1152,4.1152,4.115,4.1363,4.1692,4.1687,4.2202,4.2943,4.2919,4.3419,4.4096,4.0508,4.0496,4.0496,4.0496,4.0496,4.0496,4.0496,4.0496,4.0496,4.0496,4.0496,4.0496,4.0496,4.0496,4.0496,4.0504,4.0523,4.0539,4.0607,4.0595,4.0631,4.0713,4.0782,4.0842,4.0906,4.0977,4.1048,4.1108,4.1171,4.1171,4.1107,4.1108,4.1022,4.089,4.0828,4.0732,4.0607,4.0527,4.0496,4.0496,4.0496,4.0496,4.0496,4.0496,4.0539,4.0595,4.0607,4.0655,4.0724,4.08,4.0867,4.0922,4.0989,4.1044,4.1104,4.1104,4.111,4.1132,4.1172,4.1191,4.1191,4.1191,4.1191,4.1191,4.1191,4.1191,4.1191,4.1191,4.1191,4.1191,4.1191,4.1191,4.1191,4.1191,4.1191,4.1191,4.1191,4.1191,4.1191,4.1191,4.1191,4.1191,4.1191,4.1191,4.1191,4.1191,4.1191,4.1191,4.1191,4.1191,4.1191,4.1191,4.1191,4.1191,4.1191,4.1191,4.1191,4.1191,4.1191,4.1191,4.1191,4.1191,4.1172,4.1172,4.1112,4.1168,4.1304,4.1295,4.1795,4.257,4.2572,4.3053,4.3753,4.3701,4.4171,4.4864,4.0496,4.0496,4.0496,4.0496,4.0496,4.0496,4.0496,4.0496,4.0496,4.0496,4.0496,4.0496,4.0496,4.0496,4.0523,4.0573,4.058,4.058,4.0607,4.0605,4.0668,4.0776,4.0848,4.0915,4.0974,4.1056,4.1085,4.1091,4.1172,4.1171,4.1107,4.1095,4.1033,4.0894,4.0835,4.0738,4.0607,4.0527,4.0496,4.0496,4.0496,4.0496,4.0496,4.0496,4.0539,4.0603,4.0668,4.0724,4.0798,4.0937,4.0974,4.0992,4.1055,4.1094,4.1105,4.109,4.1132,4.1191,4.1191,4.1191,4.1191,4.1191,4.1191,4.1191,4.1191,4.1191,4.1191,4.1191,4.1191,4.1191,4.1191,4.1191,4.1191,4.1191,4.1191,4.1191,4.1191,4.1191,4.1191,4.1191,4.1191,4.1191,4.1191,4.1191,4.1191,4.1191,4.1191,4.1191,4.1191,4.1191,4.1191,4.1191,4.1191,4.1191,4.1191,4.1191,4.1191,4.1191,4.1191,4.1191,4.1191,4.1132,4.1112,4.1112,4.1105,4.1527,4.2202,4.2194,4.2656,4.3322,4.3335,4.3818,4.4535,4.4524,4.5,4.562,4.0496,4.0496,4.0496,4.0496,4.0496,4.0496,4.0496,4.0496,4.0496,4.0496,4.0496,4.0496,4.0496,4.0531,4.058,4.0598,4.064,4.0681,4.0713,4.0713,4.0744,4.0854,4.0924,4.0981,4.1046,4.1081,4.1091,4.1092,4.1172,4.1171,4.1107,4.1097,4.1059,4.0949,4.0859,4.0742,4.0654,4.0576,4.0531,4.0496,4.0496,4.0523,4.0546,4.0546,4.0624,4.072,4.0742,4.0815,4.0925,4.1019,4.1057,4.106,4.1081,4.1107,4.111,4.1132,4.1172,4.1191,4.1191,4.1191,4.1191,4.1191,4.1191,4.1191,4.1191,4.1191,4.1191,4.1191,4.1191,4.1191,4.1191,4.1191,4.1191,4.1191,4.1191,4.1191,4.1191,4.1191,4.1191,4.1191,4.1191,4.1191,4.1191,4.1191,4.1191,4.1191,4.1191,4.1191,4.1191,4.1191,4.1191,4.1191,4.1191,4.1191,4.1191,4.1191,4.1191,4.1191,4.1191,4.1191,4.1191,4.1132,4.1364,4.1792,4.1753,4.2241,4.3044,4.2974,4.3421,4.4145,4.4108,4.4575,4.5286,4.5293,4.5476,4.5743,4.0496,4.0496,4.0554,4.0766,4.0804,4.0881,4.1073,4.1112,4.1112,4.1112,4.1112,4.1093,4.1108,4.1158,4.1126,4.0938,4.0984,4.0978,4.0854,4.0849,4.0874,4.0921,4.099,4.1044,4.1102,4.1129,4.1112,4.1112,4.1172,4.1171,4.1107,4.1098,4.1066,4.099,4.0887,4.0787,4.0713,4.064,4.0598,4.0549,4.0549,4.0583,4.0631,4.0639,4.072,4.0804,4.081,4.0906,4.1009,4.109,4.1091,4.1104,4.1111,4.1112,4.1132,4.1172,4.1191,4.1191,4.1191,4.1191,4.1191,4.1191,4.1191,4.1191,4.1191,4.1191,4.1191,4.1191,4.1191,4.1191,4.1191,4.1191,4.1191,4.1191,4.1191,4.1191,4.1191,4.1191,4.1191,4.1191,4.1191,4.1191,4.1191,4.1191,4.1191,4.1191,4.1191,4.1191,4.1191,4.1191,4.1191,4.1191,4.1191,4.1191,4.1191,4.1191,4.1191,4.1191,4.1387,4.1484,4.1484,4.1637,4.206,4.2678,4.2615,4.3059,4.3849,4.3729,4.4181,4.496,4.4905,4.5239,4.5783,4.5773,4.573,4.5684,4.0496,4.0496,4.0746,4.1566,4.1692,4.1989,4.2797,4.2912,4.2912,4.2912,4.2912,4.2909,4.2911,4.2977,4.2714,4.1969,4.195,4.1718,4.103,4.0987,4.0994,4.0986,4.1066,4.1082,4.1091,4.1152,4.1191,4.1191,4.1191,4.1171,4.1107,4.1101,4.1056,4.1007,4.091,4.0859,4.0796,4.0712,4.0681,4.0681,4.0681,4.0681,4.0707,4.0751,4.0784,4.081,4.0866,4.0938,4.1018,4.109,4.1104,4.1111,4.1172,4.1191,4.1191,4.1191,4.1191,4.1191,4.1191,4.1191,4.1191,4.1191,4.1191,4.1191,4.1191,4.1191,4.1191,4.1191,4.1191,4.1191,4.1191,4.1191,4.1191,4.1191,4.1191,4.1191,4.1191,4.1191,4.1191,4.1191,4.1191,4.1191,4.1191,4.1191,4.1191,4.1191,4.1191,4.1191,4.1191,4.1191,4.1191,4.1191,4.1191,4.1191,4.1191,4.1191,4.1191,4.1211,4.1952,4.2303,4.2342,4.3141,4.3507,4.3509,4.3444,4.3875,4.4614,4.453,4.4995,4.5725,4.5699,4.5712,4.5717,4.5709,4.5657,4.5614,4.1316,4.1739,4.222,4.2547,4.2604,4.272,4.3047,4.3104,4.3104,4.3104,4.3104,4.3102,4.3111,4.3202,4.3163,4.2887,4.2466,4.2112,4.1872,4.1358,4.106,4.106,4.1081,4.113,4.1152,4.1191,4.1191,4.1191,4.1191,4.1171,4.109,4.1106,4.1091,4.1052,4.1,4.0926,4.0864,4.0824,4.0807,4.0754,4.0754,4.0796,4.0828,4.0858,4.0882,4.0924,4.0958,4.1003,4.1076,4.1086,4.113,4.1172,4.1191,4.1191,4.1191,4.1191,4.1191,4.1191,4.1191,4.1191,4.1191,4.1191,4.1191,4.1191,4.1191,4.1191,4.1191,4.1191,4.1191,4.1191,4.1191,4.1191,4.1191,4.1191,4.1191,4.1191,4.1191,4.1191,4.1191,4.1191,4.1191,4.1191,4.1191,4.1191,4.1191,4.1191,4.1191,4.1191,4.1191,4.1191,4.1191,4.1191,4.1679,4.1699,4.1191,4.1699,4.1933,4.1952,4.2807,4.3211,4.3226,4.3504,4.3899,4.4338,4.422,4.4663,4.5434,4.532,4.5465,4.573,4.5679,4.5665,4.564,4.564,4.5631,4.5594,4.222,4.2701,4.3181,4.3431,4.347,4.3566,4.3835,4.3893,4.3893,4.3893,4.391,4.3924,4.396,4.4045,4.4044,4.387,4.3405,4.29,4.2424,4.1606,4.1126,4.1108,4.1091,4.1132,4.1191,4.1191,4.1191,4.1191,4.1191,4.1172,4.1092,4.111,4.1102,4.1101,4.1046,4.1014,4.0963,4.0941,4.0894,4.0867,4.0867,4.0885,4.0933,4.0941,4.0987,4.104,4.1031,4.1054,4.1109,4.1091,4.1132,4.1191,4.1191,4.1191,4.1191,4.1191,4.1191,4.1191,4.1191,4.1191,4.1191,4.1191,4.1191,4.1191,4.1191,4.1191,4.1191,4.1191,4.1191,4.1191,4.1191,4.1191,4.1191,4.1191,4.1191,4.1191,4.1191,4.1191,4.1191,4.1191,4.1191,4.1191,4.1191,4.1191,4.1191,4.1191,4.1191,4.1191,4.1191,4.1445,4.1582,4.1582,4.238,4.2535,4.1989,4.2535,4.2807,4.2825,4.3668,4.4064,4.4051,4.4247,4.4623,4.5147,4.5007,4.5272,4.5824,4.5714,4.5676,4.5657,4.5622,4.5594,4.5594,4.5594,4.5594,4.5594,4.3104,4.3104,4.3374,4.4162,4.4316,4.4605,4.5479,4.5594,4.5594,4.5594,4.5657,4.5734,4.58,4.5861,4.5613,4.4877,4.4866,4.4188,4.2513,4.1659,4.1172,4.1092,4.1092,4.1132,4.1191,4.1191,4.1191,4.1191,4.1191,4.1172,4.1092,4.1092,4.1108,4.1098,4.1093,4.1104,4.1094,4.1022,4.0996,4.0996,4.0996,4.0996,4.1018,4.107,4.1101,4.1091,4.1097,4.1105,4.1092,4.1092,4.1132,4.1191,4.1191,4.1191,4.1191,4.1191,4.1191,4.1191,4.1191,4.1191,4.1191,4.1191,4.1191,4.1191,4.1191,4.1191,4.1191,4.1191,4.1191,4.1191,4.1191,4.1191,4.1191,4.1191,4.1191,4.1191,4.1191,4.1191,4.1191,4.1191,4.1191,4.1191,4.1191,4.1191,4.1191,4.1191,4.1211,4.1211,4.1211,4.1972,4.24,4.24,4.3251,4.371,4.37,4.371,4.371,4.372,4.4523,4.4865,4.4821,4.557,4.5902,4.588,4.5757,4.5703,4.5693,4.5631,4.5594,4.5594,4.5594,4.5594,4.5594,4.5594,4.5594,4.5594,4.3932,4.4432,4.494,4.5171,4.521,4.5306,4.5556,4.5594,4.5594,4.5594,4.5657,4.5722,4.5798,4.5892,4.592,4.5793,4.5287,4.4244,4.2519,4.2187,4.1777,4.1191,4.1172,4.1172,4.1191,4.1191,4.1191,4.1191,4.1191,4.1191,4.1172,4.1172,4.1151,4.1108,4.1108,4.1102,4.1093,4.109,4.1065,4.106,4.106,4.1064,4.1069,4.1091,4.1099,4.1108,4.1108,4.1131,4.1172,4.1172,4.1172,4.1191,4.1191,4.1191,4.1191,4.1191,4.1191,4.1191,4.1191,4.1191,4.1191,4.1191,4.1191,4.1191,4.1191,4.1191,4.1191,4.1191,4.1191,4.1191,4.1191,4.1191,4.1191,4.1191,4.1191,4.1191,4.1191,4.1191,4.1191,4.1191,4.1191,4.1191,4.1191,4.1191,4.1191,4.1191,4.1718,4.203,4.203,4.2846,4.3308,4.3303,4.4118,4.4523,4.4468,4.4521,4.4521,4.4487,4.5297,4.5633,4.5585,4.575,4.5834,4.5812,4.5746,4.569,4.5693,4.5631,4.5594,4.5594,4.5594,4.5594,4.5594,4.5594,4.5594,4.5594,4.4797,4.5248,4.5594,4.5594,4.5594,4.5594,4.5594,4.5594,4.5622,4.564,4.5698,4.5765,4.5835,4.5952,4.6084,4.6187,4.5468,4.4547,4.3496,4.3105,4.2695,4.2207,4.1855,4.1523,4.1211,4.1191,4.1191,4.1191,4.1191,4.1191,4.1191,4.1191,4.1172,4.1132,4.1132,4.1131,4.1147,4.1147,4.1146,4.1143,4.1143,4.1145,4.1147,4.1147,4.1149,4.1132,4.1132,4.1172,4.1191,4.1191,4.1191,4.1191,4.1191,4.1191,4.1191,4.1191,4.1191,4.1191,4.1191,4.1191,4.1191,4.1191,4.1191,4.1191,4.1191,4.1191,4.1191,4.1191,4.1191,4.1191,4.1191,4.1191,4.1191,4.1191,4.1191,4.1191,4.1191,4.1191,4.1191,4.1191,4.1191,4.1191,4.1191,4.1484,4.1816,4.2168,4.2635,4.2905,4.2902,4.3725,4.4155,4.4143,4.4913,4.5297,4.5233,4.5258,4.5258,4.5233,4.5709,4.5892,4.5861,4.5786,4.5765,4.5754,4.5682,4.5657,4.5648,4.5622,4.5594,4.5594,4.5594,4.5594,4.5594,4.5594,4.5594,4.5594,4.5594,4.5594,4.5594,4.5594,4.5594,4.5594,4.5594,4.5614,4.5631,4.5682,4.5762,4.5833,4.5894,4.602,4.615,4.62,4.5543,4.5078,4.5019,4.4258,4.3789,4.3691,4.2949,4.2168,4.1445,4.1289,4.1191,4.1191,4.1191,4.1191,4.1191,4.1191,4.1191,4.1191,4.1191,4.1191,4.1191,4.1191,4.1191,4.1191,4.1191,4.1191,4.1191,4.1191,4.1191,4.1191,4.1191,4.1191,4.1191,4.1191,4.1191,4.1191,4.1191,4.1191,4.1191,4.1191,4.1191,4.1191,4.1191,4.1191,4.1191,4.1191,4.1191,4.1191,4.1191,4.1191,4.1191,4.1191,4.1191,4.1191,4.1191,4.1191,4.1191,4.1191,4.1191,4.1191,4.1191,4.1191,4.123,4.1308,4.1308,4.1348,4.1426,4.209,4.2851,4.3631,4.3763,4.3813,4.3816,4.456,4.4972,4.4892,4.5609,4.595,4.5883,4.5822,4.5822,4.5883,4.5822,4.5791,4.5792,4.5714,4.5693,4.5693,4.5631,4.5594,4.5594,4.5594,4.5594,4.5594,4.5594,4.5594,4.5594,4.5594,4.5594,4.5594,4.5594,4.5594,4.5594,4.5594,4.5594,4.5594,4.5594,4.564,4.5682,4.5703,4.5791,4.5906,4.5973,4.6092,4.6203,4.6269,4.611,4.5723,4.5039,4.4824,4.4414,4.373,4.3516,4.334,4.3164,4.1875,4.1191,4.1191,4.1191,4.1191,4.1191,4.1191,4.1191,4.1191,4.1191,4.1191,4.1191,4.1191,4.1191,4.1191,4.1191,4.1191,4.1191,4.1191,4.1191,4.1191,4.1191,4.1191,4.1191,4.1191,4.1191,4.1191,4.1191,4.1191,4.1191,4.1191,4.1191,4.1191,4.1191,4.1191,4.1191,4.1191,4.1191,4.1191,4.1191,4.1191,4.1191,4.1191,4.1191,4.1191,4.1191,4.1191,4.1191,4.1191,4.1191,4.1191,4.1191,4.1191,4.1426,4.2051,4.2148,4.2402,4.3086,4.332,4.3493,4.3699,4.4273,4.4643,4.4635,4.5352,4.574,4.5652,4.5769,4.5834,4.5819,4.577,4.575,4.5819,4.575,4.5714,4.5726,4.5657,4.5631,4.5622,4.5614,4.5594,4.5594,4.5594,4.5594,4.5594,4.5594,4.5594,4.5594,4.5594,4.5594,4.5594,4.5594,4.5594,4.5594,4.5594,4.5594,4.5594,4.5594,4.5648,4.5714,4.5734,4.5841,4.5944,4.6076,4.6167,4.6234,4.6284,4.6308,4.6113,4.5644,4.5625,4.543,4.4961,4.4531,4.4316,4.4316,4.3047,4.2383,4.2383,4.2383,4.2383,4.2383,4.2383,4.2383,4.2383,4.2383,4.2383,4.2383,4.2383,4.2148,4.1777,4.1777,4.1543,4.1191,4.1191,4.1191,4.1191,4.1191,4.1445,4.1836,4.2246,4.2383,4.2383,4.2383,4.2383,4.2383,4.2383,4.2383,4.2383,4.2383,4.2383,4.2383,4.2383,4.2383,4.2187,4.1387,4.1191,4.1191,4.1191,4.1191,4.1328,4.1699,4.1777,4.1914,4.2324,4.2383,4.2383,4.2383,4.2383,4.2558,4.2969,4.3027,4.3359,4.4237,4.4291,4.4435,4.4862,4.5245,4.5439,4.5378,4.5735,4.5916,4.5848,4.5791,4.575,4.5746,4.5682,4.5673,4.5695,4.5673,4.5648,4.5648,4.5622,4.5594,4.5594,4.5594,4.5594,4.5594,4.5594,4.5594,4.5594,4.5594,4.5594,4.5594,4.5594,4.5594,4.5594,4.5594,4.5594,4.5594,4.5594,4.5594,4.5594,4.5622,4.5673,4.5735,4.5821,4.5891,4.6008,4.6183,4.621,4.6239,4.6308,4.6308,4.6308,4.6308,4.6308,4.6308,4.6308,4.5605,4.5215,4.5215,4.4512,4.4004,4.3691,4.3691,4.3691,4.3691,4.3691,4.3691,4.3691,4.3691,4.3691,4.3691,4.3691,4.3281,4.2617,4.2617,4.2226,4.1621,4.1621,4.1621,4.1621,4.1621,4.2051,4.2734,4.3457,4.3691,4.3691,4.3691,4.3691,4.3691,4.3691,4.3691,4.3691,4.3691,4.3691,4.3691,4.3691,4.3691,4.334,4.1933,4.1621,4.1621,4.1621,4.1621,4.1836,4.25,4.2617,4.2851,4.3574,4.3691,4.3691,4.3691,4.3691,4.3769,4.3906,4.4043,4.4412,4.5146,4.5151,4.5416,4.6112,4.6092,4.6008,4.5883,4.5867,4.5838,4.5785,4.5714,4.5693,4.5693,4.5631,4.5594,4.5594,4.5594,4.5594,4.5594,4.5594,4.5594,4.5594,4.5594,4.5594,4.5594,4.5594,4.5594,4.5594,4.5594,4.5594,4.5594,4.5594,4.5594,4.5594,4.5594,4.5594,4.5594,4.5594,4.5594,4.5622,4.5684,4.5738,4.5805,4.5885,4.5993,4.6107,4.6197,4.6255,4.6287,4.6308,4.6308,4.6308,4.6308,4.6308,4.6308,4.6308,4.6191,4.6113,4.6113,4.6016,4.5215,4.3691,4.3691,4.3691,4.3691,4.3691,4.3691,4.3691,4.3691,4.3691,4.3691,4.3691,4.3633,4.3516,4.3516,4.3457,4.3359,4.3359,4.3359,4.3359,4.3359,4.3437,4.3535,4.3652,4.3691,4.3691,4.3691,4.3691,4.3691,4.3691,4.3691,4.3691,4.3691,4.3691,4.3691,4.3691,4.3691,4.3633,4.3418,4.3359,4.3359,4.3359,4.3359,4.3398,4.3496,4.3516,4.3555,4.3672,4.3691,4.3691,4.3691,4.3691,4.3984,4.4725,4.5482,4.5979,4.6039,4.6036,4.6011,4.6026,4.5954,4.5883,4.5815,4.5757,4.5727,4.5698,4.5648,4.5603,4.5603,4.5594,4.5594,4.5594,4.5594,4.5594,4.5594,4.5594,4.5594,4.5594,4.5594,4.5594,4.5594,4.5594,4.5594,4.5594,4.5594,4.5594,4.5594,4.5594,4.5594,4.5594,4.5594,4.5594,4.5594,4.5594,4.5631,4.5665,4.5687,4.5788,4.588,4.5952,4.6072,4.6189,4.6259,4.6284,4.6308,4.6308,4.6308,4.6308,4.6308,4.6308,4.6308,4.6308,4.6308,4.6308,4.6308,4.6308,4.5918,4.5156,4.5156,4.5156,4.5156,4.5156,4.5156,4.5156,4.5156,4.5156,4.5156,4.5156,4.4863,4.4433,4.4433,4.4121,4.3691,4.3691,4.3691,4.3769,4.4258,4.4433,4.4492,4.498,4.5156,4.5156,4.5156,4.5156,4.5156,4.5156,4.5156,4.5156,4.5156,4.5156,4.5156,4.5156,4.5156,4.5156,4.5156,4.5156,4.4883,4.3906,4.3691,4.3848,4.4336,4.4433,4.459,4.5078,4.5156,4.5155,4.5155,4.5153,4.5285,4.5627,4.6002,4.6211,4.6144,4.6088,4.6013,4.5953,4.5886,4.5807,4.575,4.5711,4.569,4.5648,4.5622,4.5594,4.5594,4.5594,4.5594,4.5594,4.5594,4.5594,4.5594,4.5594,4.5594,4.5594,4.5594,4.5594,4.5594,4.5594,4.5594,4.5594,4.5594,4.5594,4.5594,4.5594,4.5594,4.5594]}]]